Logo
 


Wetterdaten - Samstag, 06.06.2020 - Rheinberg-Annaberg     25 m ber NN private Wetterstation Rheinberg/Angaben ohne Gewhr!
Wetterdaten: aktuell Samstag, 06.06.2020 04:30
Datum Zeit Temp. A. Feuchte A. Luftdruck Regen Wind Richtung Richtung Sonnenschein ET UV Solar Taupunkt Windchill Windben Empfang
06.06.2020 04:30 9,1 C 86 % 998,0 hPa 0,0 l/m 1,1 km/h S-SW 197 0 min 0,000 mm 0,0 UV-I 0 W/m 6,9 C 9,1 C 3,8 km/h 100,00 %
06.06.2020 04:29 9,1 C 85 % 998,0 hPa 0,0 l/m 4,6 km/h S-SW 211 0 min 0,000 mm 0,0 UV-I 0 W/m 6,7 C 9,1 C 7,7 km/h 100,00 %
06.06.2020 04:28 9,1 C 85 % 997,9 hPa 0,0 l/m 0,4 km/h SW 223 0 min 0,000 mm 0,0 UV-I 0 W/m 6,7 C 9,1 C 1,9 km/h 100,00 %
06.06.2020 04:27 9,1 C 85 % 998,0 hPa 0,0 l/m 3,5 km/h SW 224 0 min 0,000 mm 0,0 UV-I 0 W/m 6,7 C 9,1 C 5,7 km/h 100,00 %
06.06.2020 04:26 9,1 C 85 % 998,0 hPa 0,0 l/m 3,5 km/h S-SW 200 0 min 0,000 mm 0,0 UV-I 0 W/m 6,7 C 9,1 C 5,7 km/h 100,00 %
06.06.2020 04:25 9,1 C 85 % 998,0 hPa 0,0 l/m 4,7 km/h SW 217 0 min 0,000 mm 0,0 UV-I 0 W/m 6,7 C 9,1 C 7,7 km/h 95,83 %
06.06.2020 04:24 9,1 C 85 % 998,0 hPa 0,0 l/m 1,5 km/h S-SW 199 0 min 0,000 mm 0,0 UV-I 0 W/m 6,7 C 9,1 C 3,8 km/h 100,00 %
06.06.2020 04:23 9,1 C 85 % 998,0 hPa 0,0 l/m 4,7 km/h S-SW 199 0 min 0,000 mm 0,0 UV-I 0 W/m 6,7 C 9,1 C 7,7 km/h 100,00 %
06.06.2020 04:22 9,1 C 85 % 998,0 hPa 0,0 l/m 1,2 km/h SW 218 0 min 0,000 mm 0,0 UV-I 0 W/m 6,7 C 9,1 C 1,9 km/h 100,00 %
06.06.2020 04:21 9,1 C 85 % 997,9 hPa 0,0 l/m 7,1 km/h SW 217 0 min 0,000 mm 0,0 UV-I 0 W/m 6,7 C 8,6 C 13,4 km/h 100,00 %
06.06.2020 04:20 9,1 C 85 % 998,0 hPa 0,0 l/m 3,9 km/h SW 217 0 min 0,000 mm 0,0 UV-I 0 W/m 6,7 C 9,1 C 7,7 km/h 100,00 %
06.06.2020 04:19 9,2 C 85 % 998,0 hPa 0,0 l/m 5,5 km/h SW 223 0 min 0,000 mm 0,0 UV-I 0 W/m 6,8 C 9,2 C 9,6 km/h 100,00 %
06.06.2020 04:18 9,2 C 85 % 998,0 hPa 0,0 l/m 2,2 km/h S-SW 198 0 min 0,000 mm 0,0 UV-I 0 W/m 6,8 C 9,2 C 7,7 km/h 100,00 %
06.06.2020 04:17 9,2 C 85 % 998,0 hPa 0,0 l/m 0,8 km/h S-SW 200 0 min 0,000 mm 0,0 UV-I 0 W/m 6,8 C 9,2 C 3,8 km/h 100,00 %
06.06.2020 04:16 9,2 C 85 % 998,1 hPa 0,0 l/m 1,7 km/h S-SW 200 0 min 0,000 mm 0,0 UV-I 0 W/m 6,8 C 9,2 C 3,8 km/h 96,15 %
06.06.2020 04:15 9,2 C 85 % 998,1 hPa 0,0 l/m 3,9 km/h S-SW 211 0 min 0,000 mm 0,0 UV-I 0 W/m 6,8 C 9,2 C 7,7 km/h 96,30 %
06.06.2020 04:14 9,2 C 85 % 998,1 hPa 0,0 l/m 3,4 km/h SW 215 0 min 0,000 mm 0,0 UV-I 0 W/m 6,8 C 9,2 C 5,7 km/h 100,00 %
06.06.2020 04:13 9,2 C 85 % 998,1 hPa 0,0 l/m 3,1 km/h SW 215 0 min 0,000 mm 0,0 UV-I 0 W/m 6,8 C 9,2 C 7,7 km/h 100,00 %
06.06.2020 04:12 9,2 C 85 % 998,1 hPa 0,0 l/m 3,4 km/h SW 216 0 min 0,000 mm 0,0 UV-I 0 W/m 6,8 C 9,2 C 7,7 km/h 100,00 %
06.06.2020 04:11 9,2 C 86 % 998,1 hPa 0,0 l/m 5,2 km/h S-SW 213 0 min 0,000 mm 0,0 UV-I 0 W/m 7,0 C 9,2 C 9,6 km/h 96,15 %
06.06.2020 04:10 9,2 C 86 % 998,1 hPa 0,0 l/m 3,3 km/h SW 214 0 min 0,000 mm 0,0 UV-I 0 W/m 7,0 C 9,2 C 5,7 km/h 100,00 %
06.06.2020 04:09 9,2 C 86 % 998,1 hPa 0,0 l/m 8,0 km/h SW 214 0 min 0,000 mm 0,0 UV-I 0 W/m 7,0 C 8,0 C 11,5 km/h 100,00 %
06.06.2020 04:08 9,2 C 86 % 998,0 hPa 0,0 l/m 9,2 km/h S-SW 213 0 min 0,000 mm 0,0 UV-I 0 W/m 7,0 C 7,2 C 13,4 km/h 100,00 %
06.06.2020 04:07 9,2 C 86 % 998,0 hPa 0,0 l/m 8,6 km/h SW 215 0 min 0,000 mm 0,0 UV-I 0 W/m 7,0 C 7,6 C 13,4 km/h 96,15 %
06.06.2020 04:06 9,2 C 86 % 998,0 hPa 0,0 l/m 8,6 km/h SW 214 0 min 0,000 mm 0,0 UV-I 0 W/m 7,0 C 7,6 C 15,3 km/h 100,00 %
06.06.2020 04:05 9,2 C 86 % 997,9 hPa 0,0 l/m 2,5 km/h S-SW 205 0 min 0,000 mm 0,0 UV-I 0 W/m 7,0 C 9,2 C 5,7 km/h 100,00 %
06.06.2020 04:04 9,2 C 86 % 997,9 hPa 0,0 l/m 2,1 km/h S 189 0 min 0,000 mm 0,0 UV-I 0 W/m 7,0 C 9,2 C 3,8 km/h 100,00 %
06.06.2020 04:03 9,2 C 86 % 997,9 hPa 0,0 l/m 11,9 km/h S 187 0 min 0,000 mm 0,0 UV-I 0 W/m 7,0 C 5,6 C 19,1 km/h 92,86 %
06.06.2020 04:02 9,2 C 86 % 997,9 hPa 0,0 l/m 3,5 km/h S-SO 161 0 min 0,000 mm 0,0 UV-I 0 W/m 7,0 C 9,2 C 9,6 km/h 100,00 %
06.06.2020 04:01 9,1 C 86 % 997,9 hPa 0,0 l/m 6,6 km/h S-SW 208 0 min 0,000 mm 0,0 UV-I 0 W/m 6,9 C 9,0 C 15,3 km/h 100,00 %
06.06.2020 04:00 9,1 C 86 % 998,0 hPa 0,0 l/m 5,5 km/h S-SW 200 0 min 0,026 mm 0,0 UV-I 0 W/m 6,9 C 9,1 C 17,2 km/h 100,00 %
06.06.2020 03:59 9,1 C 86 % 998,1 hPa 0,0 l/m 4,6 km/h S-SW 208 0 min 0,000 mm 0,0 UV-I 0 W/m 6,9 C 9,1 C 9,6 km/h 100,00 %
06.06.2020 03:58 9,1 C 86 % 998,1 hPa 0,0 l/m 6,4 km/h S-SW 198 0 min 0,000 mm 0,0 UV-I 0 W/m 6,9 C 9,1 C 11,5 km/h 100,00 %
06.06.2020 03:57 9,1 C 86 % 998,0 hPa 0,0 l/m 3,5 km/h SW 219 0 min 0,000 mm 0,0 UV-I 0 W/m 6,9 C 9,1 C 7,7 km/h 100,00 %
06.06.2020 03:56 9,1 C 86 % 998,0 hPa 0,0 l/m 4,9 km/h W-SW 238 0 min 0,000 mm 0,0 UV-I 0 W/m 6,9 C 9,1 C 7,7 km/h 100,00 %
06.06.2020 03:55 9,1 C 86 % 997,9 hPa 0,0 l/m 7,3 km/h SW 214 0 min 0,000 mm 0,0 UV-I 0 W/m 6,9 C 8,4 C 11,5 km/h 91,30 %
06.06.2020 03:54 9,1 C 86 % 997,9 hPa 0,0 l/m 5,2 km/h SW 222 0 min 0,000 mm 0,0 UV-I 0 W/m 6,9 C 9,1 C 7,7 km/h 100,00 %
06.06.2020 03:53 9,1 C 86 % 997,8 hPa 0,0 l/m 5,7 km/h S-SW 202 0 min 0,000 mm 0,0 UV-I 0 W/m 6,9 C 9,1 C 11,5 km/h 100,00 %
06.06.2020 03:52 9,1 C 86 % 997,8 hPa 0,0 l/m 8,2 km/h S-SW 197 0 min 0,000 mm 0,0 UV-I 0 W/m 6,9 C 7,8 C 15,3 km/h 100,00 %
06.06.2020 03:51 9,0 C 86 % 997,7 hPa 0,0 l/m 5,4 km/h S-SW 211 0 min 0,000 mm 0,0 UV-I 0 W/m 6,8 C 9,0 C 11,5 km/h 100,00 %
06.06.2020 03:50 9,0 C 86 % 997,7 hPa 0,0 l/m 6,7 km/h W 269 0 min 0,000 mm 0,0 UV-I 0 W/m 6,8 C 8,8 C 13,4 km/h 100,00 %
06.06.2020 03:49 9,0 C 86 % 997,7 hPa 0,0 l/m 6,3 km/h S 178 0 min 0,000 mm 0,0 UV-I 0 W/m 6,8 C 9,0 C 11,5 km/h 95,83 %
06.06.2020 03:48 9,0 C 86 % 997,7 hPa 0,0 l/m 7,3 km/h S-SW 204 0 min 0,000 mm 0,0 UV-I 0 W/m 6,8 C 8,3 C 11,5 km/h 95,65 %
06.06.2020 03:47 9,0 C 86 % 997,7 hPa 0,0 l/m 0,5 km/h S-SW 202 0 min 0,000 mm 0,0 UV-I 0 W/m 6,8 C 9,0 C 3,8 km/h 100,00 %
06.06.2020 03:46 9,0 C 86 % 997,7 hPa 0,0 l/m 2,3 km/h S-SW 202 0 min 0,000 mm 0,0 UV-I 0 W/m 6,8 C 9,0 C 5,7 km/h 100,00 %
06.06.2020 03:45 9,0 C 87 % 997,7 hPa 0,0 l/m 4,2 km/h S-SW 200 0 min 0,000 mm 0,0 UV-I 0 W/m 7,0 C 9,0 C 7,7 km/h 100,00 %
06.06.2020 03:44 8,9 C 87 % 997,7 hPa 0,0 l/m 6,1 km/h S-SW 203 0 min 0,000 mm 0,0 UV-I 0 W/m 6,9 C 8,9 C 9,6 km/h 100,00 %
06.06.2020 03:43 8,9 C 87 % 997,7 hPa 0,0 l/m 6,0 km/h S-SW 210 0 min 0,000 mm 0,0 UV-I 0 W/m 6,9 C 8,9 C 13,4 km/h 100,00 %
06.06.2020 03:42 8,9 C 87 % 997,6 hPa 0,0 l/m 3,7 km/h S 177 0 min 0,000 mm 0,0 UV-I 0 W/m 6,9 C 8,9 C 9,6 km/h 96,55 %
06.06.2020 03:41 8,9 C 87 % 997,7 hPa 0,0 l/m 6,9 km/h S 186 0 min 0,000 mm 0,0 UV-I 0 W/m 6,9 C 8,5 C 13,4 km/h 100,00 %
06.06.2020 03:40 8,9 C 87 % 997,7 hPa 0,0 l/m 3,3 km/h S-SW 208 0 min 0,000 mm 0,0 UV-I 0 W/m 6,9 C 8,9 C 3,8 km/h 100,00 %
06.06.2020 03:39 8,9 C 87 % 997,6 hPa 0,0 l/m 9,4 km/h SW 216 0 min 0,000 mm 0,0 UV-I 0 W/m 6,9 C 6,8 C 15,3 km/h 93,33 %
06.06.2020 03:38 8,9 C 87 % 997,6 hPa 0,0 l/m 2,6 km/h S 190 0 min 0,000 mm 0,0 UV-I 0 W/m 6,9 C 8,9 C 5,7 km/h 100,00 %
06.06.2020 03:37 8,9 C 87 % 997,6 hPa 0,0 l/m 4,6 km/h S 182 0 min 0,000 mm 0,0 UV-I 0 W/m 6,9 C 8,9 C 7,7 km/h 100,00 %
06.06.2020 03:36 8,8 C 87 % 997,6 hPa 0,0 l/m 8,5 km/h S 188 0 min 0,000 mm 0,0 UV-I 0 W/m 6,8 C 7,2 C 15,3 km/h 95,65 %
06.06.2020 03:35 8,8 C 87 % 997,7 hPa 0,0 l/m 6,5 km/h S-SW 204 0 min 0,000 mm 0,0 UV-I 0 W/m 6,8 C 8,7 C 13,4 km/h 100,00 %
06.06.2020 03:34 8,8 C 87 % 997,7 hPa 0,0 l/m 3,7 km/h S-SO 167 0 min 0,000 mm 0,0 UV-I 0 W/m 6,8 C 8,8 C 9,6 km/h 100,00 %
06.06.2020 03:33 8,8 C 87 % 997,7 hPa 0,0 l/m 8,3 km/h S-SW 197 0 min 0,000 mm 0,0 UV-I 0 W/m 6,8 C 7,4 C 13,4 km/h 100,00 %
06.06.2020 03:32 8,8 C 87 % 997,7 hPa 0,0 l/m 3,8 km/h S-SW 203 0 min 0,000 mm 0,0 UV-I 0 W/m 6,8 C 8,8 C 7,7 km/h 100,00 %
06.06.2020 03:31 8,8 C 87 % 997,7 hPa 0,0 l/m 8,2 km/h SW 215 0 min 0,000 mm 0,0 UV-I 0 W/m 6,8 C 7,5 C 17,2 km/h 100,00 %
06.06.2020 03:30 8,8 C 87 % 997,7 hPa 0,0 l/m 8,0 km/h S 180 0 min 0,000 mm 0,0 UV-I 0 W/m 6,8 C 7,6 C 15,3 km/h 100,00 %
06.06.2020 03:29 8,8 C 87 % 997,7 hPa 0,0 l/m 4,6 km/h S-SW 207 0 min 0,000 mm 0,0 UV-I 0 W/m 6,8 C 8,8 C 9,6 km/h 100,00 %
06.06.2020 03:28 8,8 C 87 % 997,7 hPa 0,0 l/m 2,7 km/h S-SW 211 0 min 0,000 mm 0,0 UV-I 0 W/m 6,8 C 8,8 C 5,7 km/h 95,83 %
06.06.2020 03:27 8,8 C 87 % 997,8 hPa 0,0 l/m 5,7 km/h SW 219 0 min 0,000 mm 0,0 UV-I 0 W/m 6,8 C 8,8 C 11,5 km/h 100,00 %
06.06.2020 03:26 8,8 C 87 % 997,8 hPa 0,0 l/m 7,6 km/h S-SO 161 0 min 0,000 mm 0,0 UV-I 0 W/m 6,8 C 7,9 C 11,5 km/h 100,00 %
06.06.2020 03:25 8,8 C 87 % 997,8 hPa 0,0 l/m 6,5 km/h S 178 0 min 0,000 mm 0,0 UV-I 0 W/m 6,8 C 8,7 C 13,4 km/h 95,65 %
06.06.2020 03:24 8,8 C 87 % 997,7 hPa 0,0 l/m 5,5 km/h S 175 0 min 0,000 mm 0,0 UV-I 0 W/m 6,8 C 8,8 C 13,4 km/h 100,00 %
06.06.2020 03:23 8,8 C 87 % 997,7 hPa 0,0 l/m 6,5 km/h S-SW 211 0 min 0,000 mm 0,0 UV-I 0 W/m 6,8 C 8,7 C 15,3 km/h 100,00 %
06.06.2020 03:22 8,8 C 87 % 997,7 hPa 0,0 l/m 9,6 km/h S-SW 203 0 min 0,000 mm 0,0 UV-I 0 W/m 6,8 C 6,5 C 15,3 km/h 100,00 %
06.06.2020 03:21 8,7 C 87 % 997,7 hPa 0,0 l/m 8,8 km/h S-SO 167 0 min 0,000 mm 0,0 UV-I 0 W/m 6,7 C 6,9 C 13,4 km/h 100,00 %
06.06.2020 03:20 8,7 C 87 % 997,7 hPa 0,0 l/m 8,5 km/h S 177 0 min 0,000 mm 0,0 UV-I 0 W/m 6,7 C 7,1 C 13,4 km/h 100,00 %
06.06.2020 03:19 8,7 C 87 % 997,7 hPa 0,0 l/m 4,0 km/h S-SW 193 0 min 0,000 mm 0,0 UV-I 0 W/m 6,7 C 8,7 C 9,6 km/h 100,00 %
06.06.2020 03:18 8,7 C 87 % 997,7 hPa 0,0 l/m 2,9 km/h S-SO 158 0 min 0,000 mm 0,0 UV-I 0 W/m 6,7 C 8,7 C 5,7 km/h 100,00 %
06.06.2020 03:17 8,7 C 87 % 997,8 hPa 0,0 l/m 4,5 km/h S-SW 211 0 min 0,000 mm 0,0 UV-I 0 W/m 6,7 C 8,7 C 7,7 km/h 100,00 %
06.06.2020 03:16 8,7 C 87 % 997,8 hPa 0,0 l/m 5,4 km/h S-SO 163 0 min 0,000 mm 0,0 UV-I 0 W/m 6,7 C 8,7 C 11,5 km/h 100,00 %
06.06.2020 03:15 8,7 C 87 % 997,8 hPa 0,0 l/m 5,7 km/h S-SW 194 0 min 0,000 mm 0,0 UV-I 0 W/m 6,7 C 8,7 C 9,6 km/h 100,00 %
06.06.2020 03:14 8,7 C 87 % 997,8 hPa 0,0 l/m 5,4 km/h S-SW 213 0 min 0,000 mm 0,0 UV-I 0 W/m 6,7 C 8,7 C 13,4 km/h 100,00 %
06.06.2020 03:13 8,7 C 87 % 997,8 hPa 0,0 l/m 9,8 km/h S 175 0 min 0,000 mm 0,0 UV-I 0 W/m 6,7 C 6,3 C 15,3 km/h 100,00 %
06.06.2020 03:12 8,7 C 87 % 997,8 hPa 0,0 l/m 5,2 km/h S-SW 200 0 min 0,000 mm 0,0 UV-I 0 W/m 6,7 C 8,7 C 9,6 km/h 100,00 %
06.06.2020 03:11 8,7 C 87 % 997,8 hPa 0,0 l/m 5,8 km/h S 177 0 min 0,000 mm 0,0 UV-I 0 W/m 6,7 C 8,7 C 9,6 km/h 100,00 %
06.06.2020 03:10 8,7 C 87 % 997,8 hPa 0,0 l/m 7,1 km/h S-SW 192 0 min 0,000 mm 0,0 UV-I 0 W/m 6,7 C 8,2 C 19,1 km/h 100,00 %
06.06.2020 03:09 8,7 C 87 % 997,8 hPa 0,0 l/m 4,8 km/h S-SW 194 0 min 0,000 mm 0,0 UV-I 0 W/m 6,7 C 8,7 C 9,6 km/h 96,67 %
06.06.2020 03:08 8,7 C 87 % 997,8 hPa 0,0 l/m 2,2 km/h S-SW 196 0 min 0,000 mm 0,0 UV-I 0 W/m 6,7 C 8,7 C 3,8 km/h 100,00 %
06.06.2020 03:07 8,7 C 87 % 997,8 hPa 0,0 l/m 3,0 km/h S-SW 194 0 min 0,000 mm 0,0 UV-I 0 W/m 6,7 C 8,7 C 5,7 km/h 100,00 %
06.06.2020 03:06 8,7 C 87 % 997,8 hPa 0,0 l/m 4,9 km/h S 191 0 min 0,000 mm 0,0 UV-I 0 W/m 6,7 C 8,7 C 9,6 km/h 95,65 %
06.06.2020 03:05 8,7 C 87 % 997,8 hPa 0,0 l/m 8,3 km/h S-SW 199 0 min 0,000 mm 0,0 UV-I 0 W/m 6,7 C 7,3 C 15,3 km/h 100,00 %
06.06.2020 03:04 8,7 C 87 % 997,8 hPa 0,0 l/m 6,3 km/h S-SO 167 0 min 0,000 mm 0,0 UV-I 0 W/m 6,7 C 8,7 C 9,6 km/h 100,00 %
06.06.2020 03:03 8,7 C 87 % 997,9 hPa 0,0 l/m 3,9 km/h S-SW 213 0 min 0,000 mm 0,0 UV-I 0 W/m 6,7 C 8,7 C 7,7 km/h 100,00 %
06.06.2020 03:02 8,7 C 87 % 997,9 hPa 0,0 l/m 6,7 km/h S 179 0 min 0,000 mm 0,0 UV-I 0 W/m 6,7 C 8,5 C 13,4 km/h 100,00 %
06.06.2020 03:01 8,7 C 87 % 997,9 hPa 0,0 l/m 4,2 km/h S-SW 209 0 min 0,000 mm 0,0 UV-I 0 W/m 6,7 C 8,7 C 9,6 km/h 100,00 %
06.06.2020 03:00 8,7 C 87 % 997,9 hPa 0,0 l/m 6,7 km/h S 190 0 min 0,025 mm 0,0 UV-I 0 W/m 6,7 C 8,5 C 15,3 km/h 100,00 %
06.06.2020 02:59 8,7 C 87 % 997,9 hPa 0,0 l/m 4,3 km/h S 186 0 min 0,000 mm 0,0 UV-I 0 W/m 6,7 C 8,7 C 13,4 km/h 100,00 %
06.06.2020 02:58 8,7 C 87 % 997,9 hPa 0,0 l/m 9,7 km/h S-SO 158 0 min 0,000 mm 0,0 UV-I 0 W/m 6,7 C 6,3 C 17,2 km/h 100,00 %
06.06.2020 02:57 8,7 C 87 % 997,9 hPa 0,0 l/m 3,4 km/h S 186 0 min 0,000 mm 0,0 UV-I 0 W/m 6,7 C 8,7 C 7,7 km/h 96,30 %
06.06.2020 02:56 8,7 C 87 % 997,9 hPa 0,0 l/m 6,5 km/h S 175 0 min 0,000 mm 0,0 UV-I 0 W/m 6,7 C 8,6 C 11,5 km/h 100,00 %
06.06.2020 02:55 8,7 C 87 % 997,9 hPa 0,0 l/m 3,2 km/h S 191 0 min 0,000 mm 0,0 UV-I 0 W/m 6,7 C 8,7 C 7,7 km/h 100,00 %
06.06.2020 02:54 8,7 C 87 % 997,9 hPa 0,0 l/m 3,7 km/h S-SW 196 0 min 0,000 mm 0,0 UV-I 0 W/m 6,7 C 8,7 C 7,7 km/h 100,00 %
06.06.2020 02:53 8,7 C 87 % 997,9 hPa 0,0 l/m 2,8 km/h S 189 0 min 0,000 mm 0,0 UV-I 0 W/m 6,7 C 8,7 C 5,7 km/h 100,00 %
06.06.2020 02:52 8,7 C 87 % 997,9 hPa 0,0 l/m 3,1 km/h S-SW 196 0 min 0,000 mm 0,0 UV-I 0 W/m 6,7 C 8,7 C 7,7 km/h 100,00 %
06.06.2020 02:51 8,7 C 87 % 998,0 hPa 0,0 l/m 3,4 km/h S-SW 211 0 min 0,000 mm 0,0 UV-I 0 W/m 6,7 C 8,7 C 7,7 km/h 100,00 %
06.06.2020 02:50 8,7 C 87 % 998,0 hPa 0,0 l/m 3,4 km/h S-SW 205 0 min 0,000 mm 0,0 UV-I 0 W/m 6,7 C 8,7 C 9,6 km/h 95,83 %
06.06.2020 02:49 8,7 C 87 % 997,9 hPa 0,0 l/m 5,4 km/h S-SW 195 0 min 0,000 mm 0,0 UV-I 0 W/m 6,7 C 8,7 C 7,7 km/h 100,00 %
06.06.2020 02:48 8,7 C 86 % 998,0 hPa 0,0 l/m 4,6 km/h S-SO 165 0 min 0,000 mm 0,0 UV-I 0 W/m 6,5 C 8,7 C 9,6 km/h 100,00 %
06.06.2020 02:47 8,7 C 86 % 998,0 hPa 0,0 l/m 3,4 km/h S 173 0 min 0,000 mm 0,0 UV-I 0 W/m 6,5 C 8,7 C 7,7 km/h 100,00 %
06.06.2020 02:46 8,8 C 86 % 997,9 hPa 0,0 l/m 5,1 km/h S-SW 194 0 min 0,000 mm 0,0 UV-I 0 W/m 6,6 C 8,8 C 9,6 km/h 100,00 %
06.06.2020 02:45 8,8 C 86 % 998,0 hPa 0,0 l/m 4,5 km/h S-SW 202 0 min 0,000 mm 0,0 UV-I 0 W/m 6,6 C 8,8 C 7,7 km/h 100,00 %
06.06.2020 02:44 8,8 C 86 % 997,9 hPa 0,0 l/m 3,8 km/h S-SW 198 0 min 0,000 mm 0,0 UV-I 0 W/m 6,6 C 8,8 C 9,6 km/h 100,00 %
06.06.2020 02:43 8,8 C 86 % 997,9 hPa 0,0 l/m 2,6 km/h S 184 0 min 0,000 mm 0,0 UV-I 0 W/m 6,6 C 8,8 C 5,7 km/h 100,00 %
06.06.2020 02:42 8,8 C 86 % 997,9 hPa 0,0 l/m 6,9 km/h S 178 0 min 0,000 mm 0,0 UV-I 0 W/m 6,6 C 8,4 C 15,3 km/h 100,00 %
06.06.2020 02:41 8,8 C 86 % 997,9 hPa 0,0 l/m 5,0 km/h SW 227 0 min 0,000 mm 0,0 UV-I 0 W/m 6,6 C 8,8 C 17,2 km/h 100,00 %
06.06.2020 02:40 8,8 C 86 % 998,0 hPa 0,0 l/m 6,6 km/h S-SW 196 0 min 0,000 mm 0,0 UV-I 0 W/m 6,6 C 8,7 C 11,5 km/h 100,00 %
06.06.2020 02:39 8,8 C 86 % 998,0 hPa 0,0 l/m 2,0 km/h SW 216 0 min 0,000 mm 0,0 UV-I 0 W/m 6,6 C 8,8 C 5,7 km/h 97,37 %
06.06.2020 02:38 8,8 C 86 % 997,9 hPa 0,0 l/m 6,7 km/h SW 216 0 min 0,000 mm 0,0 UV-I 0 W/m 6,6 C 8,6 C 11,5 km/h 100,00 %
06.06.2020 02:37 8,8 C 86 % 998,0 hPa 0,0 l/m 4,1 km/h S-SW 192 0 min 0,000 mm 0,0 UV-I 0 W/m 6,6 C 8,8 C 7,7 km/h 100,00 %
06.06.2020 02:36 8,8 C 86 % 997,9 hPa 0,0 l/m 7,4 km/h S 188 0 min 0,000 mm 0,0 UV-I 0 W/m 6,6 C 8,0 C 13,4 km/h 100,00 %
06.06.2020 02:35 8,9 C 86 % 997,9 hPa 0,0 l/m 7,6 km/h S-SW 195 0 min 0,000 mm 0,0 UV-I 0 W/m 6,7 C 8,0 C 13,4 km/h 100,00 %
06.06.2020 02:34 8,9 C 86 % 997,9 hPa 0,0 l/m 2,7 km/h S-SO 164 0 min 0,000 mm 0,0 UV-I 0 W/m 6,7 C 8,9 C 5,7 km/h 100,00 %
06.06.2020 02:33 8,9 C 86 % 997,9 hPa 0,0 l/m 4,2 km/h S-SW 212 0 min 0,000 mm 0,0 UV-I 0 W/m 6,7 C 8,9 C 7,7 km/h 100,00 %
06.06.2020 02:32 8,9 C 86 % 997,9 hPa 0,0 l/m 4,3 km/h S 186 0 min 0,000 mm 0,0 UV-I 0 W/m 6,7 C 8,9 C 7,7 km/h 100,00 %
06.06.2020 02:31 8,9 C 86 % 997,9 hPa 0,0 l/m 4,9 km/h SO 132 0 min 0,000 mm 0,0 UV-I 0 W/m 6,7 C 8,9 C 11,5 km/h 96,00 %
06.06.2020 02:30 8,9 C 86 % 997,9 hPa 0,0 l/m 4,4 km/h S-SW 196 0 min 0,000 mm 0,0 UV-I 0 W/m 6,7 C 8,9 C 7,7 km/h 100,00 %
06.06.2020 02:29 8,9 C 85 % 997,9 hPa 0,0 l/m 6,9 km/h S-SW 198 0 min 0,000 mm 0,0 UV-I 0 W/m 6,5 C 8,5 C 11,5 km/h 100,00 %
06.06.2020 02:28 8,9 C 85 % 997,9 hPa 0,0 l/m 6,4 km/h S 183 0 min 0,000 mm 0,0 UV-I 0 W/m 6,5 C 8,9 C 11,5 km/h 95,65 %
06.06.2020 02:27 8,9 C 85 % 998,0 hPa 0,0 l/m 4,5 km/h S-SW 200 0 min 0,000 mm 0,0 UV-I 0 W/m 6,5 C 8,9 C 9,6 km/h 95,83 %
06.06.2020 02:26 8,9 C 85 % 998,0 hPa 0,0 l/m 3,8 km/h S-SW 202 0 min 0,000 mm 0,0 UV-I 0 W/m 6,5 C 8,9 C 7,7 km/h 100,00 %
06.06.2020 02:25 9,0 C 85 % 997,9 hPa 0,0 l/m 5,2 km/h S-SW 211 0 min 0,000 mm 0,0 UV-I 0 W/m 6,6 C 9,0 C 9,6 km/h 100,00 %
06.06.2020 02:24 8,9 C 85 % 998,0 hPa 0,0 l/m 5,1 km/h S 169 0 min 0,000 mm 0,0 UV-I 0 W/m 6,5 C 8,9 C 9,6 km/h 100,00 %
06.06.2020 02:23 8,9 C 85 % 997,9 hPa 0,0 l/m 8,2 km/h S-SO 150 0 min 0,000 mm 0,0 UV-I 0 W/m 6,5 C 7,6 C 17,2 km/h 100,00 %
06.06.2020 02:22 9,0 C 85 % 998,0 hPa 0,0 l/m 7,6 km/h S 184 0 min 0,000 mm 0,0 UV-I 0 W/m 6,6 C 8,1 C 13,4 km/h 100,00 %
06.06.2020 02:21 9,0 C 85 % 997,9 hPa 0,0 l/m 8,1 km/h S-SO 165 0 min 0,000 mm 0,0 UV-I 0 W/m 6,6 C 7,7 C 13,4 km/h 100,00 %
06.06.2020 02:20 9,0 C 85 % 997,9 hPa 0,0 l/m 9,1 km/h S-SW 211 0 min 0,000 mm 0,0 UV-I 0 W/m 6,6 C 7,1 C 13,4 km/h 100,00 %
06.06.2020 02:19 9,0 C 85 % 997,9 hPa 0,0 l/m 9,8 km/h S 169 0 min 0,000 mm 0,0 UV-I 0 W/m 6,6 C 6,6 C 17,2 km/h 100,00 %
06.06.2020 02:18 9,0 C 85 % 997,9 hPa 0,0 l/m 7,7 km/h S-SW 199 0 min 0,000 mm 0,0 UV-I 0 W/m 6,6 C 8,0 C 15,3 km/h 100,00 %
06.06.2020 02:17 9,0 C 85 % 997,9 hPa 0,0 l/m 6,9 km/h S-SW 194 0 min 0,000 mm 0,0 UV-I 0 W/m 6,6 C 8,6 C 11,5 km/h 100,00 %
06.06.2020 02:16 9,1 C 85 % 997,9 hPa 0,0 l/m 4,4 km/h S 178 0 min 0,000 mm 0,0 UV-I 0 W/m 6,7 C 9,1 C 9,6 km/h 100,00 %
06.06.2020 02:15 9,1 C 85 % 997,9 hPa 0,0 l/m 6,8 km/h S-SW 192 0 min 0,000 mm 0,0 UV-I 0 W/m 6,7 C 8,8 C 13,4 km/h 100,00 %
06.06.2020 02:14 9,1 C 85 % 997,9 hPa 0,0 l/m 9,0 km/h S 182 0 min 0,000 mm 0,0 UV-I 0 W/m 6,7 C 7,2 C 13,4 km/h 100,00 %
06.06.2020 02:13 9,1 C 85 % 997,9 hPa 0,0 l/m 7,7 km/h S 178 0 min 0,000 mm 0,0 UV-I 0 W/m 6,7 C 8,1 C 13,4 km/h 100,00 %
06.06.2020 02:12 9,1 C 85 % 997,9 hPa 0,0 l/m 1,5 km/h S-SW 202 0 min 0,000 mm 0,0 UV-I 0 W/m 6,7 C 9,1 C 3,8 km/h 100,00 %
06.06.2020 02:11 9,1 C 85 % 997,8 hPa 0,0 l/m 7,5 km/h S-SW 202 0 min 0,000 mm 0,0 UV-I 0 W/m 6,7 C 8,3 C 15,3 km/h 100,00 %
06.06.2020 02:10 9,1 C 85 % 997,9 hPa 0,0 l/m 6,8 km/h S 172 0 min 0,000 mm 0,0 UV-I 0 W/m 6,7 C 8,8 C 15,3 km/h 100,00 %
06.06.2020 02:09 9,1 C 85 % 997,8 hPa 0,0 l/m 4,5 km/h S 172 0 min 0,000 mm 0,0 UV-I 0 W/m 6,7 C 9,1 C 9,6 km/h 95,65 %
06.06.2020 02:08 9,1 C 85 % 997,8 hPa 0,0 l/m 5,3 km/h S 187 0 min 0,000 mm 0,0 UV-I 0 W/m 6,7 C 9,1 C 11,5 km/h 100,00 %
06.06.2020 02:07 9,1 C 84 % 997,8 hPa 0,0 l/m 6,3 km/h S-SW 211 0 min 0,000 mm 0,0 UV-I 0 W/m 6,5 C 9,1 C 11,5 km/h 100,00 %
06.06.2020 02:06 9,1 C 84 % 997,8 hPa 0,0 l/m 8,9 km/h S 177 0 min 0,000 mm 0,0 UV-I 0 W/m 6,5 C 7,3 C 13,4 km/h 100,00 %
06.06.2020 02:05 9,1 C 84 % 997,9 hPa 0,0 l/m 8,9 km/h S 171 0 min 0,000 mm 0,0 UV-I 0 W/m 6,5 C 7,3 C 13,4 km/h 100,00 %
06.06.2020 02:04 9,1 C 84 % 997,9 hPa 0,0 l/m 5,1 km/h S 185 0 min 0,000 mm 0,0 UV-I 0 W/m 6,5 C 9,1 C 9,6 km/h 100,00 %
06.06.2020 02:03 9,1 C 84 % 997,9 hPa 0,0 l/m 6,9 km/h S 173 0 min 0,000 mm 0,0 UV-I 0 W/m 6,5 C 8,7 C 13,4 km/h 95,65 %
06.06.2020 02:02 9,1 C 84 % 997,9 hPa 0,0 l/m 4,7 km/h S-SW 197 0 min 0,000 mm 0,0 UV-I 0 W/m 6,5 C 9,1 C 9,6 km/h 100,00 %
06.06.2020 02:01 9,1 C 84 % 997,9 hPa 0,0 l/m 7,0 km/h S-SW 202 0 min 0,000 mm 0,0 UV-I 0 W/m 6,5 C 8,7 C 13,4 km/h 100,00 %
06.06.2020 02:00 9,1 C 84 % 997,9 hPa 0,0 l/m 8,3 km/h S 174 0 min 0,026 mm 0,0 UV-I 0 W/m 6,5 C 7,7 C 13,4 km/h 95,83 %
06.06.2020 01:59 9,1 C 84 % 997,9 hPa 0,0 l/m 10,6 km/h SO 137 0 min 0,000 mm 0,0 UV-I 0 W/m 6,5 C 6,2 C 19,1 km/h 100,00 %
06.06.2020 01:58 9,1 C 84 % 997,9 hPa 0,0 l/m 6,2 km/h SW 225 0 min 0,000 mm 0,0 UV-I 0 W/m 6,5 C 9,1 C 7,7 km/h 100,00 %
06.06.2020 01:57 9,1 C 84 % 997,9 hPa 0,0 l/m 9,7 km/h S 173 0 min 0,000 mm 0,0 UV-I 0 W/m 6,5 C 6,8 C 15,3 km/h 100,00 %
06.06.2020 01:56 9,1 C 84 % 997,9 hPa 0,0 l/m 12,2 km/h S-SO 162 0 min 0,000 mm 0,0 UV-I 0 W/m 6,5 C 5,4 C 19,1 km/h 100,00 %
06.06.2020 01:55 9,1 C 84 % 997,8 hPa 0,0 l/m 6,9 km/h SW 232 0 min 0,000 mm 0,0 UV-I 0 W/m 6,5 C 8,7 C 19,1 km/h 91,67 %
06.06.2020 01:54 9,1 C 84 % 997,8 hPa 0,0 l/m 9,9 km/h S-SW 196 0 min 0,000 mm 0,0 UV-I 0 W/m 6,5 C 6,7 C 17,2 km/h 100,00 %
06.06.2020 01:53 9,1 C 84 % 997,8 hPa 0,0 l/m 9,5 km/h S 184 0 min 0,000 mm 0,0 UV-I 0 W/m 6,5 C 6,9 C 17,2 km/h 100,00 %
06.06.2020 01:52 9,1 C 84 % 997,8 hPa 0,0 l/m 8,3 km/h S-SO 161 0 min 0,000 mm 0,0 UV-I 0 W/m 6,5 C 7,7 C 13,4 km/h 100,00 %
06.06.2020 01:51 9,1 C 84 % 997,8 hPa 0,0 l/m 9,8 km/h S-SO 157 0 min 0,000 mm 0,0 UV-I 0 W/m 6,5 C 6,7 C 21,0 km/h 100,00 %
06.06.2020 01:50 9,1 C 84 % 997,8 hPa 0,0 l/m 7,9 km/h W-SW 239 0 min 0,000 mm 0,0 UV-I 0 W/m 6,5 C 8,0 C 15,3 km/h 100,00 %
06.06.2020 01:49 9,2 C 84 % 997,7 hPa 0,0 l/m 8,3 km/h S 187 0 min 0,000 mm 0,0 UV-I 0 W/m 6,6 C 7,8 C 15,3 km/h 100,00 %
06.06.2020 01:48 9,2 C 84 % 997,8 hPa 0,0 l/m 9,7 km/h S-SW 205 0 min 0,000 mm 0,0 UV-I 0 W/m 6,6 C 6,9 C 13,4 km/h 100,00 %
06.06.2020 01:47 9,2 C 83 % 997,8 hPa 0,0 l/m 6,1 km/h SO 145 0 min 0,000 mm 0,0 UV-I 0 W/m 6,5 C 9,2 C 11,5 km/h 100,00 %
06.06.2020 01:46 9,2 C 83 % 997,8 hPa 0,0 l/m 4,5 km/h S 178 0 min 0,000 mm 0,0 UV-I 0 W/m 6,5 C 9,2 C 7,7 km/h 100,00 %
06.06.2020 01:45 9,2 C 84 % 997,8 hPa 0,0 l/m 8,5 km/h S-SO 155 0 min 0,000 mm 0,0 UV-I 0 W/m 6,6 C 7,7 C 11,5 km/h 100,00 %
06.06.2020 01:44 9,2 C 83 % 997,8 hPa 0,0 l/m 5,0 km/h S-SW 200 0 min 0,000 mm 0,0 UV-I 0 W/m 6,5 C 9,2 C 9,6 km/h 100,00 %
06.06.2020 01:43 9,2 C 83 % 997,8 hPa 0,0 l/m 8,4 km/h S-SW 199 0 min 0,000 mm 0,0 UV-I 0 W/m 6,5 C 7,7 C 17,2 km/h 100,00 %
06.06.2020 01:42 9,2 C 83 % 997,8 hPa 0,0 l/m 7,3 km/h S 178 0 min 0,000 mm 0,0 UV-I 0 W/m 6,5 C 8,5 C 15,3 km/h 100,00 %
06.06.2020 01:41 9,2 C 83 % 997,9 hPa 0,0 l/m 10,3 km/h S-SW 194 0 min 0,000 mm 0,0 UV-I 0 W/m 6,5 C 6,5 C 17,2 km/h 100,00 %
06.06.2020 01:40 9,2 C 83 % 997,9 hPa 0,0 l/m 11,7 km/h S-SO 163 0 min 0,000 mm 0,0 UV-I 0 W/m 6,5 C 5,8 C 19,1 km/h 96,67 %
06.06.2020 01:39 9,2 C 83 % 997,8 hPa 0,0 l/m 9,1 km/h S-SW 209 0 min 0,000 mm 0,0 UV-I 0 W/m 6,5 C 7,3 C 13,4 km/h 100,00 %
06.06.2020 01:38 9,2 C 83 % 997,8 hPa 0,0 l/m 6,9 km/h S-SO 157 0 min 0,000 mm 0,0 UV-I 0 W/m 6,5 C 8,8 C 13,4 km/h 100,00 %
06.06.2020 01:37 9,2 C 83 % 997,9 hPa 0,0 l/m 10,8 km/h SW 219 0 min 0,000 mm 0,0 UV-I 0 W/m 6,5 C 6,2 C 15,3 km/h 100,00 %
06.06.2020 01:36 9,2 C 83 % 997,9 hPa 0,0 l/m 11,3 km/h S-SW 192 0 min 0,000 mm 0,0 UV-I 0 W/m 6,5 C 6,0 C 24,9 km/h 95,83 %
06.06.2020 01:35 9,2 C 83 % 997,9 hPa 0,0 l/m 5,9 km/h SW 227 0 min 0,000 mm 0,0 UV-I 0 W/m 6,5 C 9,2 C 9,6 km/h 100,00 %
06.06.2020 01:34 9,3 C 83 % 997,8 hPa 0,0 l/m 10,3 km/h S-SW 204 0 min 0,000 mm 0,0 UV-I 0 W/m 6,6 C 6,6 C 23,0 km/h 100,00 %
06.06.2020 01:33 9,2 C 83 % 997,9 hPa 0,0 l/m 15,7 km/h S-SW 213 0 min 0,000 mm 0,0 UV-I 0 W/m 6,5 C 3,9 C 23,0 km/h 95,65 %
06.06.2020 01:32 9,3 C 83 % 997,9 hPa 0,0 l/m 12,5 km/h S 173 0 min 0,000 mm 0,0 UV-I 0 W/m 6,6 C 5,5 C 30,6 km/h 100,00 %
06.06.2020 01:31 9,3 C 83 % 997,9 hPa 0,0 l/m 11,3 km/h S-SW 210 0 min 0,000 mm 0,0 UV-I 0 W/m 6,6 C 6,1 C 19,1 km/h 100,00 %
06.06.2020 01:30 9,3 C 83 % 997,9 hPa 0,0 l/m 10,7 km/h S-SO 150 0 min 0,000 mm 0,0 UV-I 0 W/m 6,6 C 6,4 C 21,0 km/h 100,00 %
06.06.2020 01:29 9,3 C 83 % 997,9 hPa 0,0 l/m 6,8 km/h S-SW 205 0 min 0,000 mm 0,0 UV-I 0 W/m 6,6 C 9,0 C 11,5 km/h 100,00 %
06.06.2020 01:28 9,3 C 83 % 997,9 hPa 0,0 l/m 13,2 km/h W-SW 242 0 min 0,000 mm 0,0 UV-I 0 W/m 6,6 C 5,1 C 19,1 km/h 100,00 %
06.06.2020 01:27 9,3 C 82 % 997,9 hPa 0,0 l/m 13,1 km/h SW 218 0 min 0,000 mm 0,0 UV-I 0 W/m 6,4 C 5,2 C 21,0 km/h 100,00 %
06.06.2020 01:26 9,3 C 82 % 997,9 hPa 0,0 l/m 7,7 km/h S 180 0 min 0,000 mm 0,0 UV-I 0 W/m 6,4 C 8,3 C 13,4 km/h 100,00 %
06.06.2020 01:25 9,3 C 82 % 997,9 hPa 0,0 l/m 11,1 km/h SW 214 0 min 0,000 mm 0,0 UV-I 0 W/m 6,4 C 6,2 C 21,0 km/h 96,15 %
06.06.2020 01:24 9,3 C 82 % 997,9 hPa 0,0 l/m 7,6 km/h S 180 0 min 0,000 mm 0,0 UV-I 0 W/m 6,4 C 8,4 C 13,4 km/h 100,00 %
06.06.2020 01:23 9,3 C 82 % 997,9 hPa 0,0 l/m 9,0 km/h S-SW 202 0 min 0,000 mm 0,0 UV-I 0 W/m 6,4 C 7,4 C 13,4 km/h 100,00 %
06.06.2020 01:22 9,3 C 82 % 997,9 hPa 0,0 l/m 7,3 km/h S-SW 209 0 min 0,000 mm 0,0 UV-I 0 W/m 6,4 C 8,6 C 13,4 km/h 100,00 %
06.06.2020 01:21 9,3 C 82 % 997,9 hPa 0,0 l/m 9,8 km/h SW 229 0 min 0,000 mm 0,0 UV-I 0 W/m 6,4 C 6,9 C 19,1 km/h 96,15 %
06.06.2020 01:20 9,3 C 82 % 997,9 hPa 0,0 l/m 4,4 km/h S-SW 209 0 min 0,000 mm 0,0 UV-I 0 W/m 6,4 C 9,3 C 9,6 km/h 100,00 %
06.06.2020 01:19 9,3 C 82 % 997,8 hPa 0,0 l/m 7,8 km/h S 178 0 min 0,000 mm 0,0 UV-I 0 W/m 6,4 C 8,3 C 11,5 km/h 100,00 %
06.06.2020 01:18 9,4 C 82 % 997,9 hPa 0,0 l/m 9,2 km/h S-SW 195 0 min 0,000 mm 0,0 UV-I 0 W/m 6,5 C 7,4 C 15,3 km/h 100,00 %
06.06.2020 01:17 9,4 C 82 % 997,8 hPa 0,0 l/m 8,8 km/h SW 225 0 min 0,000 mm 0,0 UV-I 0 W/m 6,5 C 7,7 C 13,4 km/h 100,00 %
06.06.2020 01:16 9,4 C 82 % 997,8 hPa 0,0 l/m 9,4 km/h S-SO 167 0 min 0,000 mm 0,0 UV-I 0 W/m 6,5 C 7,3 C 15,3 km/h 95,65 %
06.06.2020 01:15 9,4 C 82 % 997,8 hPa 0,0 l/m 7,7 km/h S 180 0 min 0,000 mm 0,0 UV-I 0 W/m 6,5 C 8,4 C 9,6 km/h 100,00 %
06.06.2020 01:14 9,4 C 82 % 997,8 hPa 0,0 l/m 9,6 km/h SW 215 0 min 0,000 mm 0,0 UV-I 0 W/m 6,5 C 7,2 C 15,3 km/h 100,00 %
06.06.2020 01:13 9,4 C 82 % 997,8 hPa 0,0 l/m 7,1 km/h S-SW 209 0 min 0,000 mm 0,0 UV-I 0 W/m 6,5 C 8,9 C 11,5 km/h 100,00 %
06.06.2020 01:12 9,4 C 82 % 997,7 hPa 0,0 l/m 7,7 km/h S-SW 198 0 min 0,000 mm 0,0 UV-I 0 W/m 6,5 C 8,4 C 13,4 km/h 100,00 %
06.06.2020 01:11 9,4 C 82 % 997,8 hPa 0,0 l/m 8,3 km/h S 186 0 min 0,000 mm 0,0 UV-I 0 W/m 6,5 C 8,0 C 13,4 km/h 100,00 %
06.06.2020 01:10 9,4 C 82 % 997,8 hPa 0,0 l/m 6,8 km/h SW 215 0 min 0,000 mm 0,0 UV-I 0 W/m 6,5 C 9,1 C 15,3 km/h 100,00 %
06.06.2020 01:09 9,4 C 82 % 997,8 hPa 0,0 l/m 13,0 km/h SW 216 0 min 0,000 mm 0,0 UV-I 0 W/m 6,5 C 5,3 C 19,1 km/h 100,00 %
06.06.2020 01:08 9,4 C 82 % 997,7 hPa 0,0 l/m 7,6 km/h S-SW 195 0 min 0,000 mm 0,0 UV-I 0 W/m 6,5 C 8,5 C 15,3 km/h 100,00 %
06.06.2020 01:07 9,4 C 82 % 997,7 hPa 0,0 l/m 15,3 km/h S-SW 203 0 min 0,000 mm 0,0 UV-I 0 W/m 6,5 C 4,3 C 21,0 km/h 100,00 %
06.06.2020 01:06 9,4 C 82 % 997,7 hPa 0,0 l/m 9,9 km/h S-SW 205 0 min 0,000 mm 0,0 UV-I 0 W/m 6,5 C 7,0 C 24,9 km/h 100,00 %
06.06.2020 01:05 9,4 C 82 % 997,7 hPa 0,0 l/m 3,9 km/h S 177 0 min 0,000 mm 0,0 UV-I 0 W/m 6,5 C 9,4 C 5,7 km/h 100,00 %
06.06.2020 01:04 9,4 C 82 % 997,7 hPa 0,0 l/m 9,7 km/h S-SW 198 0 min 0,000 mm 0,0 UV-I 0 W/m 6,5 C 7,1 C 17,2 km/h 95,65 %
06.06.2020 01:03 9,4 C 82 % 997,8 hPa 0,0 l/m 14,1 km/h SW 232 0 min 0,000 mm 0,0 UV-I 0 W/m 6,5 C 4,8 C 19,1 km/h 100,00 %
06.06.2020 01:02 9,4 C 82 % 997,7 hPa 0,0 l/m 11,5 km/h SO 146 0 min 0,000 mm 0,0 UV-I 0 W/m 6,5 C 6,1 C 17,2 km/h 100,00 %
06.06.2020 01:01 9,4 C 82 % 997,7 hPa 0,0 l/m 11,5 km/h W-SW 238 0 min 0,000 mm 0,0 UV-I 0 W/m 6,5 C 6,1 C 21,0 km/h 100,00 %
06.06.2020 01:00 9,4 C 82 % 997,7 hPa 0,0 l/m 6,4 km/h SO 132 0 min 0,025 mm 0,0 UV-I 0 W/m 6,5 C 9,4 C 15,3 km/h 100,00 %
06.06.2020 00:59 9,4 C 82 % 997,7 hPa 0,0 l/m 9,5 km/h S-SW 192 0 min 0,000 mm 0,0 UV-I 0 W/m 6,5 C 7,2 C 21,0 km/h 100,00 %
06.06.2020 00:58 9,4 C 82 % 997,7 hPa 0,0 l/m 8,8 km/h S-SW 212 0 min 0,000 mm 0,0 UV-I 0 W/m 6,5 C 7,7 C 17,2 km/h 100,00 %
06.06.2020 00:57 9,4 C 82 % 997,7 hPa 0,0 l/m 9,2 km/h S-SO 167 0 min 0,000 mm 0,0 UV-I 0 W/m 6,5 C 7,4 C 13,4 km/h 100,00 %
06.06.2020 00:56 9,4 C 82 % 997,7 hPa 0,0 l/m 12,0 km/h SW 219 0 min 0,000 mm 0,0 UV-I 0 W/m 6,5 C 5,8 C 19,1 km/h 100,00 %
06.06.2020 00:55 9,4 C 82 % 997,7 hPa 0,0 l/m 4,3 km/h S 180 0 min 0,000 mm 0,0 UV-I 0 W/m 6,5 C 9,4 C 9,6 km/h 100,00 %
06.06.2020 00:54 9,4 C 82 % 997,7 hPa 0,0 l/m 10,8 km/h S-SW 192 0 min 0,000 mm 0,0 UV-I 0 W/m 6,5 C 6,5 C 15,3 km/h 100,00 %
06.06.2020 00:53 9,4 C 82 % 997,7 hPa 0,0 l/m 14,9 km/h SW 221 0 min 0,000 mm 0,0 UV-I 0 W/m 6,5 C 4,5 C 24,9 km/h 100,00 %
06.06.2020 00:52 9,4 C 82 % 997,7 hPa 0,0 l/m 6,3 km/h S-SW 207 0 min 0,000 mm 0,0 UV-I 0 W/m 6,5 C 9,4 C 11,5 km/h 95,83 %
06.06.2020 00:51 9,4 C 82 % 997,7 hPa 0,0 l/m 8,0 km/h S-SW 194 0 min 0,000 mm 0,0 UV-I 0 W/m 6,5 C 8,2 C 15,3 km/h 100,00 %
06.06.2020 00:50 9,5 C 82 % 997,7 hPa 0,0 l/m 9,0 km/h S-SW 209 0 min 0,000 mm 0,0 UV-I 0 W/m 6,6 C 7,7 C 17,2 km/h 100,00 %
06.06.2020 00:49 9,5 C 82 % 997,7 hPa 0,0 l/m 6,6 km/h SW 227 0 min 0,000 mm 0,0 UV-I 0 W/m 6,6 C 9,4 C 13,4 km/h 100,00 %
06.06.2020 00:48 9,5 C 82 % 997,7 hPa 0,0 l/m 6,1 km/h SW 219 0 min 0,000 mm 0,0 UV-I 0 W/m 6,6 C 9,5 C 11,5 km/h 96,30 %
06.06.2020 00:47 9,6 C 82 % 997,6 hPa 0,0 l/m 10,5 km/h S 188 0 min 0,000 mm 0,0 UV-I 0 W/m 6,7 C 6,9 C 19,1 km/h 100,00 %
06.06.2020 00:46 9,6 C 82 % 997,6 hPa 0,0 l/m 14,1 km/h S 190 0 min 0,000 mm 0,0 UV-I 0 W/m 6,7 C 5,0 C 21,0 km/h 100,00 %
06.06.2020 00:45 9,6 C 82 % 997,7 hPa 0,0 l/m 4,9 km/h SW 221 0 min 0,000 mm 0,0 UV-I 0 W/m 6,7 C 9,6 C 9,6 km/h 100,00 %
06.06.2020 00:44 9,6 C 82 % 997,6 hPa 0,0 l/m 6,6 km/h S 178 0 min 0,000 mm 0,0 UV-I 0 W/m 6,7 C 9,5 C 15,3 km/h 100,00 %
06.06.2020 00:43 9,6 C 82 % 997,6 hPa 0,0 l/m 7,7 km/h S-SW 207 0 min 0,000 mm 0,0 UV-I 0 W/m 6,7 C 8,6 C 13,4 km/h 100,00 %
06.06.2020 00:42 9,6 C 82 % 997,6 hPa 0,0 l/m 8,2 km/h S-SW 207 0 min 0,000 mm 0,0 UV-I 0 W/m 6,7 C 8,3 C 17,2 km/h 100,00 %
06.06.2020 00:41 9,6 C 82 % 997,6 hPa 0,0 l/m 8,0 km/h SW 217 0 min 0,000 mm 0,0 UV-I 0 W/m 6,7 C 8,4 C 15,3 km/h 100,00 %
06.06.2020 00:40 9,6 C 82 % 997,6 hPa 0,0 l/m 8,7 km/h S-SW 196 0 min 0,000 mm 0,0 UV-I 0 W/m 6,7 C 8,0 C 11,5 km/h 100,00 %
06.06.2020 00:39 9,6 C 82 % 997,5 hPa 0,0 l/m 8,7 km/h S-SW 213 0 min 0,000 mm 0,0 UV-I 0 W/m 6,7 C 8,0 C 17,2 km/h 100,00 %
06.06.2020 00:38 9,6 C 82 % 997,5 hPa 0,0 l/m 11,6 km/h S-SW 205 0 min 0,000 mm 0,0 UV-I 0 W/m 6,7 C 6,3 C 21,0 km/h 100,00 %
06.06.2020 00:37 9,6 C 82 % 997,5 hPa 0,0 l/m 7,0 km/h S-SW 204 0 min 0,000 mm 0,0 UV-I 0 W/m 6,7 C 9,2 C 11,5 km/h 100,00 %
06.06.2020 00:36 9,6 C 82 % 997,5 hPa 0,0 l/m 10,1 km/h S 174 0 min 0,000 mm 0,0 UV-I 0 W/m 6,7 C 7,1 C 21,0 km/h 100,00 %
06.06.2020 00:35 9,6 C 82 % 997,5 hPa 0,0 l/m 6,8 km/h S-SW 195 0 min 0,000 mm 0,0 UV-I 0 W/m 6,7 C 9,3 C 11,5 km/h 100,00 %
06.06.2020 00:34 9,6 C 82 % 997,5 hPa 0,0 l/m 11,2 km/h S-SW 198 0 min 0,000 mm 0,0 UV-I 0 W/m 6,7 C 6,5 C 19,1 km/h 96,15 %
06.06.2020 00:33 9,6 C 83 % 997,5 hPa 0,0 l/m 8,7 km/h S-SW 194 0 min 0,000 mm 0,0 UV-I 0 W/m 6,9 C 8,0 C 19,1 km/h 95,83 %
06.06.2020 00:32 9,6 C 83 % 997,5 hPa 0,0 l/m 7,5 km/h SW 223 0 min 0,000 mm 0,0 UV-I 0 W/m 6,9 C 8,8 C 15,3 km/h 100,00 %
06.06.2020 00:31 9,6 C 83 % 997,5 hPa 0,0 l/m 6,8 km/h SW 220 0 min 0,000 mm 0,0 UV-I 0 W/m 6,9 C 9,3 C 13,4 km/h 100,00 %
06.06.2020 00:30 9,6 C 83 % 997,5 hPa 0,0 l/m 8,9 km/h SW 224 0 min 0,000 mm 0,0 UV-I 0 W/m 6,9 C 7,8 C 13,4 km/h 100,00 %
06.06.2020 00:29 9,6 C 83 % 997,6 hPa 0,0 l/m 15,1 km/h S-SO 167 0 min 0,000 mm 0,0 UV-I 0 W/m 6,9 C 4,6 C 24,9 km/h 100,00 %
06.06.2020 00:28 9,6 C 84 % 997,6 hPa 0,0 l/m 14,8 km/h S-SW 200 0 min 0,000 mm 0,0 UV-I 0 W/m 7,0 C 4,7 C 24,9 km/h 100,00 %
06.06.2020 00:27 9,6 C 84 % 997,5 hPa 0,0 l/m 12,5 km/h S-SW 205 0 min 0,000 mm 0,0 UV-I 0 W/m 7,0 C 5,8 C 21,0 km/h 100,00 %
06.06.2020 00:26 9,6 C 84 % 997,6 hPa 0,0 l/m 11,2 km/h S 184 0 min 0,000 mm 0,0 UV-I 0 W/m 7,0 C 6,5 C 21,0 km/h 100,00 %
06.06.2020 00:25 9,6 C 85 % 997,5 hPa 0,0 l/m 14,1 km/h S-SW 209 0 min 0,000 mm 0,0 UV-I 0 W/m 7,2 C 5,0 C 32,5 km/h 100,00 %
06.06.2020 00:24 9,6 C 85 % 997,4 hPa 0,0 l/m 6,6 km/h S-SW 208 0 min 0,000 mm 0,0 UV-I 0 W/m 7,2 C 9,5 C 15,3 km/h 100,00 %
06.06.2020 00:23 9,6 C 85 % 997,4 hPa 0,0 l/m 10,0 km/h S 178 0 min 0,000 mm 0,0 UV-I 0 W/m 7,2 C 7,2 C 23,0 km/h 100,00 %
06.06.2020 00:22 9,7 C 85 % 997,5 hPa 0,0 l/m 12,5 km/h S 175 0 min 0,000 mm 0,0 UV-I 0 W/m 7,3 C 5,9 C 17,2 km/h 95,65 %
06.06.2020 00:21 9,7 C 85 % 997,5 hPa 0,0 l/m 11,5 km/h S-SW 196 0 min 0,000 mm 0,0 UV-I 0 W/m 7,3 C 6,4 C 17,2 km/h 100,00 %
06.06.2020 00:20 9,7 C 85 % 997,4 hPa 0,0 l/m 7,7 km/h S 169 0 min 0,000 mm 0,0 UV-I 0 W/m 7,3 C 8,7 C 17,2 km/h 100,00 %
06.06.2020 00:19 9,7 C 85 % 997,4 hPa 0,0 l/m 4,3 km/h S 178 0 min 0,000 mm 0,0 UV-I 0 W/m 7,3 C 9,7 C 7,7 km/h 100,00 %
06.06.2020 00:18 9,8 C 85 % 997,4 hPa 0,0 l/m 7,7 km/h S 184 0 min 0,000 mm 0,0 UV-I 0 W/m 7,4 C 8,9 C 15,3 km/h 100,00 %
06.06.2020 00:17 9,8 C 85 % 997,4 hPa 0,0 l/m 3,8 km/h S 188 0 min 0,000 mm 0,0 UV-I 0 W/m 7,4 C 9,8 C 5,7 km/h 100,00 %
06.06.2020 00:16 9,8 C 85 % 997,4 hPa 0,0 l/m 11,1 km/h S 179 0 min 0,000 mm 0,0 UV-I 0 W/m 7,4 C 6,8 C 15,3 km/h 100,00 %
06.06.2020 00:15 9,8 C 85 % 997,4 hPa 0,0 l/m 7,2 km/h S-SW 213 0 min 0,000 mm 0,0 UV-I 0 W/m 7,4 C 9,2 C 15,3 km/h 100,00 %
06.06.2020 00:14 9,8 C 85 % 997,3 hPa 0,0 l/m 7,1 km/h S-SO 161 0 min 0,000 mm 0,0 UV-I 0 W/m 7,4 C 9,3 C 15,3 km/h 100,00 %
06.06.2020 00:13 9,8 C 85 % 997,3 hPa 0,0 l/m 8,7 km/h S 191 0 min 0,000 mm 0,0 UV-I 0 W/m 7,4 C 8,2 C 17,2 km/h 100,00 %
06.06.2020 00:12 9,8 C 85 % 997,4 hPa 0,0 l/m 7,7 km/h S-SO 163 0 min 0,000 mm 0,0 UV-I 0 W/m 7,4 C 8,9 C 11,5 km/h 100,00 %
06.06.2020 00:11 9,9 C 85 % 997,4 hPa 0,0 l/m 8,1 km/h S-SO 167 0 min 0,000 mm 0,0 UV-I 0 W/m 7,5 C 8,7 C 15,3 km/h 100,00 %
06.06.2020 00:10 9,9 C 85 % 997,3 hPa 0,0 l/m 6,7 km/h S 180 0 min 0,000 mm 0,0 UV-I 0 W/m 7,5 C 9,7 C 13,4 km/h 100,00 %
06.06.2020 00:09 9,9 C 85 % 997,3 hPa 0,0 l/m 10,0 km/h S-SO 158 0 min 0,000 mm 0,0 UV-I 0 W/m 7,5 C 7,5 C 19,1 km/h 100,00 %
06.06.2020 00:08 9,9 C 85 % 997,3 hPa 0,0 l/m 8,8 km/h S-SO 151 0 min 0,000 mm 0,0 UV-I 0 W/m 7,5 C 8,2 C 15,3 km/h 100,00 %
06.06.2020 00:07 9,9 C 85 % 997,3 hPa 0,0 l/m 6,5 km/h S-SW 201 0 min 0,000 mm 0,0 UV-I 0 W/m 7,5 C 9,9 C 17,2 km/h 100,00 %
06.06.2020 00:06 9,9 C 85 % 997,3 hPa 0,0 l/m 8,6 km/h S 173 0 min 0,000 mm 0,0 UV-I 0 W/m 7,5 C 8,3 C 15,3 km/h 100,00 %
06.06.2020 00:05 9,9 C 85 % 997,3 hPa 0,0 l/m 8,2 km/h S-SW 193 0 min 0,000 mm 0,0 UV-I 0 W/m 7,5 C 8,6 C 17,2 km/h 100,00 %
06.06.2020 00:04 9,9 C 85 % 997,3 hPa 0,0 l/m 6,7 km/h S-SO 160 0 min 0,000 mm 0,0 UV-I 0 W/m 7,5 C 9,7 C 9,6 km/h 100,00 %
06.06.2020 00:03 9,9 C 85 % 997,3 hPa 0,0 l/m 9,0 km/h S 182 0 min 0,000 mm 0,0 UV-I 0 W/m 7,5 C 8,1 C 13,4 km/h 100,00 %
06.06.2020 00:02 9,9 C 85 % 997,3 hPa 0,0 l/m 9,6 km/h S 188 0 min 0,000 mm 0,0 UV-I 0 W/m 7,5 C 7,7 C 11,5 km/h 100,00 %
06.06.2020 00:01 10,0 C 85 % 997,3 hPa 0,0 l/m 5,2 km/h S-SO 155 0 min 0,000 mm 0,0 UV-I 0 W/m 7,6 C 10,0 C 13,4 km/h 100,00 %
06.06.2020 00:00 10,0 C 85 % 997,3 hPa 0,0 l/m 3,7 km/h S-SO 159 0 min 0,000 mm 0,0 UV-I 0 W/m 7,6 C 10,0 C 13,4 km/h 95,65 %
05.06.2020 23:59 10,0 C 85 % 997,3 hPa 0,0 l/m 3,2 km/h S 181 0 min 0,000 mm 0,0 UV-I 0 W/m 7,6 C 10,0 C 5,7 km/h 100,00 %
05.06.2020 23:58 10,0 C 84 % 997,3 hPa 0,0 l/m 5,2 km/h S 180 0 min 0,000 mm 0,0 UV-I 0 W/m 7,4 C 10,0 C 11,5 km/h 100,00 %
05.06.2020 23:57 10,1 C 84 % 997,3 hPa 0,0 l/m 6,1 km/h S-SW 213 0 min 0,000 mm 0,0 UV-I 0 W/m 7,5 C 10,1 C 11,5 km/h 100,00 %
05.06.2020 23:56 10,1 C 84 % 997,3 hPa 0,0 l/m 5,5 km/h S-SW 208 0 min 0,000 mm 0,0 UV-I 0 W/m 7,5 C 10,1 C 9,6 km/h 100,00 %
05.06.2020 23:55 10,1 C 84 % 997,2 hPa 0,0 l/m 4,5 km/h S-SW 213 0 min 0,000 mm 0,0 UV-I 0 W/m 7,5 C 10,1 C 7,7 km/h 100,00 %
05.06.2020 23:54 10,1 C 84 % 997,2 hPa 0,0 l/m 5,1 km/h S-SW 199 0 min 0,000 mm 0,0 UV-I 0 W/m 7,5 C 10,1 C 11,5 km/h 100,00 %
05.06.2020 23:53 10,1 C 84 % 997,2 hPa 0,0 l/m 5,5 km/h S-SO 167 0 min 0,000 mm 0,0 UV-I 0 W/m 7,5 C 10,1 C 11,5 km/h 100,00 %
05.06.2020 23:52 10,1 C 84 % 997,2 hPa 0,0 l/m 6,8 km/h S-SO 153 0 min 0,000 mm 0,0 UV-I 0 W/m 7,5 C 9,8 C 11,5 km/h 100,00 %
05.06.2020 23:51 10,1 C 84 % 997,2 hPa 0,0 l/m 4,3 km/h S 190 0 min 0,000 mm 0,0 UV-I 0 W/m 7,5 C 10,1 C 13,4 km/h 100,00 %
05.06.2020 23:50 10,1 C 84 % 997,2 hPa 0,0 l/m 7,4 km/h S 175 0 min 0,000 mm 0,0 UV-I 0 W/m 7,5 C 9,4 C 13,4 km/h 100,00 %
05.06.2020 23:49 10,2 C 84 % 997,2 hPa 0,0 l/m 1,1 km/h S-SW 196 0 min 0,000 mm 0,0 UV-I 0 W/m 7,6 C 10,2 C 3,8 km/h 100,00 %
05.06.2020 23:48 10,2 C 84 % 997,2 hPa 0,0 l/m 4,1 km/h S-SW 209 0 min 0,000 mm 0,0 UV-I 0 W/m 7,6 C 10,2 C 7,7 km/h 100,00 %
05.06.2020 23:47 10,2 C 84 % 997,2 hPa 0,0 l/m 1,4 km/h S-SW 210 0 min 0,000 mm 0,0 UV-I 0 W/m 7,6 C 10,2 C 7,7 km/h 100,00 %
05.06.2020 23:46 10,2 C 84 % 997,2 hPa 0,0 l/m 4,7 km/h S 180 0 min 0,000 mm 0,0 UV-I 0 W/m 7,6 C 10,2 C 9,6 km/h 100,00 %
05.06.2020 23:45 10,2 C 84 % 997,2 hPa 0,0 l/m 6,0 km/h S-SW 194 0 min 0,000 mm 0,0 UV-I 0 W/m 7,6 C 10,2 C 11,5 km/h 95,83 %
05.06.2020 23:44 10,2 C 84 % 997,2 hPa 0,0 l/m 5,2 km/h SW 235 0 min 0,000 mm 0,0 UV-I 0 W/m 7,6 C 10,2 C 9,6 km/h 96,15 %
05.06.2020 23:43 10,2 C 84 % 997,2 hPa 0,0 l/m 10,4 km/h S 175 0 min 0,000 mm 0,0 UV-I 0 W/m 7,6 C 7,6 C 19,1 km/h 95,83 %
05.06.2020 23:42 10,2 C 84 % 997,2 hPa 0,0 l/m 9,6 km/h S-SW 194 0 min 0,000 mm 0,0 UV-I 0 W/m 7,6 C 8,0 C 15,3 km/h 100,00 %
05.06.2020 23:41 10,2 C 85 % 997,2 hPa 0,0 l/m 7,3 km/h SW 217 0 min 0,000 mm 0,0 UV-I 0 W/m 7,8 C 9,6 C 15,3 km/h 100,00 %
05.06.2020 23:40 10,2 C 84 % 997,2 hPa 0,0 l/m 10,2 km/h S-SW 195 0 min 0,000 mm 0,0 UV-I 0 W/m 7,6 C 7,7 C 15,3 km/h 95,83 %
05.06.2020 23:39 10,2 C 84 % 997,2 hPa 0,0 l/m 8,3 km/h S 191 0 min 0,000 mm 0,0 UV-I 0 W/m 7,6 C 8,9 C 13,4 km/h 100,00 %
05.06.2020 23:38 10,2 C 84 % 997,2 hPa 0,0 l/m 9,3 km/h SW 219 0 min 0,000 mm 0,0 UV-I 0 W/m 7,6 C 8,2 C 13,4 km/h 100,00 %
05.06.2020 23:37 10,2 C 84 % 997,2 hPa 0,0 l/m 5,7 km/h S-SO 166 0 min 0,000 mm 0,0 UV-I 0 W/m 7,6 C 10,2 C 13,4 km/h 95,83 %
05.06.2020 23:36 10,2 C 85 % 997,2 hPa 0,0 l/m 4,1 km/h S 184 0 min 0,000 mm 0,0 UV-I 0 W/m 7,8 C 10,2 C 7,7 km/h 100,00 %
05.06.2020 23:35 10,2 C 84 % 997,2 hPa 0,0 l/m 3,0 km/h S-SO 163 0 min 0,000 mm 0,0 UV-I 0 W/m 7,6 C 10,2 C 7,7 km/h 100,00 %
05.06.2020 23:34 10,2 C 84 % 997,2 hPa 0,0 l/m 3,5 km/h S 179 0 min 0,000 mm 0,0 UV-I 0 W/m 7,6 C 10,2 C 9,6 km/h 100,00 %
05.06.2020 23:33 10,2 C 84 % 997,2 hPa 0,0 l/m 3,0 km/h S-SO 165 0 min 0,000 mm 0,0 UV-I 0 W/m 7,6 C 10,2 C 7,7 km/h 100,00 %
05.06.2020 23:32 10,2 C 85 % 997,2 hPa 0,0 l/m 6,9 km/h S-SW 207 0 min 0,000 mm 0,0 UV-I 0 W/m 7,8 C 9,8 C 13,4 km/h 100,00 %
05.06.2020 23:31 10,2 C 85 % 997,2 hPa 0,0 l/m 4,4 km/h SW 224 0 min 0,000 mm 0,0 UV-I 0 W/m 7,8 C 10,2 C 9,6 km/h 96,55 %
05.06.2020 23:30 10,2 C 85 % 997,3 hPa 0,0 l/m 4,3 km/h S 174 0 min 0,000 mm 0,0 UV-I 0 W/m 7,8 C 10,2 C 9,6 km/h 100,00 %
05.06.2020 23:29 10,2 C 85 % 997,3 hPa 0,0 l/m 3,7 km/h S-SW 208 0 min 0,000 mm 0,0 UV-I 0 W/m 7,8 C 10,2 C 9,6 km/h 100,00 %
05.06.2020 23:28 10,2 C 85 % 997,3 hPa 0,0 l/m 5,4 km/h S 186 0 min 0,000 mm 0,0 UV-I 0 W/m 7,8 C 10,2 C 9,6 km/h 95,83 %
05.06.2020 23:27 10,2 C 85 % 997,3 hPa 0,0 l/m 7,2 km/h S 186 0 min 0,000 mm 0,0 UV-I 0 W/m 7,8 C 9,6 C 11,5 km/h 100,00 %
05.06.2020 23:26 10,2 C 85 % 997,2 hPa 0,0 l/m 5,8 km/h S-SW 211 0 min 0,000 mm 0,0 UV-I 0 W/m 7,8 C 10,2 C 11,5 km/h 100,00 %
05.06.2020 23:25 10,2 C 85 % 997,2 hPa 0,0 l/m 5,1 km/h S-SW 212 0 min 0,000 mm 0,0 UV-I 0 W/m 7,8 C 10,2 C 11,5 km/h 100,00 %
05.06.2020 23:24 10,2 C 85 % 997,2 hPa 0,0 l/m 5,2 km/h SW 215 0 min 0,000 mm 0,0 UV-I 0 W/m 7,8 C 10,2 C 11,5 km/h 100,00 %
05.06.2020 23:23 10,2 C 85 % 997,3 hPa 0,0 l/m 7,3 km/h S-SW 198 0 min 0,000 mm 0,0 UV-I 0 W/m 7,8 C 9,6 C 19,1 km/h 93,33 %
05.06.2020 23:22 10,2 C 85 % 997,2 hPa 0,0 l/m 0,8 km/h S-SW 204 0 min 0,000 mm 0,0 UV-I 0 W/m 7,8 C 10,2 C 1,9 km/h 100,00 %
05.06.2020 23:21 10,2 C 85 % 997,3 hPa 0,0 l/m 4,0 km/h S-SW 204 0 min 0,000 mm 0,0 UV-I 0 W/m 7,8 C 10,2 C 5,7 km/h 95,83 %
05.06.2020 23:20 10,2 C 85 % 997,2 hPa 0,0 l/m 2,7 km/h S 187 0 min 0,000 mm 0,0 UV-I 0 W/m 7,8 C 10,2 C 5,7 km/h 100,00 %
05.06.2020 23:19 10,2 C 85 % 997,2 hPa 0,0 l/m 4,1 km/h S-SW 197 0 min 0,000 mm 0,0 UV-I 0 W/m 7,8 C 10,2 C 9,6 km/h 95,65 %
05.06.2020 23:18 10,2 C 85 % 997,2 hPa 0,0 l/m 5,4 km/h S-SW 193 0 min 0,000 mm 0,0 UV-I 0 W/m 7,8 C 10,2 C 11,5 km/h 100,00 %
05.06.2020 23:17 10,2 C 85 % 997,3 hPa 0,0 l/m 7,5 km/h S 184 0 min 0,000 mm 0,0 UV-I 0 W/m 7,8 C 9,4 C 13,4 km/h 100,00 %
05.06.2020 23:16 10,2 C 85 % 997,2 hPa 0,0 l/m 9,7 km/h SW 221 0 min 0,000 mm 0,0 UV-I 0 W/m 7,8 C 8,0 C 17,2 km/h 100,00 %
05.06.2020 23:15 10,2 C 85 % 997,2 hPa 0,0 l/m 8,1 km/h S 171 0 min 0,000 mm 0,0 UV-I 0 W/m 7,8 C 9,0 C 15,3 km/h 100,00 %
05.06.2020 23:14 10,2 C 85 % 997,2 hPa 0,0 l/m 3,5 km/h S 183 0 min 0,000 mm 0,0 UV-I 0 W/m 7,8 C 10,2 C 9,6 km/h 95,65 %
05.06.2020 23:13 10,2 C 85 % 997,2 hPa 0,0 l/m 4,8 km/h S 184 0 min 0,000 mm 0,0 UV-I 0 W/m 7,8 C 10,2 C 9,6 km/h 100,00 %
05.06.2020 23:12 10,2 C 85 % 997,2 hPa 0,0 l/m 10,1 km/h S-SO 166 0 min 0,000 mm 0,0 UV-I 0 W/m 7,8 C 7,8 C 15,3 km/h 100,00 %
05.06.2020 23:11 10,2 C 85 % 997,2 hPa 0,0 l/m 7,7 km/h S 178 0 min 0,000 mm 0,0 UV-I 0 W/m 7,8 C 9,3 C 13,4 km/h 100,00 %
05.06.2020 23:10 10,2 C 85 % 997,2 hPa 0,0 l/m 7,2 km/h S-SW 210 0 min 0,000 mm 0,0 UV-I 0 W/m 7,8 C 9,6 C 19,1 km/h 100,00 %
05.06.2020 23:09 10,2 C 85 % 997,2 hPa 0,0 l/m 5,6 km/h S 183 0 min 0,000 mm 0,0 UV-I 0 W/m 7,8 C 10,2 C 13,4 km/h 100,00 %
05.06.2020 23:08 10,1 C 85 % 997,2 hPa 0,0 l/m 13,8 km/h S 184 0 min 0,000 mm 0,0 UV-I 0 W/m 7,7 C 5,8 C 21,0 km/h 99,49 %
05.06.2020 23:07 10,1 C 85 % 997,2 hPa 0,0 l/m 6,8 km/h S 180 0 min 0,000 mm 0,0 UV-I 0 W/m 7,7 C 9,8 C 15,3 km/h 100,00 %
05.06.2020 23:06 10,1 C 85 % 997,1 hPa 0,0 l/m 7,0 km/h S-SO 166 0 min 0,000 mm 0,0 UV-I 0 W/m 7,7 C 9,7 C 15,3 km/h 100,00 %
05.06.2020 23:05 10,1 C 86 % 997,2 hPa 0,0 l/m 9,6 km/h S-SO 165 0 min 0,000 mm 0,0 UV-I 0 W/m 7,9 C 7,9 C 15,3 km/h 100,00 %
05.06.2020 23:04 10,1 C 86 % 997,1 hPa 0,0 l/m 9,5 km/h S 169 0 min 0,000 mm 0,0 UV-I 0 W/m 7,9 C 8,0 C 17,2 km/h 100,00 %
05.06.2020 23:03 10,1 C 86 % 997,1 hPa 0,0 l/m 4,7 km/h SW 227 0 min 0,000 mm 0,0 UV-I 0 W/m 7,9 C 10,1 C 9,6 km/h 100,00 %
05.06.2020 23:02 10,1 C 86 % 997,1 hPa 0,0 l/m 4,4 km/h S 185 0 min 0,000 mm 0,0 UV-I 0 W/m 7,9 C 10,1 C 9,6 km/h 100,00 %
05.06.2020 23:01 10,1 C 86 % 997,1 hPa 0,0 l/m 5,1 km/h S 182 0 min 0,025 mm 0,0 UV-I 0 W/m 7,9 C 10,1 C 7,7 km/h 100,00 %
05.06.2020 23:00 10,1 C 86 % 997,1 hPa 0,0 l/m 7,8 km/h S 171 0 min 0,000 mm 0,0 UV-I 0 W/m 7,9 C 9,1 C 13,4 km/h 100,00 %
05.06.2020 22:59 10,0 C 86 % 997,1 hPa 0,0 l/m 7,7 km/h S-SW 210 0 min 0,000 mm 0,0 UV-I 0 W/m 7,8 C 9,1 C 11,5 km/h 96,30 %
05.06.2020 22:58 10,0 C 86 % 997,1 hPa 0,0 l/m 5,0 km/h S 176 0 min 0,000 mm 0,0 UV-I 0 W/m 7,8 C 10,0 C 9,6 km/h 100,00 %
05.06.2020 22:57 10,0 C 86 % 997,1 hPa 0,0 l/m 5,3 km/h S-SW 192 0 min 0,000 mm 0,0 UV-I 0 W/m 7,8 C 10,0 C 11,5 km/h 96,15 %
05.06.2020 22:56 10,0 C 86 % 997,1 hPa 0,0 l/m 6,7 km/h S 176 0 min 0,000 mm 0,0 UV-I 0 W/m 7,8 C 9,8 C 13,4 km/h 100,00 %
05.06.2020 22:55 10,0 C 86 % 997,1 hPa 0,0 l/m 4,9 km/h S-SW 199 0 min 0,000 mm 0,0 UV-I 0 W/m 7,8 C 10,0 C 9,6 km/h 100,00 %
05.06.2020 22:54 10,0 C 86 % 997,1 hPa 0,0 l/m 4,7 km/h S 171 0 min 0,000 mm 0,0 UV-I 0 W/m 7,8 C 10,0 C 7,7 km/h 100,00 %
05.06.2020 22:53 10,0 C 86 % 997,1 hPa 0,0 l/m 1,2 km/h S-SW 192 0 min 0,000 mm 0,0 UV-I 0 W/m 7,8 C 10,0 C 3,8 km/h 100,00 %
05.06.2020 22:52 10,0 C 86 % 997,1 hPa 0,0 l/m 5,5 km/h S-SO 163 0 min 0,000 mm 0,0 UV-I 0 W/m 7,8 C 10,0 C 9,6 km/h 100,00 %
05.06.2020 22:51 10,0 C 86 % 997,1 hPa 0,0 l/m 4,3 km/h S 177 0 min 0,000 mm 0,0 UV-I 0 W/m 7,8 C 10,0 C 7,7 km/h 90,91 %
05.06.2020 22:50 10,1 C 86 % 997,1 hPa 0,0 l/m 3,0 km/h S-SW 209 0 min 0,000 mm 0,0 UV-I 0 W/m 7,9 C 10,1 C 5,7 km/h 100,00 %
05.06.2020 22:49 10,1 C 86 % 997,0 hPa 0,0 l/m 4,4 km/h S-SW 203 0 min 0,000 mm 0,0 UV-I 0 W/m 7,9 C 10,1 C 7,7 km/h 100,00 %
05.06.2020 22:48 10,1 C 86 % 997,0 hPa 0,0 l/m 4,9 km/h S-SW 193 0 min 0,000 mm 0,0 UV-I 0 W/m 7,9 C 10,1 C 7,7 km/h 100,00 %
05.06.2020 22:47 10,1 C 86 % 997,1 hPa 0,0 l/m 2,5 km/h S 188 0 min 0,000 mm 0,0 UV-I 0 W/m 7,9 C 10,1 C 7,7 km/h 100,00 %
05.06.2020 22:46 10,1 C 86 % 997,1 hPa 0,0 l/m 3,5 km/h S 186 0 min 0,000 mm 0,0 UV-I 0 W/m 7,9 C 10,1 C 5,7 km/h 100,00 %
05.06.2020 22:45 10,1 C 86 % 997,1 hPa 0,0 l/m 2,9 km/h S-SW 205 0 min 0,000 mm 0,0 UV-I 0 W/m 7,9 C 10,1 C 5,7 km/h 100,00 %
05.06.2020 22:44 10,1 C 86 % 997,1 hPa 0,0 l/m 4,1 km/h S-SW 200 0 min 0,000 mm 0,0 UV-I 0 W/m 7,9 C 10,1 C 7,7 km/h 100,00 %
05.06.2020 22:43 10,1 C 86 % 997,0 hPa 0,0 l/m 4,6 km/h S 169 0 min 0,000 mm 0,0 UV-I 0 W/m 7,9 C 10,1 C 11,5 km/h 100,00 %
05.06.2020 22:42 10,1 C 86 % 997,0 hPa 0,0 l/m 3,9 km/h S-SW 193 0 min 0,000 mm 0,0 UV-I 0 W/m 7,9 C 10,1 C 7,7 km/h 100,00 %
05.06.2020 22:41 10,1 C 86 % 997,0 hPa 0,0 l/m 0,9 km/h S 186 0 min 0,000 mm 0,0 UV-I 0 W/m 7,9 C 10,1 C 3,8 km/h 100,00 %
05.06.2020 22:40 10,2 C 86 % 997,0 hPa 0,0 l/m 4,9 km/h S 186 0 min 0,000 mm 0,0 UV-I 0 W/m 8,0 C 10,2 C 11,5 km/h 100,00 %
05.06.2020 22:39 10,2 C 86 % 996,9 hPa 0,0 l/m 5,7 km/h S 190 0 min 0,000 mm 0,0 UV-I 0 W/m 8,0 C 10,2 C 7,7 km/h 100,00 %
05.06.2020 22:38 10,2 C 86 % 996,9 hPa 0,0 l/m 2,3 km/h S-SW 194 0 min 0,000 mm 0,0 UV-I 0 W/m 8,0 C 10,2 C 5,7 km/h 100,00 %
05.06.2020 22:37 10,2 C 86 % 996,9 hPa 0,0 l/m 1,1 km/h S 178 0 min 0,000 mm 0,0 UV-I 0 W/m 8,0 C 10,2 C 3,8 km/h 100,00 %
05.06.2020 22:36 10,2 C 86 % 996,9 hPa 0,0 l/m 1,4 km/h S 178 0 min 0,000 mm 0,0 UV-I 0 W/m 8,0 C 10,2 C 3,8 km/h 96,15 %
05.06.2020 22:35 10,2 C 86 % 996,8 hPa 0,0 l/m 0,5 km/h S 178 0 min 0,000 mm 0,0 UV-I 0 W/m 8,0 C 10,2 C 1,9 km/h 100,00 %
05.06.2020 22:34 10,2 C 86 % 996,9 hPa 0,0 l/m 2,5 km/h S 178 0 min 0,000 mm 0,0 UV-I 0 W/m 8,0 C 10,2 C 5,7 km/h 90,91 %
05.06.2020 22:33 10,3 C 86 % 996,9 hPa 0,0 l/m 2,6 km/h S 178 0 min 0,000 mm 0,0 UV-I 0 W/m 8,1 C 10,3 C 5,7 km/h 96,30 %
05.06.2020 22:32 10,3 C 86 % 996,9 hPa 0,0 l/m 2,7 km/h S 184 0 min 0,000 mm 0,0 UV-I 0 W/m 8,1 C 10,3 C 3,8 km/h 100,00 %
05.06.2020 22:31 10,3 C 86 % 996,9 hPa 0,0 l/m 3,1 km/h S-SW 201 0 min 0,000 mm 0,0 UV-I 0 W/m 8,1 C 10,3 C 5,7 km/h 100,00 %
05.06.2020 22:30 10,3 C 86 % 996,9 hPa 0,0 l/m 5,7 km/h S-SW 200 0 min 0,000 mm 0,0 UV-I 0 W/m 8,1 C 10,3 C 7,7 km/h 100,00 %
05.06.2020 22:29 10,3 C 86 % 996,9 hPa 0,0 l/m 2,2 km/h S-SW 198 0 min 0,000 mm 0,0 UV-I 0 W/m 8,1 C 10,3 C 5,7 km/h 100,00 %
05.06.2020 22:28 10,2 C 86 % 996,9 hPa 0,0 l/m 4,1 km/h S-SW 197 0 min 0,000 mm 0,0 UV-I 0 W/m 8,0 C 10,2 C 7,7 km/h 100,00 %
05.06.2020 22:27 10,3 C 86 % 996,9 hPa 0,0 l/m 2,4 km/h S-SW 196 0 min 0,000 mm 0,0 UV-I 0 W/m 8,1 C 10,3 C 5,7 km/h 100,00 %
05.06.2020 22:26 10,3 C 85 % 996,9 hPa 0,0 l/m 6,3 km/h S-SW 195 0 min 0,000 mm 0,0 UV-I 0 W/m 7,9 C 10,3 C 11,5 km/h 100,00 %
05.06.2020 22:25 10,3 C 85 % 996,9 hPa 0,0 l/m 0,4 km/h S-SW 196 0 min 0,000 mm 0,0 UV-I 0 W/m 7,9 C 10,3 C 1,9 km/h 100,00 %
05.06.2020 22:24 10,3 C 85 % 996,9 hPa 0,0 l/m 3,0 km/h S-SW 196 0 min 0,000 mm 0,0 UV-I 0 W/m 7,9 C 10,3 C 7,7 km/h 100,00 %
05.06.2020 22:23 10,3 C 85 % 996,9 hPa 0,0 l/m 0,8 km/h S-SW 200 0 min 0,000 mm 0,0 UV-I 0 W/m 7,9 C 10,3 C 3,8 km/h 100,00 %
05.06.2020 22:22 10,3 C 85 % 996,9 hPa 0,0 l/m 4,7 km/h S-SW 200 0 min 0,000 mm 0,0 UV-I 0 W/m 7,9 C 10,3 C 9,6 km/h 100,00 %
05.06.2020 22:21 10,3 C 85 % 996,8 hPa 0,0 l/m 4,5 km/h S 178 0 min 0,000 mm 0,0 UV-I 0 W/m 7,9 C 10,3 C 9,6 km/h 95,65 %
05.06.2020 22:20 10,3 C 85 % 996,9 hPa 0,0 l/m 2,4 km/h S 179 0 min 0,000 mm 0,0 UV-I 0 W/m 7,9 C 10,3 C 5,7 km/h 100,00 %
05.06.2020 22:19 10,3 C 85 % 996,9 hPa 0,0 l/m 6,4 km/h S 190 0 min 0,000 mm 0,0 UV-I 0 W/m 7,9 C 10,3 C 9,6 km/h 100,00 %
05.06.2020 22:18 10,3 C 85 % 996,9 hPa 0,0 l/m 4,0 km/h S-SW 200 0 min 0,000 mm 0,0 UV-I 0 W/m 7,9 C 10,3 C 5,7 km/h 100,00 %
05.06.2020 22:17 10,3 C 85 % 996,9 hPa 0,0 l/m 4,5 km/h S 173 0 min 0,000 mm 0,0 UV-I 0 W/m 7,9 C 10,3 C 11,5 km/h 100,00 %
05.06.2020 22:16 10,3 C 85 % 996,9 hPa 0,0 l/m 3,0 km/h S-SW 203 0 min 0,000 mm 0,0 UV-I 0 W/m 7,9 C 10,3 C 5,7 km/h 100,00 %
05.06.2020 22:15 10,3 C 85 % 996,9 hPa 0,0 l/m 5,3 km/h S 184 0 min 0,000 mm 0,0 UV-I 0 W/m 7,9 C 10,3 C 9,6 km/h 100,00 %
05.06.2020 22:14 10,3 C 85 % 996,8 hPa 0,0 l/m 3,0 km/h SW 220 0 min 0,000 mm 0,0 UV-I 0 W/m 7,9 C 10,3 C 5,7 km/h 100,00 %
05.06.2020 22:13 10,3 C 85 % 996,8 hPa 0,0 l/m 5,2 km/h SW 221 0 min 0,000 mm 0,0 UV-I 0 W/m 7,9 C 10,3 C 7,7 km/h 100,00 %
05.06.2020 22:12 10,3 C 85 % 996,9 hPa 0,0 l/m 4,2 km/h SW 223 0 min 0,000 mm 0,0 UV-I 0 W/m 7,9 C 10,3 C 11,5 km/h 100,00 %
05.06.2020 22:11 10,3 C 85 % 996,8 hPa 0,0 l/m 7,4 km/h S-SW 208 0 min 0,000 mm 0,0 UV-I 0 W/m 7,9 C 9,6 C 11,5 km/h 95,65 %
05.06.2020 22:10 10,3 C 85 % 996,8 hPa 0,0 l/m 4,9 km/h S-SO 161 0 min 0,000 mm 0,0 UV-I 0 W/m 7,9 C 10,3 C 9,6 km/h 100,00 %
05.06.2020 22:09 10,3 C 85 % 996,9 hPa 0,0 l/m 11,4 km/h SW 236 0 min 0,000 mm 0,0 UV-I 0 W/m 7,9 C 7,2 C 17,2 km/h 100,00 %
05.06.2020 22:08 10,3 C 85 % 996,8 hPa 0,0 l/m 9,7 km/h S-SW 211 0 min 0,000 mm 0,0 UV-I 0 W/m 7,9 C 8,1 C 19,1 km/h 100,00 %
05.06.2020 22:07 10,3 C 85 % 996,8 hPa 0,0 l/m 6,4 km/h S 188 0 min 0,000 mm 0,0 UV-I 0 W/m 7,9 C 10,3 C 11,5 km/h 95,65 %
05.06.2020 22:06 10,3 C 85 % 996,8 hPa 0,0 l/m 4,1 km/h S 188 0 min 0,000 mm 0,0 UV-I 0 W/m 7,9 C 10,3 C 7,7 km/h 100,00 %
05.06.2020 22:05 10,3 C 85 % 996,8 hPa 0,0 l/m 5,0 km/h S-SW 200 0 min 0,000 mm 0,0 UV-I 0 W/m 7,9 C 10,3 C 9,6 km/h 95,65 %
05.06.2020 22:04 10,3 C 85 % 996,8 hPa 0,0 l/m 5,4 km/h S 177 0 min 0,000 mm 0,0 UV-I 0 W/m 7,9 C 10,3 C 9,6 km/h 100,00 %
05.06.2020 22:03 10,3 C 85 % 996,8 hPa 0,0 l/m 4,8 km/h S-SW 207 0 min 0,000 mm 0,0 UV-I 0 W/m 7,9 C 10,3 C 7,7 km/h 100,00 %
05.06.2020 22:02 10,3 C 85 % 996,8 hPa 0,0 l/m 9,6 km/h S-SW 193 0 min 0,001 mm 0,0 UV-I 0 W/m 7,9 C 8,2 C 15,3 km/h 96,15 %
05.06.2020 22:01 10,3 C 85 % 996,8 hPa 0,0 l/m 6,9 km/h S-SW 206 0 min 0,025 mm 0,0 UV-I 0 W/m 7,9 C 9,9 C 13,4 km/h 100,00 %
05.06.2020 22:00 10,3 C 85 % 996,7 hPa 0,0 l/m 5,8 km/h S 175 0 min 0,000 mm 0,0 UV-I 0 W/m 7,9 C 10,3 C 11,5 km/h 100,00 %
05.06.2020 21:59 10,3 C 85 % 996,7 hPa 0,0 l/m 6,5 km/h S-SW 192 0 min 0,000 mm 0,0 UV-I 0 W/m 7,9 C 10,3 C 19,1 km/h 100,00 %
05.06.2020 21:58 10,3 C 85 % 996,7 hPa 0,0 l/m 2,5 km/h S-SW 200 0 min 0,000 mm 0,0 UV-I 0 W/m 7,9 C 10,3 C 3,8 km/h 100,00 %
05.06.2020 21:57 10,3 C 85 % 996,7 hPa 0,0 l/m 3,2 km/h S-SW 200 0 min 0,000 mm 0,0 UV-I 0 W/m 7,9 C 10,3 C 7,7 km/h 100,00 %
05.06.2020 21:56 10,3 C 84 % 996,7 hPa 0,0 l/m 1,1 km/h S-SW 198 0 min 0,000 mm 0,0 UV-I 0 W/m 7,7 C 10,3 C 3,8 km/h 100,00 %
05.06.2020 21:55 10,3 C 84 % 996,7 hPa 0,0 l/m 3,3 km/h S-SW 200 0 min 0,000 mm 0,0 UV-I 0 W/m 7,7 C 10,3 C 5,7 km/h 100,00 %
05.06.2020 21:54 10,3 C 84 % 996,7 hPa 0,0 l/m 3,0 km/h S-SW 200 0 min 0,000 mm 0,0 UV-I 0 W/m 7,7 C 10,3 C 9,6 km/h 100,00 %
05.06.2020 21:53 10,3 C 84 % 996,7 hPa 0,0 l/m 7,8 km/h S 175 0 min 0,000 mm 0,0 UV-I 0 W/m 7,7 C 9,3 C 13,4 km/h 100,00 %
05.06.2020 21:52 10,3 C 84 % 996,7 hPa 0,0 l/m 3,0 km/h SW 235 0 min 0,000 mm 0,0 UV-I 0 W/m 7,7 C 10,3 C 7,7 km/h 100,00 %
05.06.2020 21:51 10,3 C 84 % 996,7 hPa 0,0 l/m 4,8 km/h S 188 0 min 0,000 mm 0,0 UV-I 0 W/m 7,7 C 10,3 C 7,7 km/h 100,00 %
05.06.2020 21:50 10,3 C 84 % 996,7 hPa 0,0 l/m 4,1 km/h S-SW 203 0 min 0,000 mm 0,0 UV-I 0 W/m 7,7 C 10,3 C 11,5 km/h 100,00 %
05.06.2020 21:49 10,3 C 84 % 996,6 hPa 0,0 l/m 5,0 km/h S 182 0 min 0,000 mm 0,0 UV-I 0 W/m 7,7 C 10,3 C 9,6 km/h 100,00 %
05.06.2020 21:48 10,3 C 84 % 996,6 hPa 0,0 l/m 6,6 km/h S 183 0 min 0,000 mm 0,0 UV-I 0 W/m 7,7 C 10,2 C 11,5 km/h 92,31 %
05.06.2020 21:47 10,3 C 84 % 996,6 hPa 0,0 l/m 4,3 km/h S 187 0 min 0,000 mm 0,0 UV-I 0 W/m 7,7 C 10,3 C 15,3 km/h 100,00 %
05.06.2020 21:46 10,3 C 84 % 996,6 hPa 0,0 l/m 5,3 km/h S-SW 196 0 min 0,000 mm 0,0 UV-I 0 W/m 7,7 C 10,3 C 11,5 km/h 100,00 %
05.06.2020 21:45 10,3 C 83 % 996,6 hPa 0,0 l/m 5,7 km/h S-SO 157 0 min 0,000 mm 0,0 UV-I 0 W/m 7,5 C 10,3 C 9,6 km/h 100,00 %
05.06.2020 21:44 10,4 C 84 % 996,6 hPa 0,0 l/m 4,0 km/h S-SW 200 0 min 0,000 mm 0,0 UV-I 0 W/m 7,8 C 10,4 C 5,7 km/h 100,00 %
05.06.2020 21:43 10,4 C 83 % 996,5 hPa 0,0 l/m 7,3 km/h SW 215 0 min 0,000 mm 0,0 UV-I 0 W/m 7,6 C 9,8 C 11,5 km/h 100,00 %
05.06.2020 21:42 10,4 C 83 % 996,5 hPa 0,0 l/m 6,7 km/h S-SW 207 0 min 0,000 mm 0,0 UV-I 0 W/m 7,6 C 10,2 C 13,4 km/h 100,00 %
05.06.2020 21:41 10,4 C 83 % 996,5 hPa 0,0 l/m 3,8 km/h S-SW 202 0 min 0,000 mm 0,0 UV-I 0 W/m 7,6 C 10,4 C 7,7 km/h 100,00 %
05.06.2020 21:40 10,4 C 83 % 996,5 hPa 0,0 l/m 4,5 km/h S-SW 194 0 min 0,000 mm 0,0 UV-I 0 W/m 7,6 C 10,4 C 7,7 km/h 100,00 %
05.06.2020 21:39 10,4 C 83 % 996,5 hPa 0,0 l/m 4,2 km/h S 184 0 min 0,000 mm 0,0 UV-I 0 W/m 7,6 C 10,4 C 7,7 km/h 100,00 %
05.06.2020 21:38 10,4 C 83 % 996,5 hPa 0,0 l/m 7,7 km/h S-SW 195 0 min 0,000 mm 0,0 UV-I 0 W/m 7,6 C 9,5 C 11,5 km/h 100,00 %
05.06.2020 21:37 10,4 C 83 % 996,4 hPa 0,0 l/m 5,1 km/h S 180 0 min 0,000 mm 0,0 UV-I 0 W/m 7,6 C 10,4 C 9,6 km/h 100,00 %
05.06.2020 21:36 10,4 C 83 % 996,4 hPa 0,0 l/m 4,3 km/h S-SW 193 0 min 0,000 mm 0,0 UV-I 4 W/m 7,6 C 10,4 C 7,7 km/h 100,00 %
05.06.2020 21:35 10,4 C 83 % 996,4 hPa 0,0 l/m 6,3 km/h S-SW 194 0 min 0,000 mm 0,0 UV-I 5 W/m 7,6 C 10,4 C 11,5 km/h 100,00 %
05.06.2020 21:34 10,4 C 83 % 996,4 hPa 0,0 l/m 3,7 km/h SW 217 0 min 0,000 mm 0,0 UV-I 5 W/m 7,6 C 10,4 C 7,7 km/h 100,00 %
05.06.2020 21:33 10,5 C 83 % 996,4 hPa 0,0 l/m 3,9 km/h SW 216 0 min 0,000 mm 0,0 UV-I 5 W/m 7,7 C 10,5 C 7,7 km/h 100,00 %
05.06.2020 21:32 10,5 C 83 % 996,4 hPa 0,0 l/m 3,8 km/h S-SW 212 0 min 0,000 mm 0,0 UV-I 5 W/m 7,7 C 10,5 C 7,7 km/h 100,00 %
05.06.2020 21:31 10,5 C 83 % 996,3 hPa 0,0 l/m 7,7 km/h S-SW 213 0 min 0,000 mm 0,0 UV-I 5 W/m 7,7 C 9,6 C 13,4 km/h 100,00 %
05.06.2020 21:30 10,5 C 83 % 996,3 hPa 0,0 l/m 5,6 km/h S-SW 199 0 min 0,000 mm 0,0 UV-I 5 W/m 7,7 C 10,5 C 9,6 km/h 100,00 %
05.06.2020 21:29 10,5 C 83 % 996,2 hPa 0,0 l/m 7,4 km/h S-SW 211 0 min 0,000 mm 0,0 UV-I 5 W/m 7,7 C 9,8 C 11,5 km/h 100,00 %
05.06.2020 21:28 10,6 C 83 % 996,2 hPa 0,0 l/m 6,7 km/h S-SO 165 0 min 0,000 mm 0,0 UV-I 5 W/m 7,8 C 10,4 C 9,6 km/h 100,00 %
05.06.2020 21:27 10,6 C 83 % 996,2 hPa 0,0 l/m 12,0 km/h S-SO 168 0 min 0,000 mm 0,0 UV-I 7 W/m 7,8 C 7,2 C 15,3 km/h 100,00 %
05.06.2020 21:26 10,6 C 83 % 996,2 hPa 0,0 l/m 4,3 km/h S-SW 206 0 min 0,000 mm 0,0 UV-I 7 W/m 7,8 C 10,6 C 7,7 km/h 100,00 %
05.06.2020 21:25 10,6 C 83 % 996,3 hPa 0,0 l/m 3,9 km/h SW 234 0 min 0,000 mm 0,0 UV-I 7 W/m 7,8 C 10,6 C 7,7 km/h 100,00 %
05.06.2020 21:24 10,6 C 83 % 996,2 hPa 0,0 l/m 9,1 km/h SW 217 0 min 0,000 mm 0,0 UV-I 7 W/m 7,8 C 8,8 C 17,2 km/h 100,00 %
05.06.2020 21:23 10,6 C 83 % 996,2 hPa 0,0 l/m 9,4 km/h SW 222 0 min 0,000 mm 0,0 UV-I 7 W/m 7,8 C 8,6 C 15,3 km/h 100,00 %
05.06.2020 21:22 10,6 C 83 % 996,2 hPa 0,0 l/m 7,4 km/h S-SW 192 0 min 0,000 mm 0,0 UV-I 8 W/m 7,8 C 9,9 C 13,4 km/h 97,56 %
05.06.2020 21:21 10,6 C 83 % 996,2 hPa 0,0 l/m 7,5 km/h SW 214 0 min 0,000 mm 0,0 UV-I 9 W/m 7,8 C 9,8 C 17,2 km/h 100,00 %
05.06.2020 21:20 10,6 C 83 % 996,2 hPa 0,0 l/m 6,5 km/h SW 215 0 min 0,000 mm 0,0 UV-I 9 W/m 7,8 C 10,6 C 11,5 km/h 100,00 %
05.06.2020 21:19 10,6 C 83 % 996,1 hPa 0,0 l/m 11,3 km/h SW 220 0 min 0,000 mm 0,0 UV-I 9 W/m 7,8 C 7,6 C 17,2 km/h 100,00 %
05.06.2020 21:18 10,6 C 83 % 996,1 hPa 0,0 l/m 11,6 km/h S-SW 196 0 min 0,000 mm 0,0 UV-I 9 W/m 7,8 C 7,4 C 17,2 km/h 95,65 %
05.06.2020 21:17 10,6 C 84 % 996,1 hPa 0,0 l/m 9,6 km/h S-SW 211 0 min 0,000 mm 0,0 UV-I 9 W/m 8,0 C 8,5 C 17,2 km/h 100,00 %
05.06.2020 21:16 10,6 C 84 % 996,1 hPa 0,0 l/m 8,1 km/h SW 218 0 min 0,000 mm 0,0 UV-I 11 W/m 8,0 C 9,4 C 17,2 km/h 100,00 %
05.06.2020 21:15 10,6 C 84 % 996,1 hPa 0,0 l/m 8,2 km/h S-SW 212 0 min 0,000 mm 0,0 UV-I 11 W/m 8,0 C 9,4 C 11,5 km/h 100,00 %
05.06.2020 21:14 10,6 C 83 % 996,1 hPa 0,0 l/m 8,2 km/h S 182 0 min 0,000 mm 0,0 UV-I 11 W/m 7,8 C 9,4 C 15,3 km/h 100,00 %
05.06.2020 21:13 10,6 C 84 % 996,1 hPa 0,0 l/m 9,5 km/h S-SW 198 0 min 0,000 mm 0,0 UV-I 11 W/m 8,0 C 8,5 C 13,4 km/h 100,00 %
05.06.2020 21:12 10,7 C 83 % 996,0 hPa 0,0 l/m 5,4 km/h SW 221 0 min 0,000 mm 0,0 UV-I 11 W/m 7,9 C 10,7 C 9,6 km/h 100,00 %
05.06.2020 21:11 10,7 C 83 % 996,0 hPa 0,0 l/m 3,8 km/h SW 217 0 min 0,000 mm 0,0 UV-I 11 W/m 7,9 C 10,7 C 5,7 km/h 100,00 %
05.06.2020 21:10 10,7 C 83 % 996,0 hPa 0,0 l/m 5,0 km/h SW 217 0 min 0,000 mm 0,0 UV-I 11 W/m 7,9 C 10,7 C 9,6 km/h 100,00 %
05.06.2020 21:09 10,7 C 83 % 996,0 hPa 0,0 l/m 2,8 km/h SW 217 0 min 0,000 mm 0,0 UV-I 12 W/m 7,9 C 10,7 C 9,6 km/h 100,00 %
05.06.2020 21:08 10,7 C 83 % 996,0 hPa 0,0 l/m 2,8 km/h SW 228 0 min 0,000 mm 0,0 UV-I 12 W/m 7,9 C 10,7 C 5,7 km/h 100,00 %
05.06.2020 21:07 10,7 C 83 % 996,0 hPa 0,0 l/m 4,2 km/h SW 230 0 min 0,000 mm 0,0 UV-I 12 W/m 7,9 C 10,7 C 7,7 km/h 100,00 %
05.06.2020 21:06 10,7 C 83 % 996,0 hPa 0,0 l/m 5,5 km/h S-SW 206 0 min 0,000 mm 0,0 UV-I 12 W/m 7,9 C 10,7 C 9,6 km/h 100,00 %
05.06.2020 21:05 10,8 C 83 % 996,0 hPa 0,0 l/m 5,2 km/h S-SW 209 0 min 0,000 mm 0,0 UV-I 12 W/m 8,0 C 10,8 C 9,6 km/h 100,00 %
05.06.2020 21:04 10,8 C 83 % 996,0 hPa 0,0 l/m 0,3 km/h S-SW 195 0 min 0,000 mm 0,0 UV-I 12 W/m 8,0 C 10,8 C 1,9 km/h 100,00 %
05.06.2020 21:03 10,8 C 83 % 996,0 hPa 0,0 l/m 0,8 km/h S-SW 195 0 min 0,000 mm 0,0 UV-I 13 W/m 8,0 C 10,8 C 1,9 km/h 100,00 %
05.06.2020 21:02 10,8 C 83 % 996,0 hPa 0,0 l/m 0,5 km/h S-SW 195 0 min 0,000 mm 0,0 UV-I 14 W/m 8,0 C 10,8 C 1,9 km/h 100,00 %
05.06.2020 21:01 10,8 C 83 % 995,9 hPa 0,0 l/m 2,0 km/h S-SW 195 0 min 0,025 mm 0,0 UV-I 15 W/m 8,0 C 10,8 C 3,8 km/h 94,12 %
05.06.2020 21:00 10,8 C 83 % 995,9 hPa 0,0 l/m 2,1 km/h S-SW 195 0 min 0,000 mm 0,0 UV-I 19 W/m 8,0 C 10,8 C 3,8 km/h 100,00 %
05.06.2020 20:59 10,9 C 82 % 995,9 hPa 0,0 l/m 2,0 km/h S-SW 196 0 min 0,000 mm 0,0 UV-I 21 W/m 7,9 C 10,9 C 3,8 km/h 100,00 %
05.06.2020 20:58 10,9 C 82 % 995,9 hPa 0,0 l/m 2,1 km/h S-SW 196 0 min 0,000 mm 0,0 UV-I 23 W/m 7,9 C 10,9 C 5,7 km/h 100,00 %
05.06.2020 20:57 10,9 C 82 % 995,9 hPa 0,0 l/m 2,2 km/h S-SW 212 0 min 0,000 mm 0,0 UV-I 22 W/m 7,9 C 10,9 C 5,7 km/h 100,00 %
05.06.2020 20:56 10,9 C 82 % 995,9 hPa 0,0 l/m 2,6 km/h S-SW 212 0 min 0,000 mm 0,0 UV-I 20 W/m 7,9 C 10,9 C 5,7 km/h 100,00 %
05.06.2020 20:55 10,9 C 82 % 995,9 hPa 0,0 l/m 3,3 km/h S-SW 212 0 min 0,000 mm 0,0 UV-I 19 W/m 7,9 C 10,9 C 5,7 km/h 100,00 %
05.06.2020 20:54 10,9 C 82 % 995,9 hPa 0,0 l/m 4,4 km/h S-SW 212 0 min 0,000 mm 0,0 UV-I 18 W/m 7,9 C 10,9 C 5,7 km/h 100,00 %
05.06.2020 20:53 10,9 C 82 % 995,9 hPa 0,0 l/m 0,4 km/h S-SW 210 0 min 0,000 mm 0,0 UV-I 18 W/m 7,9 C 10,9 C 3,8 km/h 95,83 %
05.06.2020 20:52 11,0 C 82 % 995,9 hPa 0,0 l/m 0,6 km/h S-SW 210 0 min 0,000 mm 0,0 UV-I 18 W/m 8,0 C 11,0 C 1,9 km/h 100,00 %
05.06.2020 20:51 11,0 C 82 % 995,9 hPa 0,0 l/m 0,7 km/h S-SW 210 0 min 0,000 mm 0,0 UV-I 18 W/m 8,0 C 11,0 C 1,9 km/h 100,00 %
05.06.2020 20:50 11,0 C 82 % 995,8 hPa 0,0 l/m 2,5 km/h S-SW 210 0 min 0,000 mm 0,0 UV-I 19 W/m 8,0 C 11,0 C 3,8 km/h 100,00 %
05.06.2020 20:49 11,1 C 82 % 995,8 hPa 0,0 l/m 0,0 km/h SW 227 0 min 0,000 mm 0,0 UV-I 22 W/m 8,1 C 11,1 C 0,0 km/h 96,43 %
05.06.2020 20:48 11,1 C 82 % 995,8 hPa 0,0 l/m 1,6 km/h SW 227 0 min 0,000 mm 0,0 UV-I 29 W/m 8,1 C 11,1 C 3,8 km/h 100,00 %
05.06.2020 20:47 11,1 C 82 % 995,8 hPa 0,0 l/m 2,9 km/h SW 227 0 min 0,000 mm 0,0 UV-I 39 W/m 8,1 C 11,1 C 3,8 km/h 100,00 %
05.06.2020 20:46 11,1 C 82 % 995,8 hPa 0,0 l/m 2,7 km/h SW 227 0 min 0,000 mm 0,0 UV-I 47 W/m 8,1 C 11,1 C 5,7 km/h 100,00 %
05.06.2020 20:45 11,1 C 82 % 995,8 hPa 0,0 l/m 3,3 km/h SW 227 0 min 0,000 mm 0,0 UV-I 54 W/m 8,1 C 11,1 C 5,7 km/h 100,00 %
05.06.2020 20:44 11,1 C 82 % 995,8 hPa 0,0 l/m 2,7 km/h SW 227 0 min 0,000 mm 0,0 UV-I 47 W/m 8,1 C 11,1 C 5,7 km/h 100,00 %
05.06.2020 20:43 11,2 C 82 % 995,8 hPa 0,0 l/m 4,1 km/h SW 228 0 min 0,000 mm 0,0 UV-I 33 W/m 8,2 C 11,2 C 7,7 km/h 100,00 %
05.06.2020 20:42 11,2 C 82 % 995,8 hPa 0,0 l/m 4,1 km/h SW 229 0 min 0,000 mm 0,0 UV-I 21 W/m 8,2 C 11,2 C 7,7 km/h 95,65 %
05.06.2020 20:41 11,2 C 82 % 995,8 hPa 0,0 l/m 1,5 km/h W-SW 250 0 min 0,000 mm 0,0 UV-I 19 W/m 8,2 C 11,2 C 3,8 km/h 100,00 %
05.06.2020 20:40 11,2 C 81 % 995,8 hPa 0,0 l/m 0,9 km/h W-SW 250 0 min 0,000 mm 0,0 UV-I 20 W/m 8,1 C 11,2 C 3,8 km/h 100,00 %
05.06.2020 20:39 11,2 C 81 % 995,7 hPa 0,0 l/m 5,1 km/h W-SW 250 0 min 0,000 mm 0,0 UV-I 22 W/m 8,1 C 11,2 C 7,7 km/h 100,00 %
05.06.2020 20:38 11,2 C 81 % 995,7 hPa 0,0 l/m 5,5 km/h W-SW 240 0 min 0,000 mm 0,0 UV-I 24 W/m 8,1 C 11,2 C 7,7 km/h 100,00 %
05.06.2020 20:37 11,2 C 81 % 995,7 hPa 0,0 l/m 3,2 km/h SW 224 0 min 0,000 mm 0,0 UV-I 29 W/m 8,1 C 11,2 C 5,7 km/h 100,00 %
05.06.2020 20:36 11,2 C 81 % 995,7 hPa 0,0 l/m 0,6 km/h SW 224 0 min 0,000 mm 0,0 UV-I 34 W/m 8,1 C 11,2 C 1,9 km/h 100,00 %
05.06.2020 20:35 11,2 C 81 % 995,6 hPa 0,0 l/m 3,2 km/h SW 224 0 min 0,000 mm 0,0 UV-I 40 W/m 8,1 C 11,2 C 5,7 km/h 100,00 %
05.06.2020 20:34 11,2 C 81 % 995,6 hPa 0,0 l/m 2,4 km/h SW 225 0 min 0,000 mm 0,0 UV-I 44 W/m 8,1 C 11,2 C 7,7 km/h 100,00 %
05.06.2020 20:33 11,1 C 81 % 995,6 hPa 0,0 l/m 4,9 km/h SW 224 0 min 0,000 mm 0,0 UV-I 48 W/m 8,0 C 11,1 C 7,7 km/h 100,00 %
05.06.2020 20:32 11,2 C 81 % 995,5 hPa 0,0 l/m 1,5 km/h SW 232 0 min 0,000 mm 0,0 UV-I 50 W/m 8,1 C 11,2 C 5,7 km/h 100,00 %
05.06.2020 20:31 11,1 C 81 % 995,6 hPa 0,0 l/m 7,2 km/h SW 232 0 min 0,000 mm 0,0 UV-I 53 W/m 8,0 C 10,5 C 11,5 km/h 95,65 %
05.06.2020 20:30 11,2 C 81 % 995,5 hPa 0,0 l/m 7,6 km/h SW 222 0 min 0,000 mm 0,0 UV-I 55 W/m 8,1 C 10,4 C 11,5 km/h 100,00 %
05.06.2020 20:29 11,2 C 81 % 995,5 hPa 0,0 l/m 2,2 km/h SW 230 0 min 0,000 mm 0,0 UV-I 60 W/m 8,1 C 11,2 C 5,7 km/h 100,00 %
05.06.2020 20:28 11,1 C 81 % 995,5 hPa 0,0 l/m 2,1 km/h SW 234 0 min 0,000 mm 0,0 UV-I 67 W/m 8,0 C 11,1 C 3,8 km/h 100,00 %
05.06.2020 20:27 11,1 C 81 % 995,5 hPa 0,0 l/m 2,0 km/h SW 234 0 min 0,000 mm 0,0 UV-I 75 W/m 8,0 C 11,1 C 5,7 km/h 100,00 %
05.06.2020 20:26 11,1 C 81 % 995,5 hPa 0,0 l/m 0,6 km/h SW 232 0 min 0,000 mm 0,0 UV-I 88 W/m 8,0 C 11,1 C 3,8 km/h 100,00 %
05.06.2020 20:25 11,1 C 81 % 995,5 hPa 0,0 l/m 4,4 km/h SW 232 0 min 0,000 mm 0,0 UV-I 103 W/m 8,0 C 11,1 C 7,7 km/h 100,00 %
05.06.2020 20:24 11,1 C 81 % 995,5 hPa 0,0 l/m 2,2 km/h W-SW 237 0 min 0,000 mm 0,0 UV-I 117 W/m 8,0 C 11,1 C 3,8 km/h 100,00 %
05.06.2020 20:23 11,1 C 81 % 995,5 hPa 0,0 l/m 2,3 km/h SW 236 0 min 0,000 mm 0,0 UV-I 120 W/m 8,0 C 11,1 C 3,8 km/h 100,00 %
05.06.2020 20:22 11,1 C 81 % 995,5 hPa 0,0 l/m 4,5 km/h SW 236 0 min 0,000 mm 0,0 UV-I 110 W/m 8,0 C 11,1 C 7,7 km/h 100,00 %
05.06.2020 20:21 11,1 C 81 % 995,6 hPa 0,0 l/m 5,1 km/h SW 228 0 min 0,000 mm 0,0 UV-I 94 W/m 8,0 C 11,1 C 9,6 km/h 100,00 %
05.06.2020 20:20 11,1 C 81 % 995,5 hPa 0,0 l/m 4,7 km/h W-SW 240 0 min 0,000 mm 0,0 UV-I 75 W/m 8,0 C 11,1 C 11,5 km/h 100,00 %
05.06.2020 20:19 11,1 C 81 % 995,5 hPa 0,0 l/m 5,6 km/h W-SW 252 0 min 0,000 mm 0,0 UV-I 57 W/m 8,0 C 11,1 C 9,6 km/h 100,00 %
05.06.2020 20:18 11,1 C 81 % 995,5 hPa 0,0 l/m 4,3 km/h SW 221 0 min 0,000 mm 0,0 UV-I 49 W/m 8,0 C 11,1 C 11,5 km/h 100,00 %
05.06.2020 20:17 11,1 C 81 % 995,5 hPa 0,0 l/m 5,8 km/h W-SW 238 0 min 0,000 mm 0,0 UV-I 48 W/m 8,0 C 11,1 C 11,5 km/h 100,00 %
05.06.2020 20:16 11,1 C 81 % 995,4 hPa 0,0 l/m 12,2 km/h SW 221 0 min 0,000 mm 0,0 UV-I 48 W/m 8,0 C 7,7 C 19,1 km/h 100,00 %
05.06.2020 20:15 11,1 C 81 % 995,5 hPa 0,0 l/m 4,4 km/h S-SW 213 0 min 0,000 mm 0,0 UV-I 48 W/m 8,0 C 11,1 C 7,7 km/h 100,00 %
05.06.2020 20:14 11,1 C 81 % 995,5 hPa 0,0 l/m 2,3 km/h SW 218 0 min 0,000 mm 0,0 UV-I 52 W/m 8,0 C 11,1 C 7,7 km/h 100,00 %
05.06.2020 20:13 11,1 C 81 % 995,4 hPa 0,0 l/m 4,3 km/h SW 217 0 min 0,000 mm 0,0 UV-I 58 W/m 8,0 C 11,1 C 9,6 km/h 100,00 %
05.06.2020 20:12 11,1 C 80 % 995,4 hPa 0,0 l/m 1,8 km/h SW 224 0 min 0,000 mm 0,0 UV-I 68 W/m 7,8 C 11,1 C 7,7 km/h 95,65 %
05.06.2020 20:11 11,1 C 80 % 995,5 hPa 0,0 l/m 6,7 km/h SW 224 0 min 0,000 mm 0,0 UV-I 79 W/m 7,8 C 10,9 C 11,5 km/h 100,00 %
05.06.2020 20:10 11,1 C 80 % 995,4 hPa 0,0 l/m 8,7 km/h SW 232 0 min 0,000 mm 0,0 UV-I 89 W/m 7,8 C 9,6 C 15,3 km/h 100,00 %
05.06.2020 20:09 11,1 C 80 % 995,4 hPa 0,0 l/m 6,8 km/h SW 230 0 min 0,000 mm 0,0 UV-I 97 W/m 7,8 C 10,8 C 11,5 km/h 100,00 %
05.06.2020 20:08 11,1 C 80 % 995,4 hPa 0,0 l/m 5,6 km/h SW 223 0 min 0,000 mm 0,0 UV-I 102 W/m 7,8 C 11,1 C 11,5 km/h 100,00 %
05.06.2020 20:07 11,1 C 80 % 995,3 hPa 0,0 l/m 6,1 km/h W 264 0 min 0,000 mm 0,0 UV-I 98 W/m 7,8 C 11,1 C 15,3 km/h 100,00 %
05.06.2020 20:06 11,1 C 80 % 995,3 hPa 0,0 l/m 10,0 km/h SW 222 0 min 0,000 mm 0,0 UV-I 93 W/m 7,8 C 8,8 C 13,4 km/h 100,00 %
05.06.2020 20:05 11,1 C 80 % 995,3 hPa 0,0 l/m 5,3 km/h SW 236 0 min 0,000 mm 0,0 UV-I 93 W/m 7,8 C 11,1 C 11,5 km/h 100,00 %
05.06.2020 20:04 11,1 C 80 % 995,3 hPa 0,0 l/m 2,9 km/h SW 229 0 min 0,000 mm 0,0 UV-I 99 W/m 7,8 C 11,1 C 5,7 km/h 100,00 %
05.06.2020 20:03 11,1 C 80 % 995,3 hPa 0,0 l/m 1,9 km/h SW 232 0 min 0,000 mm 0,0 UV-I 102 W/m 7,8 C 11,1 C 5,7 km/h 100,00 %
05.06.2020 20:02 11,1 C 80 % 995,3 hPa 0,0 l/m 3,1 km/h S-SW 210 0 min 0,000 mm 0,0 UV-I 108 W/m 7,8 C 11,1 C 7,7 km/h 100,00 %
05.06.2020 20:01 11,0 C 80 % 995,3 hPa 0,0 l/m 2,2 km/h W-SW 242 0 min 0,076 mm 0,0 UV-I 118 W/m 7,7 C 11,0 C 5,7 km/h 100,00 %
05.06.2020 20:00 11,0 C 80 % 995,3 hPa 0,0 l/m 1,4 km/h W-NW 289 0 min 0,000 mm 0,0 UV-I 126 W/m 7,7 C 11,0 C 3,8 km/h 100,00 %
05.06.2020 19:59 10,9 C 80 % 995,2 hPa 0,0 l/m 0,9 km/h W-NW 287 0 min 0,000 mm 0,0 UV-I 125 W/m 7,6 C 10,9 C 3,8 km/h 100,00 %
05.06.2020 19:58 10,9 C 79 % 995,3 hPa 0,0 l/m 0,8 km/h W-NW 291 0 min 0,000 mm 0,0 UV-I 116 W/m 7,4 C 10,9 C 3,8 km/h 100,00 %
05.06.2020 19:57 10,9 C 79 % 995,2 hPa 0,0 l/m 2,9 km/h W 281 0 min 0,000 mm 0,0 UV-I 103 W/m 7,4 C 10,9 C 5,7 km/h 100,00 %
05.06.2020 19:56 10,9 C 79 % 995,2 hPa 0,0 l/m 10,9 km/h W 274 0 min 0,000 mm 0,0 UV-I 96 W/m 7,4 C 8,1 C 19,1 km/h 100,00 %
05.06.2020 19:55 11,0 C 79 % 995,3 hPa 0,0 l/m 5,7 km/h W-NW 301 0 min 0,000 mm 0,0 UV-I 91 W/m 7,5 C 11,0 C 21,0 km/h 100,00 %
05.06.2020 19:54 11,1 C 79 % 995,2 hPa 0,0 l/m 8,6 km/h W-NW 282 0 min 0,000 mm 0,0 UV-I 92 W/m 7,6 C 9,6 C 17,2 km/h 100,00 %
05.06.2020 19:53 11,1 C 79 % 995,2 hPa 0,0 l/m 10,4 km/h W-NW 291 0 min 0,000 mm 0,0 UV-I 95 W/m 7,6 C 8,6 C 23,0 km/h 100,00 %
05.06.2020 19:52 11,2 C 79 % 995,1 hPa 0,0 l/m 15,8 km/h NW 309 0 min 0,000 mm 0,0 UV-I 95 W/m 7,7 C 6,3 C 24,9 km/h 100,00 %
05.06.2020 19:51 11,3 C 79 % 995,1 hPa 0,0 l/m 8,3 km/h NW 313 0 min 0,000 mm 0,0 UV-I 83 W/m 7,8 C 10,0 C 21,0 km/h 100,00 %
05.06.2020 19:50 11,3 C 78 % 995,2 hPa 0,0 l/m 7,6 km/h W-NW 296 0 min 0,000 mm 0,0 UV-I 60 W/m 7,6 C 10,5 C 15,3 km/h 100,00 %
05.06.2020 19:49 11,4 C 78 % 995,1 hPa 0,0 l/m 7,6 km/h W-NW 296 0 min 0,000 mm 0,0 UV-I 36 W/m 7,7 C 10,6 C 19,1 km/h 99,48 %
05.06.2020 19:48 11,5 C 78 % 995,2 hPa 0,0 l/m 7,7 km/h SW 228 0 min 0,000 mm 0,0 UV-I 26 W/m 7,8 C 10,6 C 19,1 km/h 100,00 %
05.06.2020 19:47 11,6 C 78 % 995,1 hPa 0,0 l/m 8,3 km/h NW 310 0 min 0,000 mm 0,0 UV-I 22 W/m 7,9 C 10,3 C 19,1 km/h 100,00 %
05.06.2020 19:46 11,7 C 78 % 995,1 hPa 0,0 l/m 6,1 km/h SW 225 0 min 0,000 mm 0,0 UV-I 21 W/m 8,0 C 11,7 C 11,5 km/h 96,30 %
05.06.2020 19:45 11,8 C 78 % 995,3 hPa 0,0 l/m 8,0 km/h W 273 0 min 0,000 mm 0,0 UV-I 21 W/m 8,1 C 10,7 C 23,0 km/h 100,00 %
05.06.2020 19:44 11,8 C 78 % 995,0 hPa 0,0 l/m 14,9 km/h NW 306 0 min 0,000 mm 0,0 UV-I 25 W/m 8,1 C 7,4 C 24,9 km/h 100,00 %
05.06.2020 19:43 11,9 C 79 % 995,1 hPa 0,0 l/m 10,7 km/h S-SW 205 0 min 0,000 mm 0,0 UV-I 31 W/m 8,4 C 9,3 C 23,0 km/h 100,00 %
05.06.2020 19:42 11,9 C 78 % 995,0 hPa 0,0 l/m 7,9 km/h W-NW 288 0 min 0,000 mm 0,0 UV-I 42 W/m 8,2 C 10,9 C 17,2 km/h 100,00 %
05.06.2020 19:41 11,9 C 78 % 994,9 hPa 0,0 l/m 6,1 km/h W-NW 286 0 min 0,000 mm 0,0 UV-I 54 W/m 8,2 C 11,9 C 11,5 km/h 100,00 %
05.06.2020 19:40 11,9 C 78 % 994,9 hPa 0,0 l/m 15,8 km/h SW 231 0 min 0,000 mm 0,0 UV-I 66 W/m 8,2 C 7,1 C 21,0 km/h 100,00 %
05.06.2020 19:39 11,9 C 78 % 994,8 hPa 0,0 l/m 14,8 km/h W-SW 248 0 min 0,000 mm 0,0 UV-I 74 W/m 8,2 C 7,5 C 23,0 km/h 100,00 %
05.06.2020 19:38 12,0 C 79 % 994,7 hPa 0,0 l/m 12,5 km/h SW 219 0 min 0,000 mm 0,0 UV-I 77 W/m 8,5 C 8,6 C 19,1 km/h 100,00 %
05.06.2020 19:37 12,0 C 79 % 994,7 hPa 0,0 l/m 17,9 km/h SW 222 0 min 0,000 mm 0,0 UV-I 82 W/m 8,5 C 6,5 C 28,7 km/h 100,00 %
05.06.2020 19:36 12,1 C 79 % 994,8 hPa 0,0 l/m 7,7 km/h SW 223 0 min 0,000 mm 0,0 UV-I 88 W/m 8,6 C 11,2 C 19,1 km/h 100,00 %
05.06.2020 19:35 12,1 C 79 % 994,7 hPa 0,0 l/m 7,5 km/h SW 234 0 min 0,000 mm 0,0 UV-I 92 W/m 8,6 C 11,4 C 9,6 km/h 100,00 %
05.06.2020 19:34 12,1 C 79 % 994,7 hPa 0,0 l/m 8,1 km/h SW 225 0 min 0,000 mm 0,0 UV-I 91 W/m 8,6 C 11,0 C 19,1 km/h 100,00 %
05.06.2020 19:33 12,1 C 79 % 994,7 hPa 0,0 l/m 9,6 km/h S-SW 211 0 min 0,000 mm 0,0 UV-I 92 W/m 8,6 C 10,1 C 17,2 km/h 100,00 %
05.06.2020 19:32 12,1 C 79 % 994,7 hPa 0,0 l/m 7,8 km/h SW 229 0 min 0,000 mm 0,0 UV-I 93 W/m 8,6 C 11,2 C 9,6 km/h 100,00 %
05.06.2020 19:31 12,1 C 79 % 994,6 hPa 0,0 l/m 13,0 km/h W 266 0 min 0,000 mm 0,0 UV-I 90 W/m 8,6 C 8,5 C 21,0 km/h 96,30 %
05.06.2020 19:30 12,1 C 79 % 994,6 hPa 0,0 l/m 6,1 km/h W 269 0 min 0,000 mm 0,0 UV-I 91 W/m 8,6 C 12,1 C 11,5 km/h 100,00 %
05.06.2020 19:29 12,1 C 79 % 994,5 hPa 0,0 l/m 6,1 km/h SW 234 0 min 0,000 mm 0,0 UV-I 96 W/m 8,6 C 12,1 C 9,6 km/h 100,00 %
05.06.2020 19:28 12,1 C 79 % 994,5 hPa 0,0 l/m 10,4 km/h W-SW 246 0 min 0,000 mm 0,0 UV-I 105 W/m 8,6 C 9,7 C 24,9 km/h 100,00 %
05.06.2020 19:27 12,1 C 79 % 994,5 hPa 0,0 l/m 12,1 km/h S-SW 208 0 min 0,000 mm 0,0 UV-I 112 W/m 8,6 C 8,9 C 21,0 km/h 100,00 %
05.06.2020 19:26 12,1 C 80 % 994,5 hPa 0,0 l/m 9,2 km/h W-SW 248 0 min 0,000 mm 0,1 UV-I 118 W/m 8,8 C 10,3 C 17,2 km/h 100,00 %
05.06.2020 19:25 12,2 C 80 % 994,6 hPa 0,0 l/m 9,5 km/h S-SW 204 0 min 0,000 mm 0,5 UV-I 123 W/m 8,9 C 10,3 C 19,1 km/h 100,00 %
05.06.2020 19:24 12,2 C 80 % 994,5 hPa 0,0 l/m 8,4 km/h SW 223 0 min 0,000 mm 0,5 UV-I 148 W/m 8,9 C 10,9 C 13,4 km/h 92,86 %
05.06.2020 19:23 12,2 C 79 % 994,5 hPa 0,0 l/m 8,0 km/h SW 227 0 min 0,000 mm 0,5 UV-I 138 W/m 8,7 C 11,2 C 17,2 km/h 100,00 %
05.06.2020 19:22 12,2 C 79 % 994,4 hPa 0,0 l/m 9,6 km/h W-SW 238 0 min 0,000 mm 0,5 UV-I 117 W/m 8,7 C 10,2 C 17,2 km/h 96,15 %
05.06.2020 19:21 12,2 C 79 % 994,4 hPa 0,0 l/m 13,7 km/h SW 225 0 min 0,000 mm 0,5 UV-I 119 W/m 8,7 C 8,3 C 23,0 km/h 100,00 %
05.06.2020 19:20 12,2 C 79 % 994,4 hPa 0,0 l/m 8,5 km/h SW 230 0 min 0,000 mm 0,5 UV-I 118 W/m 8,7 C 10,9 C 11,5 km/h 100,00 %
05.06.2020 19:19 12,2 C 79 % 994,4 hPa 0,0 l/m 14,0 km/h SW 236 0 min 0,000 mm 0,5 UV-I 119 W/m 8,7 C 8,2 C 21,0 km/h 100,00 %
05.06.2020 19:18 12,3 C 80 % 994,4 hPa 0,0 l/m 12,2 km/h SW 216 0 min 0,000 mm 0,6 UV-I 116 W/m 8,9 C 9,1 C 26,8 km/h 100,00 %
05.06.2020 19:17 12,3 C 80 % 994,4 hPa 0,0 l/m 13,1 km/h S 188 0 min 0,000 mm 0,6 UV-I 116 W/m 8,9 C 8,7 C 21,0 km/h 100,00 %
05.06.2020 19:16 12,3 C 80 % 994,3 hPa 0,0 l/m 14,9 km/h SW 217 0 min 0,000 mm 0,6 UV-I 126 W/m 8,9 C 8,0 C 21,0 km/h 100,00 %
05.06.2020 19:15 12,3 C 81 % 994,4 hPa 0,0 l/m 12,8 km/h SW 222 0 min 0,000 mm 0,6 UV-I 184 W/m 9,1 C 8,8 C 19,1 km/h 100,00 %
05.06.2020 19:14 12,2 C 81 % 994,3 hPa 0,0 l/m 4,4 km/h S 185 0 min 0,000 mm 0,7 UV-I 277 W/m 9,0 C 12,2 C 7,7 km/h 100,00 %
05.06.2020 19:13 12,2 C 80 % 994,3 hPa 0,0 l/m 7,9 km/h SW 231 1 min 0,000 mm 0,7 UV-I 321 W/m 8,9 C 11,2 C 15,3 km/h 100,00 %
05.06.2020 19:12 12,1 C 80 % 994,3 hPa 0,0 l/m 9,2 km/h SW 217 0 min 0,000 mm 0,7 UV-I 281 W/m 8,8 C 10,3 C 17,2 km/h 100,00 %
05.06.2020 19:11 12,1 C 80 % 994,2 hPa 0,0 l/m 11,0 km/h SW 232 0 min 0,000 mm 0,6 UV-I 181 W/m 8,8 C 9,4 C 19,1 km/h 100,00 %
05.06.2020 19:10 12,2 C 80 % 994,3 hPa 0,0 l/m 14,0 km/h SW 228 0 min 0,000 mm 0,6 UV-I 216 W/m 8,9 C 8,2 C 24,9 km/h 100,00 %
05.06.2020 19:09 12,2 C 80 % 994,3 hPa 0,0 l/m 10,7 km/h W-SW 240 0 min 0,000 mm 0,6 UV-I 153 W/m 8,9 C 9,7 C 23,0 km/h 100,00 %
05.06.2020 19:08 12,2 C 79 % 994,3 hPa 0,0 l/m 11,2 km/h SW 233 0 min 0,000 mm 0,6 UV-I 138 W/m 8,7 C 9,4 C 21,0 km/h 100,00 %
05.06.2020 19:07 12,3 C 79 % 994,2 hPa 0,0 l/m 8,6 km/h W-NW 290 0 min 0,000 mm 0,6 UV-I 142 W/m 8,8 C 10,9 C 15,3 km/h 100,00 %
05.06.2020 19:06 12,3 C 79 % 994,2 hPa 0,0 l/m 8,0 km/h SW 221 0 min 0,000 mm 0,6 UV-I 134 W/m 8,8 C 11,3 C 15,3 km/h 100,00 %
05.06.2020 19:05 12,3 C 79 % 994,2 hPa 0,0 l/m 11,4 km/h SW 236 0 min 0,000 mm 0,6 UV-I 112 W/m 8,8 C 9,4 C 17,2 km/h 100,00 %
05.06.2020 19:04 12,4 C 79 % 994,2 hPa 0,0 l/m 9,2 km/h SW 234 0 min 0,000 mm 0,6 UV-I 94 W/m 8,9 C 10,7 C 17,2 km/h 100,00 %
05.06.2020 19:03 12,4 C 79 % 994,2 hPa 0,0 l/m 11,5 km/h SW 225 0 min 0,000 mm 0,6 UV-I 88 W/m 8,9 C 9,5 C 17,2 km/h 96,15 %
05.06.2020 19:02 12,5 C 79 % 994,1 hPa 0,0 l/m 6,5 km/h W-SW 242 0 min 0,000 mm 0,6 UV-I 84 W/m 9,0 C 12,5 C 11,5 km/h 100,00 %
05.06.2020 19:01 12,5 C 79 % 994,2 hPa 0,0 l/m 8,5 km/h S-SW 205 0 min 0,203 mm 0,7 UV-I 136 W/m 9,0 C 11,2 C 13,4 km/h 100,00 %
05.06.2020 19:00 12,4 C 80 % 994,2 hPa 0,0 l/m 11,8 km/h SW 233 0 min 0,000 mm 0,8 UV-I 229 W/m 9,0 C 9,4 C 17,2 km/h 100,00 %
05.06.2020 18:59 12,4 C 79 % 994,1 hPa 0,0 l/m 10,3 km/h SW 233 0 min 0,000 mm 1,0 UV-I 229 W/m 8,9 C 10,1 C 19,1 km/h 100,00 %
05.06.2020 18:58 12,4 C 79 % 994,1 hPa 0,0 l/m 6,0 km/h SW 236 0 min 0,000 mm 0,8 UV-I 229 W/m 8,9 C 12,4 C 15,3 km/h 100,00 %
05.06.2020 18:57 12,4 C 79 % 994,1 hPa 0,0 l/m 12,5 km/h SW 236 0 min 0,000 mm 0,9 UV-I 195 W/m 8,9 C 9,1 C 21,0 km/h 92,31 %
05.06.2020 18:56 12,4 C 80 % 994,1 hPa 0,0 l/m 15,9 km/h SW 217 1 min 0,000 mm 0,8 UV-I 390 W/m 9,0 C 7,7 C 23,0 km/h 100,00 %
05.06.2020 18:55 12,4 C 80 % 994,1 hPa 0,0 l/m 16,1 km/h S-SW 207 1 min 0,000 mm 0,9 UV-I 390 W/m 9,0 C 7,6 C 24,9 km/h 100,00 %
05.06.2020 18:54 12,3 C 81 % 994,0 hPa 0,0 l/m 9,7 km/h S-SW 202 1 min 0,000 mm 1,1 UV-I 390 W/m 9,1 C 10,3 C 21,0 km/h 99,48 %
05.06.2020 18:53 12,3 C 81 % 994,0 hPa 0,0 l/m 13,9 km/h SW 227 1 min 0,000 mm 1,1 UV-I 390 W/m 9,1 C 8,4 C 24,9 km/h 100,00 %
05.06.2020 18:52 12,3 C 82 % 994,0 hPa 0,0 l/m 19,5 km/h S-SW 202 1 min 0,000 mm 1,1 UV-I 392 W/m 9,3 C 6,4 C 36,4 km/h 100,00 %
05.06.2020 18:51 12,2 C 82 % 994,0 hPa 0,0 l/m 9,3 km/h W 277 1 min 0,000 mm 1,1 UV-I 395 W/m 9,2 C 10,4 C 13,4 km/h 95,83 %
05.06.2020 18:50 12,2 C 82 % 994,0 hPa 0,0 l/m 7,6 km/h SW 221 1 min 0,000 mm 1,1 UV-I 405 W/m 9,2 C 11,4 C 19,1 km/h 95,65 %
05.06.2020 18:49 12,1 C 82 % 994,0 hPa 0,0 l/m 14,3 km/h W-SW 245 1 min 0,000 mm 1,1 UV-I 413 W/m 9,1 C 8,0 C 24,9 km/h 100,00 %
05.06.2020 18:48 12,1 C 83 % 994,0 hPa 0,0 l/m 10,3 km/h NW 315 1 min 0,000 mm 1,1 UV-I 423 W/m 9,3 C 9,8 C 23,0 km/h 100,00 %
05.06.2020 18:47 12,1 C 83 % 994,0 hPa 0,0 l/m 11,8 km/h W 261 1 min 0,000 mm 1,1 UV-I 440 W/m 9,3 C 9,0 C 21,0 km/h 100,00 %
05.06.2020 18:46 12,0 C 83 % 994,0 hPa 0,0 l/m 8,3 km/h SW 221 0 min 0,000 mm 1,2 UV-I 285 W/m 9,2 C 10,8 C 17,2 km/h 100,00 %
05.06.2020 18:45 12,0 C 83 % 994,0 hPa 0,0 l/m 11,4 km/h W-SW 244 0 min 0,000 mm 1,1 UV-I 243 W/m 9,2 C 9,1 C 19,1 km/h 100,00 %
05.06.2020 18:44 12,0 C 82 % 993,9 hPa 0,0 l/m 8,6 km/h S-SW 203 0 min 0,000 mm 0,9 UV-I 231 W/m 9,0 C 10,6 C 17,2 km/h 90,91 %
05.06.2020 18:43 12,0 C 82 % 993,9 hPa 0,0 l/m 11,7 km/h W-SW 248 0 min 0,000 mm 1,0 UV-I 245 W/m 9,0 C 9,0 C 17,2 km/h 100,00 %
05.06.2020 18:42 12,1 C 82 % 993,9 hPa 0,0 l/m 13,7 km/h W-SW 255 0 min 0,000 mm 0,9 UV-I 191 W/m 9,1 C 8,2 C 24,9 km/h 100,00 %
05.06.2020 18:41 12,2 C 82 % 993,9 hPa 0,0 l/m 9,8 km/h SW 232 0 min 0,000 mm 0,8 UV-I 116 W/m 9,2 C 10,1 C 17,2 km/h 100,00 %
05.06.2020 18:40 12,2 C 82 % 993,9 hPa 0,0 l/m 15,0 km/h W-SW 254 0 min 0,000 mm 0,8 UV-I 98 W/m 9,2 C 7,8 C 21,0 km/h 100,00 %
05.06.2020 18:39 12,3 C 83 % 993,9 hPa 0,0 l/m 9,9 km/h W 261 0 min 0,000 mm 0,8 UV-I 88 W/m 9,5 C 10,2 C 23,0 km/h 100,00 %
05.06.2020 18:38 12,3 C 83 % 993,9 hPa 0,0 l/m 13,6 km/h NW 315 0 min 0,000 mm 0,8 UV-I 184 W/m 9,5 C 8,5 C 30,6 km/h 100,00 %
05.06.2020 18:37 12,3 C 84 % 993,8 hPa 0,0 l/m 10,4 km/h W-SW 250 1 min 0,000 mm 1,0 UV-I 471 W/m 9,7 C 9,9 C 24,9 km/h 100,00 %
05.06.2020 18:36 12,3 C 84 % 993,8 hPa 0,0 l/m 9,4 km/h W-NW 302 1 min 0,000 mm 1,2 UV-I 473 W/m 9,7 C 10,5 C 13,4 km/h 96,55 %
05.06.2020 18:35 12,3 C 84 % 993,7 hPa 0,0 l/m 4,9 km/h S 183 1 min 0,000 mm 1,3 UV-I 408 W/m 9,7 C 12,3 C 7,7 km/h 100,00 %
05.06.2020 18:34 12,3 C 85 % 993,8 hPa 0,0 l/m 14,4 km/h N-NW 340 1 min 0,000 mm 1,1 UV-I 385 W/m 9,9 C 8,2 C 23,0 km/h 95,83 %
05.06.2020 18:33 12,3 C 85 % 993,7 hPa 0,0 l/m 11,3 km/h W 274 1 min 0,000 mm 1,3 UV-I 389 W/m 9,9 C 9,5 C 30,6 km/h 100,00 %
05.06.2020 18:32 12,2 C 85 % 993,7 hPa 0,0 l/m 8,3 km/h W-SW 243 1 min 0,000 mm 1,3 UV-I 468 W/m 9,8 C 11,0 C 15,3 km/h 100,00 %
05.06.2020 18:31 12,1 C 85 % 993,7 hPa 0,0 l/m 8,3 km/h SW 234 1 min 0,000 mm 1,3 UV-I 448 W/m 9,7 C 10,9 C 13,4 km/h 100,00 %
05.06.2020 18:30 12,1 C 85 % 993,7 hPa 0,0 l/m 11,8 km/h SW 231 1 min 0,000 mm 1,3 UV-I 450 W/m 9,7 C 9,0 C 28,7 km/h 100,00 %
05.06.2020 18:29 12,1 C 85 % 993,6 hPa 0,0 l/m 14,2 km/h SW 216 1 min 0,000 mm 1,3 UV-I 448 W/m 9,7 C 8,0 C 26,8 km/h 100,00 %
05.06.2020 18:28 12,1 C 85 % 993,6 hPa 0,0 l/m 10,0 km/h W-SW 254 1 min 0,000 mm 1,3 UV-I 456 W/m 9,7 C 9,9 C 21,0 km/h 100,00 %
05.06.2020 18:27 12,1 C 86 % 993,6 hPa 0,0 l/m 6,2 km/h W-SW 241 1 min 0,000 mm 1,3 UV-I 448 W/m 9,8 C 12,1 C 13,4 km/h 100,00 %
05.06.2020 18:26 12,1 C 86 % 993,6 hPa 0,0 l/m 9,6 km/h W 271 1 min 0,000 mm 1,3 UV-I 449 W/m 9,8 C 10,1 C 26,8 km/h 100,00 %
05.06.2020 18:25 12,0 C 86 % 993,6 hPa 0,0 l/m 14,0 km/h W-SW 248 1 min 0,000 mm 1,3 UV-I 453 W/m 9,7 C 8,0 C 23,0 km/h 100,00 %
05.06.2020 18:24 12,0 C 87 % 993,5 hPa 0,0 l/m 14,0 km/h W-SW 239 1 min 0,000 mm 1,3 UV-I 454 W/m 9,9 C 8,0 C 32,5 km/h 100,00 %
05.06.2020 18:23 11,9 C 87 % 993,5 hPa 0,0 l/m 11,3 km/h SW 217 1 min 0,000 mm 1,3 UV-I 460 W/m 9,8 C 9,0 C 21,0 km/h 100,00 %
05.06.2020 18:22 11,9 C 87 % 993,5 hPa 0,0 l/m 9,0 km/h SW 226 1 min 0,000 mm 1,4 UV-I 473 W/m 9,8 C 10,2 C 21,0 km/h 100,00 %
05.06.2020 18:21 11,8 C 87 % 993,5 hPa 0,0 l/m 16,4 km/h W-SW 241 1 min 0,000 mm 1,4 UV-I 482 W/m 9,7 C 6,8 C 24,9 km/h 100,00 %
05.06.2020 18:20 11,8 C 87 % 993,5 hPa 0,0 l/m 15,6 km/h W 263 1 min 0,000 mm 1,4 UV-I 472 W/m 9,7 C 7,1 C 24,9 km/h 100,00 %
05.06.2020 18:19 11,8 C 87 % 993,5 hPa 0,0 l/m 12,5 km/h SW 228 1 min 0,000 mm 1,4 UV-I 459 W/m 9,7 C 8,4 C 24,9 km/h 100,00 %
05.06.2020 18:18 11,8 C 88 % 993,4 hPa 0,0 l/m 12,6 km/h SW 219 1 min 0,000 mm 1,4 UV-I 481 W/m 9,9 C 8,3 C 23,0 km/h 100,00 %
05.06.2020 18:17 11,8 C 88 % 993,5 hPa 0,0 l/m 8,8 km/h SW 229 1 min 0,000 mm 1,4 UV-I 492 W/m 9,9 C 10,3 C 13,4 km/h 99,49 %
05.06.2020 18:16 11,8 C 88 % 993,5 hPa 0,0 l/m 12,1 km/h O-NO 65 1 min 0,000 mm 1,4 UV-I 486 W/m 9,9 C 8,5 C 28,7 km/h 100,00 %
05.06.2020 18:15 11,8 C 89 % 993,3 hPa 0,0 l/m 15,1 km/h SW 221 1 min 0,000 mm 1,5 UV-I 493 W/m 10,0 C 7,3 C 26,8 km/h 100,00 %
05.06.2020 18:14 11,7 C 89 % 993,4 hPa 0,0 l/m 19,2 km/h SW 227 1 min 0,000 mm 1,5 UV-I 476 W/m 9,9 C 5,7 C 32,5 km/h 96,55 %
05.06.2020 18:13 11,7 C 89 % 993,3 hPa 0,0 l/m 15,7 km/h W-SW 244 1 min 0,000 mm 1,5 UV-I 506 W/m 9,9 C 6,9 C 28,7 km/h 100,00 %
05.06.2020 18:12 11,7 C 89 % 993,3 hPa 0,0 l/m 16,4 km/h W-SW 244 1 min 0,000 mm 1,4 UV-I 484 W/m 9,9 C 6,7 C 28,7 km/h 100,00 %
05.06.2020 18:11 11,7 C 90 % 993,3 hPa 0,0 l/m 22,4 km/h SW 219 1 min 0,000 mm 1,3 UV-I 528 W/m 10,1 C 4,8 C 30,6 km/h 100,00 %
05.06.2020 18:10 11,7 C 90 % 993,1 hPa 0,0 l/m 21,2 km/h SW 235 1 min 0,000 mm 1,4 UV-I 550 W/m 10,1 C 5,1 C 32,5 km/h 100,00 %
05.06.2020 18:09 11,7 C 91 % 993,1 hPa 0,0 l/m 16,4 km/h W-SW 243 1 min 0,000 mm 1,5 UV-I 548 W/m 10,3 C 6,7 C 34,4 km/h 100,00 %
05.06.2020 18:08 11,7 C 90 % 993,1 hPa 0,0 l/m 17,9 km/h W-SW 250 1 min 0,000 mm 1,5 UV-I 431 W/m 10,1 C 6,1 C 28,7 km/h 100,00 %
05.06.2020 18:07 11,6 C 90 % 993,1 hPa 0,0 l/m 15,5 km/h SW 224 1 min 0,000 mm 1,3 UV-I 400 W/m 10,0 C 6,9 C 32,5 km/h 100,00 %
05.06.2020 18:06 11,6 C 90 % 993,1 hPa 0,0 l/m 14,7 km/h S-SW 211 1 min 0,000 mm 1,2 UV-I 369 W/m 10,0 C 7,2 C 32,5 km/h 100,00 %
05.06.2020 18:05 11,7 C 90 % 993,1 hPa 0,0 l/m 16,6 km/h SW 216 1 min 0,000 mm 1,3 UV-I 436 W/m 10,1 C 6,6 C 40,2 km/h 100,00 %
05.06.2020 18:04 11,7 C 91 % 993,0 hPa 0,0 l/m 19,5 km/h SW 221 0 min 0,000 mm 1,0 UV-I 233 W/m 10,3 C 5,6 C 34,4 km/h 100,00 %
05.06.2020 18:03 11,7 C 91 % 993,0 hPa 0,0 l/m 16,6 km/h SW 235 0 min 0,000 mm 0,9 UV-I 207 W/m 10,3 C 6,6 C 23,0 km/h 100,00 %
05.06.2020 18:02 11,8 C 91 % 993,0 hPa 0,0 l/m 12,3 km/h SW 225 0 min 0,000 mm 1,0 UV-I 189 W/m 10,4 C 8,4 C 21,0 km/h 96,15 %
05.06.2020 18:01 11,8 C 91 % 993,0 hPa 0,0 l/m 7,0 km/h S-SW 200 1 min 0,127 mm 1,1 UV-I 418 W/m 10,4 C 11,4 C 13,4 km/h 100,00 %
05.06.2020 18:00 11,8 C 92 % 992,9 hPa 0,0 l/m 15,4 km/h SW 230 1 min 0,000 mm 1,5 UV-I 584 W/m 10,5 C 7,2 C 23,0 km/h 100,00 %
05.06.2020 17:59 11,8 C 92 % 992,9 hPa 0,0 l/m 14,2 km/h SW 225 1 min 0,000 mm 1,3 UV-I 584 W/m 10,5 C 7,6 C 21,0 km/h 100,00 %
05.06.2020 17:58 11,7 C 92 % 992,9 hPa 0,0 l/m 9,9 km/h SW 223 1 min 0,000 mm 1,7 UV-I 586 W/m 10,4 C 9,5 C 17,2 km/h 100,00 %
05.06.2020 17:57 11,6 C 92 % 992,8 hPa 0,0 l/m 10,6 km/h SW 223 1 min 0,000 mm 1,8 UV-I 606 W/m 10,3 C 9,0 C 17,2 km/h 100,00 %
05.06.2020 17:56 11,4 C 92 % 992,8 hPa 0,0 l/m 10,2 km/h SW 223 1 min 0,000 mm 1,9 UV-I 606 W/m 10,1 C 9,0 C 19,1 km/h 100,00 %
05.06.2020 17:55 11,4 C 92 % 992,8 hPa 0,0 l/m 15,2 km/h S-SW 202 1 min 0,000 mm 1,9 UV-I 621 W/m 10,1 C 6,8 C 28,7 km/h 96,15 %
05.06.2020 17:54 11,3 C 92 % 992,8 hPa 0,0 l/m 16,7 km/h SW 227 1 min 0,000 mm 1,9 UV-I 520 W/m 10,0 C 6,1 C 28,7 km/h 100,00 %
05.06.2020 17:53 11,2 C 92 % 992,7 hPa 0,0 l/m 11,2 km/h SW 230 1 min 0,000 mm 1,8 UV-I 466 W/m 9,9 C 8,3 C 19,1 km/h 100,00 %
05.06.2020 17:52 11,2 C 92 % 992,8 hPa 0,0 l/m 17,7 km/h SW 229 1 min 0,000 mm 1,7 UV-I 368 W/m 9,9 C 5,6 C 28,7 km/h 100,00 %
05.06.2020 17:51 11,1 C 91 % 992,8 hPa 0,0 l/m 10,8 km/h S 178 1 min 0,000 mm 1,5 UV-I 364 W/m 9,7 C 8,4 C 19,1 km/h 100,00 %
05.06.2020 17:50 11,0 C 91 % 992,8 hPa 0,0 l/m 10,7 km/h SW 216 1 min 0,000 mm 1,6 UV-I 364 W/m 9,6 C 8,3 C 17,2 km/h 100,00 %
05.06.2020 17:49 10,9 C 91 % 992,8 hPa 0,0 l/m 11,2 km/h S-SW 207 1 min 0,000 mm 1,7 UV-I 364 W/m 9,5 C 7,9 C 24,9 km/h 100,00 %
05.06.2020 17:48 10,8 C 90 % 992,8 hPa 0,0 l/m 15,9 km/h W-SW 241 1 min 0,000 mm 1,4 UV-I 364 W/m 9,2 C 5,7 C 24,9 km/h 100,00 %
05.06.2020 17:47 10,8 C 90 % 992,7 hPa 0,0 l/m 16,9 km/h SW 225 1 min 0,000 mm 1,1 UV-I 306 W/m 9,2 C 5,4 C 23,0 km/h 100,00 %
05.06.2020 17:46 10,9 C 90 % 992,8 hPa 0,0 l/m 21,0 km/h SW 221 0 min 0,000 mm 0,9 UV-I 235 W/m 9,3 C 4,1 C 30,6 km/h 100,00 %
05.06.2020 17:45 10,9 C 90 % 992,7 hPa 0,0 l/m 18,7 km/h W-SW 245 0 min 0,000 mm 0,7 UV-I 195 W/m 9,3 C 4,9 C 26,8 km/h 100,00 %
05.06.2020 17:44 11,1 C 90 % 992,7 hPa 0,0 l/m 16,7 km/h SW 234 0 min 0,000 mm 0,6 UV-I 137 W/m 9,5 C 5,8 C 28,7 km/h 100,00 %
05.06.2020 17:43 11,1 C 90 % 992,7 hPa 0,0 l/m 18,4 km/h W-SW 246 0 min 0,000 mm 0,5 UV-I 112 W/m 9,5 C 5,2 C 32,5 km/h 100,00 %
05.06.2020 17:42 11,2 C 90 % 992,6 hPa 0,2 l/m 19,8 km/h SW 219 0 min 0,000 mm 0,0 UV-I 92 W/m 9,6 C 4,9 C 28,7 km/h 100,00 %
05.06.2020 17:41 11,3 C 89 % 992,6 hPa 0,0 l/m 20,7 km/h W-SW 240 0 min 0,000 mm 0,0 UV-I 79 W/m 9,6 C 4,8 C 32,5 km/h 96,55 %
05.06.2020 17:40 11,4 C 90 % 992,5 hPa 0,0 l/m 29,1 km/h SW 217 0 min 0,000 mm 0,0 UV-I 68 W/m 9,8 C 2,8 C 51,7 km/h 100,00 %
05.06.2020 17:39 11,7 C 90 % 992,5 hPa 0,2 l/m 31,0 km/h S-SW 205 0 min 0,000 mm 0,0 UV-I 61 W/m 10,1 C 2,9 C 55,5 km/h 100,00 %
05.06.2020 17:38 11,8 C 91 % 992,5 hPa 0,0 l/m 15,2 km/h S-SW 210 0 min 0,000 mm 0,0 UV-I 52 W/m 10,4 C 7,2 C 34,4 km/h 100,00 %
05.06.2020 17:37 11,8 C 91 % 992,4 hPa 0,0 l/m 10,3 km/h W-SW 250 0 min 0,000 mm 0,0 UV-I 65 W/m 10,4 C 9,4 C 17,2 km/h 100,00 %
05.06.2020 17:36 11,8 C 91 % 992,4 hPa 0,0 l/m 10,4 km/h W-SW 238 0 min 0,000 mm 0,6 UV-I 111 W/m 10,4 C 9,4 C 24,9 km/h 100,00 %
05.06.2020 17:35 11,8 C 91 % 992,3 hPa 0,0 l/m 11,6 km/h S-SW 207 0 min 0,000 mm 0,9 UV-I 158 W/m 10,4 C 8,8 C 17,2 km/h 100,00 %
05.06.2020 17:34 11,8 C 91 % 992,3 hPa 0,0 l/m 12,0 km/h SW 218 0 min 0,000 mm 1,2 UV-I 207 W/m 10,4 C 8,6 C 19,1 km/h 100,00 %
05.06.2020 17:33 11,8 C 91 % 992,2 hPa 0,0 l/m 6,7 km/h S-SW 199 0 min 0,000 mm 1,3 UV-I 257 W/m 10,4 C 11,6 C 11,5 km/h 100,00 %
05.06.2020 17:32 11,7 C 91 % 992,2 hPa 0,0 l/m 12,2 km/h SW 230 0 min 0,000 mm 1,5 UV-I 265 W/m 10,3 C 8,4 C 17,2 km/h 100,00 %
05.06.2020 17:31 11,7 C 91 % 992,2 hPa 0,0 l/m 13,3 km/h S-SW 210 0 min 0,000 mm 1,2 UV-I 265 W/m 10,3 C 7,9 C 21,0 km/h 100,00 %
05.06.2020 17:30 11,7 C 91 % 992,2 hPa 0,0 l/m 11,9 km/h S-SW 211 0 min 0,000 mm 1,1 UV-I 272 W/m 10,3 C 8,5 C 17,2 km/h 100,00 %
05.06.2020 17:29 11,7 C 90 % 992,1 hPa 0,0 l/m 12,9 km/h SW 230 0 min 0,000 mm 0,8 UV-I 202 W/m 10,1 C 8,1 C 19,1 km/h 100,00 %
05.06.2020 17:28 11,7 C 90 % 992,1 hPa 0,0 l/m 11,5 km/h SW 221 0 min 0,000 mm 0,7 UV-I 156 W/m 10,1 C 8,7 C 21,0 km/h 100,00 %
05.06.2020 17:27 11,7 C 90 % 992,1 hPa 0,0 l/m 11,7 km/h W-SW 238 0 min 0,000 mm 0,3 UV-I 118 W/m 10,1 C 8,6 C 21,0 km/h 100,00 %
05.06.2020 17:26 11,7 C 90 % 992,1 hPa 0,0 l/m 14,0 km/h SW 228 0 min 0,000 mm 0,0 UV-I 84 W/m 10,1 C 7,6 C 21,0 km/h 95,65 %
05.06.2020 17:25 11,7 C 90 % 992,2 hPa 0,0 l/m 9,5 km/h SW 223 0 min 0,000 mm 0,0 UV-I 69 W/m 10,1 C 9,7 C 13,4 km/h 100,00 %
05.06.2020 17:24 11,7 C 90 % 992,1 hPa 0,0 l/m 10,5 km/h S-SW 205 0 min 0,000 mm 0,0 UV-I 63 W/m 10,1 C 9,2 C 17,2 km/h 100,00 %
05.06.2020 17:23 11,7 C 90 % 992,1 hPa 0,0 l/m 11,5 km/h S 180 0 min 0,000 mm 0,0 UV-I 61 W/m 10,1 C 8,7 C 17,2 km/h 100,00 %
05.06.2020 17:22 11,7 C 90 % 992,1 hPa 0,0 l/m 9,7 km/h S-SO 148 0 min 0,000 mm 0,0 UV-I 51 W/m 10,1 C 9,6 C 19,1 km/h 96,15 %
05.06.2020 17:21 11,7 C 90 % 992,0 hPa 0,0 l/m 13,7 km/h S-SW 213 0 min 0,000 mm 0,0 UV-I 46 W/m 10,1 C 7,7 C 19,1 km/h 100,00 %
05.06.2020 17:20 11,8 C 90 % 992,0 hPa 0,0 l/m 16,9 km/h W-SW 240 0 min 0,000 mm 0,0 UV-I 56 W/m 10,2 C 6,6 C 23,0 km/h 100,00 %
05.06.2020 17:19 11,8 C 90 % 992,0 hPa 0,0 l/m 9,0 km/h SW 217 0 min 0,000 mm 0,0 UV-I 77 W/m 10,2 C 10,1 C 15,3 km/h 100,00 %
05.06.2020 17:18 11,8 C 90 % 992,0 hPa 0,0 l/m 8,0 km/h SW 231 0 min 0,000 mm 0,6 UV-I 107 W/m 10,2 C 10,7 C 11,5 km/h 96,15 %
05.06.2020 17:17 11,8 C 90 % 992,0 hPa 0,0 l/m 10,8 km/h SW 214 0 min 0,000 mm 0,7 UV-I 136 W/m 10,2 C 9,2 C 13,4 km/h 100,00 %
05.06.2020 17:16 11,8 C 90 % 992,1 hPa 0,0 l/m 13,7 km/h SW 217 0 min 0,000 mm 0,6 UV-I 131 W/m 10,2 C 7,8 C 19,1 km/h 100,00 %
05.06.2020 17:15 11,8 C 90 % 992,0 hPa 0,0 l/m 15,0 km/h S-SW 213 0 min 0,000 mm 0,7 UV-I 121 W/m 10,2 C 7,3 C 24,9 km/h 100,00 %
05.06.2020 17:14 11,8 C 90 % 991,9 hPa 0,0 l/m 9,6 km/h SW 221 0 min 0,000 mm 0,8 UV-I 152 W/m 10,2 C 9,8 C 15,3 km/h 100,00 %
05.06.2020 17:13 11,8 C 91 % 992,0 hPa 0,0 l/m 15,3 km/h S-SW 211 0 min 0,000 mm 0,9 UV-I 173 W/m 10,4 C 7,2 C 23,0 km/h 100,00 %
05.06.2020 17:12 11,8 C 91 % 991,9 hPa 0,0 l/m 13,1 km/h SW 231 0 min 0,000 mm 1,1 UV-I 199 W/m 10,4 C 8,1 C 21,0 km/h 100,00 %
05.06.2020 17:11 11,8 C 91 % 991,9 hPa 0,0 l/m 11,7 km/h S 187 0 min 0,000 mm 1,2 UV-I 262 W/m 10,4 C 8,7 C 24,9 km/h 100,00 %
05.06.2020 17:10 11,7 C 91 % 991,9 hPa 0,0 l/m 7,8 km/h S-SW 203 0 min 0,000 mm 1,3 UV-I 280 W/m 10,3 C 10,8 C 13,4 km/h 100,00 %
05.06.2020 17:09 11,7 C 91 % 991,9 hPa 0,0 l/m 7,3 km/h SW 225 0 min 0,000 mm 1,4 UV-I 286 W/m 10,3 C 11,1 C 15,3 km/h 100,00 %
05.06.2020 17:08 11,7 C 91 % 991,9 hPa 0,0 l/m 9,6 km/h S-SW 213 1 min 0,000 mm 1,4 UV-I 321 W/m 10,3 C 9,7 C 15,3 km/h 100,00 %
05.06.2020 17:07 11,6 C 91 % 991,9 hPa 0,0 l/m 17,0 km/h SW 218 1 min 0,000 mm 1,5 UV-I 333 W/m 10,2 C 6,3 C 23,0 km/h 100,00 %
05.06.2020 17:06 11,6 C 91 % 991,8 hPa 0,0 l/m 11,6 km/h S 186 1 min 0,000 mm 1,6 UV-I 388 W/m 10,2 C 8,5 C 21,0 km/h 100,00 %
05.06.2020 17:05 11,6 C 91 % 991,9 hPa 0,0 l/m 16,5 km/h SW 231 1 min 0,000 mm 1,7 UV-I 369 W/m 10,2 C 6,5 C 26,8 km/h 100,00 %
05.06.2020 17:04 11,5 C 91 % 991,9 hPa 0,0 l/m 13,4 km/h SW 214 1 min 0,000 mm 1,8 UV-I 397 W/m 10,1 C 7,6 C 19,1 km/h 100,00 %
05.06.2020 17:03 11,4 C 91 % 991,9 hPa 0,0 l/m 13,4 km/h SW 219 1 min 0,000 mm 2,0 UV-I 564 W/m 10,0 C 7,5 C 19,1 km/h 95,65 %
05.06.2020 17:02 11,3 C 92 % 991,8 hPa 0,0 l/m 12,4 km/h SW 216 1 min 0,000 mm 2,2 UV-I 564 W/m 10,0 C 7,8 C 24,9 km/h 100,00 %
05.06.2020 17:01 11,3 C 92 % 991,8 hPa 0,0 l/m 15,3 km/h S 180 1 min 0,178 mm 2,3 UV-I 564 W/m 10,0 C 6,6 C 26,8 km/h 100,00 %
05.06.2020 17:00 11,2 C 92 % 991,8 hPa 0,0 l/m 11,5 km/h S-SW 196 1 min 0,000 mm 2,5 UV-I 748 W/m 9,9 C 8,1 C 19,1 km/h 100,00 %
05.06.2020 16:59 11,1 C 92 % 991,8 hPa 0,0 l/m 10,0 km/h S-SW 195 1 min 0,000 mm 2,5 UV-I 765 W/m 9,8 C 8,8 C 13,4 km/h 100,00 %
05.06.2020 16:58 10,9 C 91 % 991,9 hPa 0,0 l/m 11,1 km/h S 188 1 min 0,000 mm 2,7 UV-I 483 W/m 9,5 C 8,0 C 19,1 km/h 100,00 %
05.06.2020 16:57 10,9 C 91 % 991,8 hPa 0,0 l/m 11,9 km/h S 186 1 min 0,000 mm 2,3 UV-I 490 W/m 9,5 C 7,6 C 17,2 km/h 100,00 %
05.06.2020 16:56 10,8 C 91 % 991,8 hPa 0,0 l/m 11,4 km/h SW 221 1 min 0,000 mm 2,3 UV-I 550 W/m 9,4 C 7,7 C 21,0 km/h 100,00 %
05.06.2020 16:55 10,8 C 91 % 991,9 hPa 0,0 l/m 14,8 km/h S-SW 207 1 min 0,000 mm 2,2 UV-I 520 W/m 9,4 C 6,2 C 24,9 km/h 100,00 %
05.06.2020 16:54 10,7 C 91 % 991,9 hPa 0,0 l/m 11,2 km/h S-SW 213 1 min 0,000 mm 2,0 UV-I 673 W/m 9,3 C 7,7 C 17,2 km/h 100,00 %
05.06.2020 16:53 10,7 C 91 % 992,0 hPa 0,0 l/m 16,4 km/h SW 218 1 min 0,000 mm 2,1 UV-I 689 W/m 9,3 C 5,4 C 21,0 km/h 100,00 %
05.06.2020 16:52 10,7 C 91 % 991,9 hPa 0,0 l/m 9,4 km/h SW 230 1 min 0,000 mm 2,1 UV-I 523 W/m 9,3 C 8,7 C 15,3 km/h 100,00 %
05.06.2020 16:51 10,7 C 91 % 991,9 hPa 0,0 l/m 9,7 km/h S-SW 211 0 min 0,000 mm 1,6 UV-I 211 W/m 9,3 C 8,5 C 15,3 km/h 100,00 %
05.06.2020 16:50 10,8 C 91 % 991,9 hPa 0,0 l/m 13,0 km/h S 190 0 min 0,000 mm 1,0 UV-I 211 W/m 9,4 C 7,0 C 30,6 km/h 100,00 %
05.06.2020 16:49 10,9 C 91 % 991,9 hPa 0,0 l/m 11,3 km/h S-SW 209 0 min 0,000 mm 0,6 UV-I 154 W/m 9,5 C 7,9 C 26,8 km/h 100,00 %
05.06.2020 16:48 10,9 C 91 % 991,8 hPa 0,0 l/m 8,4 km/h SW 225 0 min 0,000 mm 0,0 UV-I 100 W/m 9,5 C 9,5 C 19,1 km/h 100,00 %
05.06.2020 16:47 11,1 C 91 % 991,8 hPa 0,0 l/m 16,5 km/h S-SW 200 0 min 0,000 mm 0,0 UV-I 75 W/m 9,7 C 5,9 C 24,9 km/h 100,00 %
05.06.2020 16:46 11,2 C 91 % 991,8 hPa 0,0 l/m 17,8 km/h S 190 0 min 0,000 mm 0,0 UV-I 60 W/m 9,8 C 5,6 C 36,4 km/h 93,10 %
05.06.2020 16:45 11,3 C 91 % 991,9 hPa 0,0 l/m 15,1 km/h S-SW 197 0 min 0,000 mm 0,0 UV-I 53 W/m 9,9 C 6,7 C 23,0 km/h 100,00 %
05.06.2020 16:44 11,3 C 91 % 991,9 hPa 0,0 l/m 19,2 km/h SW 227 0 min 0,000 mm 0,0 UV-I 50 W/m 9,9 C 5,2 C 24,9 km/h 100,00 %
05.06.2020 16:43 11,4 C 91 % 991,8 hPa 0,0 l/m 13,6 km/h S 175 0 min 0,000 mm 0,0 UV-I 47 W/m 10,0 C 7,4 C 28,7 km/h 100,00 %
05.06.2020 16:42 11,5 C 92 % 991,9 hPa 0,0 l/m 19,9 km/h S 180 0 min 0,000 mm 0,0 UV-I 47 W/m 10,2 C 5,3 C 30,6 km/h 100,00 %
05.06.2020 16:41 11,7 C 92 % 991,9 hPa 0,0 l/m 20,6 km/h SW 214 0 min 0,000 mm 0,0 UV-I 44 W/m 10,4 C 5,3 C 32,5 km/h 100,00 %
05.06.2020 16:40 11,8 C 92 % 991,8 hPa 0,0 l/m 22,7 km/h S-SO 167 0 min 0,000 mm 0,0 UV-I 36 W/m 10,5 C 4,9 C 45,9 km/h 100,00 %
05.06.2020 16:39 11,9 C 93 % 991,7 hPa 0,2 l/m 18,4 km/h SW 228 0 min 0,000 mm 0,0 UV-I 25 W/m 10,8 C 6,2 C 32,5 km/h 100,00 %
05.06.2020 16:38 11,9 C 93 % 991,7 hPa 0,2 l/m 9,2 km/h SW 221 0 min 0,000 mm 0,0 UV-I 13 W/m 10,8 C 10,1 C 19,1 km/h 96,15 %
05.06.2020 16:37 12,0 C 93 % 991,6 hPa 0,4 l/m 7,8 km/h SW 217 0 min 0,000 mm 0,0 UV-I 11 W/m 10,9 C 11,1 C 11,5 km/h 100,00 %
05.06.2020 16:36 12,0 C 93 % 991,6 hPa 0,4 l/m 10,2 km/h SW 217 0 min 0,000 mm 0,0 UV-I 12 W/m 10,9 C 9,7 C 15,3 km/h 100,00 %
05.06.2020 16:35 12,0 C 93 % 991,6 hPa 0,2 l/m 5,9 km/h S-SW 194 0 min 0,000 mm 0,0 UV-I 13 W/m 10,9 C 12,0 C 17,2 km/h 100,00 %
05.06.2020 16:34 12,1 C 93 % 991,6 hPa 0,2 l/m 8,6 km/h S-SW 198 0 min 0,000 mm 0,0 UV-I 15 W/m 11,0 C 10,7 C 17,2 km/h 100,00 %
05.06.2020 16:33 12,1 C 93 % 991,6 hPa 0,0 l/m 6,7 km/h S 182 0 min 0,000 mm 0,0 UV-I 18 W/m 11,0 C 11,9 C 15,3 km/h 100,00 %
05.06.2020 16:32 12,1 C 93 % 991,6 hPa 0,0 l/m 5,2 km/h S 176 0 min 0,000 mm 0,0 UV-I 23 W/m 11,0 C 12,1 C 7,7 km/h 100,00 %
05.06.2020 16:31 12,1 C 93 % 991,5 hPa 0,0 l/m 2,5 km/h S 169 0 min 0,000 mm 0,0 UV-I 30 W/m 11,0 C 12,1 C 5,7 km/h 100,00 %
05.06.2020 16:30 12,0 C 93 % 991,5 hPa 0,0 l/m 5,5 km/h S-SW 199 0 min 0,000 mm 0,0 UV-I 33 W/m 10,9 C 12,0 C 9,6 km/h 100,00 %
05.06.2020 16:29 12,0 C 93 % 991,4 hPa 0,0 l/m 6,7 km/h S-SW 195 0 min 0,000 mm 0,0 UV-I 51 W/m 10,9 C 11,8 C 9,6 km/h 96,15 %
05.06.2020 16:28 12,0 C 93 % 991,4 hPa 0,0 l/m 8,8 km/h SW 217 0 min 0,000 mm 0,0 UV-I 71 W/m 10,9 C 10,5 C 17,2 km/h 100,00 %
05.06.2020 16:27 12,0 C 93 % 991,4 hPa 0,0 l/m 10,0 km/h SW 219 0 min 0,000 mm 0,5 UV-I 97 W/m 10,9 C 9,8 C 19,1 km/h 100,00 %
05.06.2020 16:26 12,1 C 93 % 991,3 hPa 0,0 l/m 7,0 km/h S-SO 154 0 min 0,000 mm 0,7 UV-I 118 W/m 11,0 C 11,7 C 15,3 km/h 100,00 %
05.06.2020 16:25 12,1 C 93 % 991,3 hPa 0,0 l/m 6,5 km/h S-SO 157 0 min 0,000 mm 0,8 UV-I 124 W/m 11,0 C 12,1 C 11,5 km/h 100,00 %
05.06.2020 16:24 12,1 C 93 % 991,3 hPa 0,0 l/m 9,4 km/h S 171 0 min 0,000 mm 1,1 UV-I 173 W/m 11,0 C 10,2 C 13,4 km/h 100,00 %
05.06.2020 16:23 12,2 C 94 % 991,4 hPa 0,0 l/m 10,8 km/h S-SO 159 0 min 0,000 mm 1,3 UV-I 222 W/m 11,3 C 9,6 C 19,1 km/h 95,83 %
05.06.2020 16:22 12,3 C 94 % 991,4 hPa 0,0 l/m 8,5 km/h S 188 0 min 0,000 mm 1,3 UV-I 228 W/m 11,4 C 11,0 C 19,1 km/h 100,00 %
05.06.2020 16:21 12,3 C 94 % 991,3 hPa 0,0 l/m 8,5 km/h S-SW 195 0 min 0,000 mm 1,1 UV-I 180 W/m 11,4 C 11,0 C 15,3 km/h 100,00 %
05.06.2020 16:20 12,2 C 94 % 991,2 hPa 0,0 l/m 7,6 km/h S-SW 202 1 min 0,000 mm 1,2 UV-I 587 W/m 11,3 C 11,4 C 13,4 km/h 100,00 %
05.06.2020 16:19 12,2 C 95 % 991,2 hPa 0,0 l/m 9,2 km/h S 183 1 min 0,000 mm 2,0 UV-I 773 W/m 11,4 C 10,5 C 17,2 km/h 100,00 %
05.06.2020 16:18 12,1 C 95 % 991,2 hPa 0,0 l/m 8,0 km/h S-SW 194 1 min 0,000 mm 2,9 UV-I 773 W/m 11,3 C 11,1 C 13,4 km/h 100,00 %
05.06.2020 16:17 12,1 C 95 % 991,1 hPa 0,0 l/m 8,8 km/h S-SW 195 1 min 0,000 mm 2,7 UV-I 773 W/m 11,3 C 10,6 C 17,2 km/h 100,00 %
05.06.2020 16:16 12,0 C 95 % 991,2 hPa 0,0 l/m 10,4 km/h S 179 1 min 0,000 mm 3,1 UV-I 773 W/m 11,2 C 9,6 C 21,0 km/h 100,00 %
05.06.2020 16:15 11,8 C 95 % 991,2 hPa 0,0 l/m 7,4 km/h SO 137 1 min 0,000 mm 3,1 UV-I 773 W/m 11,0 C 11,1 C 13,4 km/h 100,00 %
05.06.2020 16:14 11,7 C 95 % 991,3 hPa 0,0 l/m 8,8 km/h SW 236 1 min 0,000 mm 3,1 UV-I 752 W/m 10,9 C 10,1 C 17,2 km/h 100,00 %
05.06.2020 16:13 11,7 C 94 % 991,3 hPa 0,0 l/m 10,0 km/h S 186 1 min 0,000 mm 3,0 UV-I 622 W/m 10,8 C 9,5 C 15,3 km/h 100,00 %
05.06.2020 16:12 11,7 C 95 % 991,3 hPa 0,0 l/m 14,0 km/h S 173 1 min 0,000 mm 3,0 UV-I 588 W/m 10,9 C 7,6 C 23,0 km/h 100,00 %
05.06.2020 16:11 11,6 C 95 % 991,4 hPa 0,0 l/m 13,2 km/h SO 144 1 min 0,000 mm 2,8 UV-I 637 W/m 10,8 C 7,8 C 19,1 km/h 100,00 %
05.06.2020 16:10 11,6 C 95 % 991,4 hPa 0,0 l/m 11,0 km/h S 177 1 min 0,000 mm 2,8 UV-I 835 W/m 10,8 C 8,8 C 19,1 km/h 100,00 %
05.06.2020 16:09 11,6 C 95 % 991,4 hPa 0,0 l/m 10,4 km/h S-SO 158 1 min 0,000 mm 3,0 UV-I 786 W/m 10,8 C 9,1 C 13,4 km/h 100,00 %
05.06.2020 16:08 11,6 C 95 % 991,4 hPa 0,0 l/m 13,3 km/h S-SO 161 1 min 0,000 mm 3,1 UV-I 824 W/m 10,8 C 7,8 C 19,1 km/h 100,00 %
05.06.2020 16:07 11,6 C 96 % 991,4 hPa 0,0 l/m 13,3 km/h S-SO 152 1 min 0,000 mm 3,2 UV-I 807 W/m 11,0 C 7,8 C 19,1 km/h 100,00 %
05.06.2020 16:06 11,6 C 96 % 991,4 hPa 0,0 l/m 19,1 km/h S 173 1 min 0,000 mm 3,2 UV-I 817 W/m 11,0 C 5,6 C 30,6 km/h 100,00 %
05.06.2020 16:05 11,6 C 96 % 991,5 hPa 0,0 l/m 8,9 km/h S 171 1 min 0,000 mm 3,0 UV-I 830 W/m 11,0 C 10,0 C 15,3 km/h 100,00 %
05.06.2020 16:04 11,5 C 96 % 991,5 hPa 0,0 l/m 9,6 km/h S 174 1 min 0,000 mm 3,1 UV-I 830 W/m 10,9 C 9,5 C 19,1 km/h 100,00 %
05.06.2020 16:03 11,4 C 96 % 991,5 hPa 0,0 l/m 8,5 km/h SO 146 1 min 0,000 mm 3,2 UV-I 830 W/m 10,8 C 10,0 C 19,1 km/h 100,00 %
05.06.2020 16:02 11,3 C 96 % 991,6 hPa 0,0 l/m 6,4 km/h S 169 1 min 0,000 mm 3,3 UV-I 848 W/m 10,7 C 11,3 C 15,3 km/h 100,00 %
05.06.2020 16:01 11,2 C 96 % 991,5 hPa 0,0 l/m 6,3 km/h SO 141 1 min 0,076 mm 3,3 UV-I 869 W/m 10,6 C 11,2 C 9,6 km/h 100,00 %
05.06.2020 16:00 11,1 C 96 % 991,6 hPa 0,0 l/m 4,7 km/h S-SO 158 1 min 0,000 mm 3,1 UV-I 896 W/m 10,5 C 11,1 C 9,6 km/h 100,00 %
05.06.2020 15:59 10,8 C 95 % 991,6 hPa 0,0 l/m 1,6 km/h S 171 1 min 0,000 mm 3,4 UV-I 908 W/m 10,0 C 10,8 C 7,7 km/h 100,00 %
05.06.2020 15:58 10,7 C 95 % 991,6 hPa 0,0 l/m 4,1 km/h S 170 1 min 0,000 mm 3,1 UV-I 673 W/m 9,9 C 10,7 C 7,7 km/h 100,00 %
05.06.2020 15:57 10,6 C 95 % 991,7 hPa 0,0 l/m 4,7 km/h S-SW 200 1 min 0,000 mm 2,8 UV-I 443 W/m 9,8 C 10,6 C 7,7 km/h 100,00 %
05.06.2020 15:56 10,5 C 95 % 991,7 hPa 0,0 l/m 4,2 km/h S 182 1 min 0,000 mm 1,7 UV-I 443 W/m 9,7 C 10,5 C 9,6 km/h 100,00 %
05.06.2020 15:55 10,4 C 95 % 991,7 hPa 0,0 l/m 5,4 km/h S 184 1 min 0,000 mm 1,9 UV-I 444 W/m 9,6 C 10,4 C 11,5 km/h 95,83 %
05.06.2020 15:54 10,4 C 95 % 991,7 hPa 0,0 l/m 9,2 km/h S-SO 155 1 min 0,000 mm 1,8 UV-I 437 W/m 9,6 C 8,5 C 13,4 km/h 100,00 %
05.06.2020 15:53 10,3 C 95 % 991,6 hPa 0,0 l/m 0,4 km/h S 169 0 min 0,000 mm 1,6 UV-I 276 W/m 9,5 C 10,3 C 1,9 km/h 100,00 %
05.06.2020 15:52 10,2 C 95 % 991,6 hPa 0,0 l/m 4,4 km/h S-SO 165 0 min 0,000 mm 1,4 UV-I 279 W/m 9,4 C 10,2 C 11,5 km/h 100,00 %
05.06.2020 15:51 10,2 C 95 % 991,6 hPa 0,0 l/m 5,3 km/h S-SO 167 1 min 0,000 mm 1,5 UV-I 291 W/m 9,4 C 10,2 C 11,5 km/h 100,00 %
05.06.2020 15:50 10,2 C 95 % 991,6 hPa 0,0 l/m 9,6 km/h S-SW 207 1 min 0,000 mm 1,5 UV-I 332 W/m 9,4 C 8,0 C 13,4 km/h 100,00 %
05.06.2020 15:49 10,2 C 95 % 991,5 hPa 0,0 l/m 5,7 km/h S 188 0 min 0,000 mm 1,5 UV-I 285 W/m 9,4 C 10,2 C 11,5 km/h 91,30 %
05.06.2020 15:48 10,1 C 95 % 991,6 hPa 0,0 l/m 0,3 km/h S 169 0 min 0,000 mm 1,3 UV-I 276 W/m 9,3 C 10,1 C 1,9 km/h 100,00 %
05.06.2020 15:47 10,1 C 95 % 991,6 hPa 0,0 l/m 6,0 km/h S 169 0 min 0,000 mm 1,1 UV-I 238 W/m 9,3 C 10,1 C 13,4 km/h 100,00 %
05.06.2020 15:46 10,1 C 95 % 991,6 hPa 0,0 l/m 4,7 km/h S 190 0 min 0,000 mm 1,0 UV-I 208 W/m 9,3 C 10,1 C 9,6 km/h 100,00 %
05.06.2020 15:45 10,0 C 95 % 991,6 hPa 0,0 l/m 4,7 km/h S-SO 155 0 min 0,000 mm 0,9 UV-I 187 W/m 9,2 C 10,0 C 9,6 km/h 100,00 %
05.06.2020 15:44 9,9 C 95 % 991,6 hPa 0,0 l/m 3,9 km/h S-SO 165 0 min 0,000 mm 0,8 UV-I 169 W/m 9,1 C 9,9 C 7,7 km/h 100,00 %
05.06.2020 15:43 9,9 C 95 % 991,6 hPa 0,0 l/m 6,4 km/h S 169 0 min 0,000 mm 0,8 UV-I 153 W/m 9,1 C 9,9 C 9,6 km/h 100,00 %
05.06.2020 15:42 9,9 C 95 % 991,6 hPa 0,0 l/m 3,2 km/h S 169 0 min 0,000 mm 0,7 UV-I 140 W/m 9,1 C 9,9 C 3,8 km/h 100,00 %
05.06.2020 15:41 9,9 C 95 % 991,6 hPa 0,0 l/m 5,8 km/h S-SO 160 0 min 0,000 mm 0,6 UV-I 128 W/m 9,1 C 9,9 C 11,5 km/h 100,00 %
05.06.2020 15:40 9,9 C 95 % 991,6 hPa 0,0 l/m 6,9 km/h S-SO 161 0 min 0,000 mm 0,6 UV-I 122 W/m 9,1 C 9,5 C 13,4 km/h 100,00 %
05.06.2020 15:39 9,9 C 95 % 991,6 hPa 0,0 l/m 7,2 km/h S-SW 195 0 min 0,000 mm 0,6 UV-I 116 W/m 9,1 C 9,3 C 15,3 km/h 100,00 %
05.06.2020 15:38 9,9 C 95 % 991,6 hPa 0,0 l/m 8,5 km/h S-SO 166 0 min 0,000 mm 0,6 UV-I 113 W/m 9,1 C 8,4 C 11,5 km/h 100,00 %
05.06.2020 15:37 9,9 C 95 % 991,6 hPa 0,0 l/m 5,8 km/h S-SO 150 0 min 0,000 mm 0,6 UV-I 113 W/m 9,1 C 9,9 C 11,5 km/h 95,83 %
05.06.2020 15:36 9,9 C 95 % 991,6 hPa 0,0 l/m 5,2 km/h S 180 0 min 0,000 mm 0,6 UV-I 114 W/m 9,1 C 9,9 C 9,6 km/h 100,00 %
05.06.2020 15:35 9,8 C 95 % 991,6 hPa 0,0 l/m 5,3 km/h S 178 0 min 0,000 mm 0,5 UV-I 110 W/m 9,0 C 9,8 C 9,6 km/h 95,83 %
05.06.2020 15:34 9,8 C 95 % 991,6 hPa 0,0 l/m 3,5 km/h S-SO 164 0 min 0,000 mm 0,5 UV-I 105 W/m 9,0 C 9,8 C 7,7 km/h 100,00 %
05.06.2020 15:33 9,8 C 95 % 991,6 hPa 0,0 l/m 1,8 km/h S 171 0 min 0,000 mm 0,5 UV-I 101 W/m 9,0 C 9,8 C 7,7 km/h 100,00 %
05.06.2020 15:32 9,8 C 95 % 991,6 hPa 0,0 l/m 6,6 km/h S-SO 165 0 min 0,000 mm 0,5 UV-I 98 W/m 9,0 C 9,7 C 9,6 km/h 100,00 %
05.06.2020 15:31 9,8 C 95 % 991,6 hPa 0,0 l/m 6,0 km/h S-SO 165 0 min 0,000 mm 0,5 UV-I 97 W/m 9,0 C 9,8 C 9,6 km/h 100,00 %
05.06.2020 15:30 9,8 C 95 % 991,7 hPa 0,0 l/m 5,9 km/h S 188 0 min 0,000 mm 0,5 UV-I 97 W/m 9,0 C 9,8 C 9,6 km/h 100,00 %
05.06.2020 15:29 9,8 C 95 % 991,6 hPa 0,0 l/m 5,5 km/h S-SO 147 0 min 0,000 mm 0,5 UV-I 99 W/m 9,0 C 9,8 C 9,6 km/h 100,00 %
05.06.2020 15:28 9,8 C 95 % 991,6 hPa 0,0 l/m 2,2 km/h S-SO 156 0 min 0,000 mm 0,5 UV-I 101 W/m 9,0 C 9,8 C 5,7 km/h 100,00 %
05.06.2020 15:27 9,8 C 95 % 991,7 hPa 0,0 l/m 5,0 km/h S 184 0 min 0,000 mm 0,5 UV-I 104 W/m 9,0 C 9,8 C 7,7 km/h 100,00 %
05.06.2020 15:26 9,8 C 95 % 991,6 hPa 0,0 l/m 7,1 km/h S-SO 168 0 min 0,000 mm 0,5 UV-I 104 W/m 9,0 C 9,3 C 11,5 km/h 95,83 %
05.06.2020 15:25 9,7 C 95 % 991,6 hPa 0,0 l/m 2,9 km/h S 178 0 min 0,000 mm 0,5 UV-I 105 W/m 8,9 C 9,7 C 5,7 km/h 100,00 %
05.06.2020 15:24 9,7 C 95 % 991,7 hPa 0,0 l/m 5,1 km/h S-SO 168 0 min 0,000 mm 0,6 UV-I 106 W/m 8,9 C 9,7 C 9,6 km/h 100,00 %
05.06.2020 15:23 9,7 C 95 % 991,7 hPa 0,0 l/m 6,9 km/h S 180 0 min 0,000 mm 0,6 UV-I 107 W/m 8,9 C 9,3 C 11,5 km/h 100,00 %
05.06.2020 15:22 9,7 C 95 % 991,6 hPa 0,0 l/m 6,2 km/h S-SO 166 0 min 0,000 mm 0,6 UV-I 106 W/m 8,9 C 9,7 C 11,5 km/h 100,00 %
05.06.2020 15:21 9,7 C 95 % 991,6 hPa 0,0 l/m 7,8 km/h S-SO 168 0 min 0,000 mm 0,6 UV-I 105 W/m 8,9 C 8,7 C 13,4 km/h 100,00 %
05.06.2020 15:20 9,7 C 95 % 991,6 hPa 0,0 l/m 5,8 km/h S-SO 151 0 min 0,000 mm 0,6 UV-I 104 W/m 8,9 C 9,7 C 9,6 km/h 100,00 %
05.06.2020 15:19 9,6 C 95 % 991,6 hPa 0,0 l/m 5,5 km/h S-SO 157 0 min 0,000 mm 0,5 UV-I 99 W/m 8,8 C 9,6 C 11,5 km/h 100,00 %
05.06.2020 15:18 9,6 C 95 % 991,6 hPa 0,0 l/m 9,6 km/h S 175 0 min 0,000 mm 0,5 UV-I 95 W/m 8,8 C 7,4 C 13,4 km/h 100,00 %
05.06.2020 15:17 9,6 C 95 % 991,6 hPa 0,0 l/m 6,3 km/h S-SO 167 0 min 0,000 mm 0,1 UV-I 86 W/m 8,8 C 9,6 C 9,6 km/h 100,00 %
05.06.2020 15:16 9,6 C 95 % 991,6 hPa 0,0 l/m 5,6 km/h S 180 0 min 0,000 mm 0,0 UV-I 78 W/m 8,8 C 9,6 C 9,6 km/h 100,00 %
05.06.2020 15:15 9,6 C 95 % 991,6 hPa 0,0 l/m 7,8 km/h S 180 0 min 0,000 mm 0,0 UV-I 68 W/m 8,8 C 8,6 C 11,5 km/h 100,00 %
05.06.2020 15:14 9,6 C 95 % 991,6 hPa 0,0 l/m 11,2 km/h S-SO 165 0 min 0,000 mm 0,0 UV-I 62 W/m 8,8 C 6,5 C 15,3 km/h 100,00 %
05.06.2020 15:13 9,6 C 95 % 991,6 hPa 0,0 l/m 8,7 km/h S-SO 167 0 min 0,000 mm 0,0 UV-I 57 W/m 8,8 C 8,0 C 17,2 km/h 100,00 %
05.06.2020 15:12 9,6 C 95 % 991,6 hPa 0,0 l/m 8,9 km/h S-SO 163 0 min 0,000 mm 0,0 UV-I 53 W/m 8,8 C 7,8 C 21,0 km/h 100,00 %
05.06.2020 15:11 9,6 C 95 % 991,5 hPa 0,0 l/m 5,6 km/h S 185 0 min 0,000 mm 0,0 UV-I 49 W/m 8,8 C 9,6 C 9,6 km/h 100,00 %
05.06.2020 15:10 9,6 C 95 % 991,5 hPa 0,0 l/m 5,2 km/h S 169 0 min 0,000 mm 0,0 UV-I 45 W/m 8,8 C 9,6 C 9,6 km/h 100,00 %
05.06.2020 15:09 9,6 C 95 % 991,5 hPa 0,0 l/m 7,7 km/h S-SO 150 0 min 0,000 mm 0,0 UV-I 41 W/m 8,8 C 8,6 C 15,3 km/h 100,00 %
05.06.2020 15:08 9,6 C 95 % 991,6 hPa 0,0 l/m 8,7 km/h S-SO 168 0 min 0,000 mm 0,0 UV-I 40 W/m 8,8 C 8,0 C 11,5 km/h 100,00 %
05.06.2020 15:07 9,6 C 95 % 991,7 hPa 0,0 l/m 7,8 km/h S 187 0 min 0,000 mm 0,0 UV-I 42 W/m 8,8 C 8,6 C 11,5 km/h 100,00 %
05.06.2020 15:06 9,6 C 95 % 991,7 hPa 0,0 l/m 8,7 km/h S 179 0 min 0,000 mm 0,0 UV-I 41 W/m 8,8 C 8,0 C 15,3 km/h 100,00 %
05.06.2020 15:05 9,6 C 95 % 991,7 hPa 0,0 l/m 6,4 km/h S 183 0 min 0,000 mm 0,0 UV-I 39 W/m 8,8 C 9,6 C 9,6 km/h 100,00 %
05.06.2020 15:04 9,6 C 95 % 991,6 hPa 0,0 l/m 6,0 km/h S 169 0 min 0,000 mm 0,0 UV-I 38 W/m 8,8 C 9,6 C 9,6 km/h 96,00 %
05.06.2020 15:03 9,6 C 95 % 991,6 hPa 0,0 l/m 10,2 km/h S-SO 165 0 min 0,000 mm 0,0 UV-I 37 W/m 8,8 C 7,0 C 13,4 km/h 100,00 %
05.06.2020 15:02 9,6 C 95 % 991,6 hPa 0,0 l/m 9,4 km/h S 183 0 min 0,000 mm 0,0 UV-I 39 W/m 8,8 C 7,5 C 15,3 km/h 95,65 %
05.06.2020 15:01 9,6 C 95 % 991,7 hPa 0,0 l/m 12,0 km/h S-SO 155 0 min 0,051 mm 0,0 UV-I 41 W/m 8,8 C 6,1 C 17,2 km/h 95,83 %
05.06.2020 15:00 9,6 C 95 % 991,7 hPa 0,0 l/m 11,8 km/h S 182 0 min 0,000 mm 0,0 UV-I 45 W/m 8,8 C 6,2 C 17,2 km/h 100,00 %
05.06.2020 14:59 9,6 C 95 % 991,6 hPa 0,0 l/m 11,5 km/h S 178 0 min 0,000 mm 0,0 UV-I 47 W/m 8,8 C 6,3 C 19,1 km/h 93,33 %
05.06.2020 14:58 9,7 C 95 % 991,6 hPa 0,0 l/m 12,6 km/h S-SO 147 0 min 0,000 mm 0,0 UV-I 47 W/m 8,9 C 5,9 C 19,1 km/h 100,00 %
05.06.2020 14:57 9,7 C 95 % 991,5 hPa 0,0 l/m 6,8 km/h S-SO 158 0 min 0,000 mm 0,0 UV-I 47 W/m 8,9 C 9,4 C 11,5 km/h 100,00 %
05.06.2020 14:56 9,7 C 95 % 991,5 hPa 0,0 l/m 5,0 km/h S 179 0 min 0,000 mm 0,0 UV-I 47 W/m 8,9 C 9,7 C 7,7 km/h 100,00 %
05.06.2020 14:55 9,7 C 95 % 991,3 hPa 0,0 l/m 3,4 km/h S 189 0 min 0,000 mm 0,0 UV-I 51 W/m 8,9 C 9,7 C 7,7 km/h 100,00 %
05.06.2020 14:54 9,7 C 95 % 991,3 hPa 0,0 l/m 8,0 km/h S-SO 158 0 min 0,000 mm 0,0 UV-I 54 W/m 8,9 C 8,5 C 13,4 km/h 100,00 %
05.06.2020 14:53 9,7 C 95 % 991,4 hPa 0,0 l/m 5,3 km/h S-SO 164 0 min 0,000 mm 0,0 UV-I 58 W/m 8,9 C 9,7 C 9,6 km/h 95,83 %
05.06.2020 14:52 9,7 C 95 % 991,4 hPa 0,0 l/m 5,2 km/h S-SO 164 0 min 0,000 mm 0,0 UV-I 62 W/m 8,9 C 9,7 C 9,6 km/h 100,00 %
05.06.2020 14:51 9,7 C 95 % 991,4 hPa 0,0 l/m 5,3 km/h S-SO 159 0 min 0,000 mm 0,0 UV-I 65 W/m 8,9 C 9,7 C 9,6 km/h 100,00 %
05.06.2020 14:50 9,7 C 95 % 991,4 hPa 0,0 l/m 3,9 km/h S 181 0 min 0,000 mm 0,0 UV-I 67 W/m 8,9 C 9,7 C 7,7 km/h 95,65 %
05.06.2020 14:49 9,7 C 95 % 991,3 hPa 0,0 l/m 4,6 km/h S-SO 147 0 min 0,000 mm 0,0 UV-I 71 W/m 8,9 C 9,7 C 7,7 km/h 100,00 %
05.06.2020 14:48 9,7 C 95 % 991,3 hPa 0,0 l/m 1,6 km/h S-SO 165 0 min 0,000 mm 0,3 UV-I 75 W/m 8,9 C 9,7 C 3,8 km/h 100,00 %
05.06.2020 14:47 9,7 C 95 % 991,2 hPa 0,0 l/m 5,5 km/h S-SO 165 0 min 0,000 mm 0,5 UV-I 78 W/m 8,9 C 9,7 C 9,6 km/h 100,00 %
05.06.2020 14:46 9,7 C 95 % 991,2 hPa 0,0 l/m 4,3 km/h S-SO 148 0 min 0,000 mm 0,5 UV-I 81 W/m 8,9 C 9,7 C 7,7 km/h 91,67 %
05.06.2020 14:45 9,7 C 95 % 991,2 hPa 0,0 l/m 6,5 km/h S-SO 163 0 min 0,000 mm 0,5 UV-I 81 W/m 8,9 C 9,7 C 11,5 km/h 100,00 %
05.06.2020 14:44 9,7 C 95 % 991,2 hPa 0,0 l/m 4,4 km/h S 186 0 min 0,000 mm 0,5 UV-I 82 W/m 8,9 C 9,7 C 5,7 km/h 100,00 %
05.06.2020 14:43 9,7 C 95 % 991,2 hPa 0,0 l/m 1,2 km/h SO 144 0 min 0,000 mm 0,5 UV-I 86 W/m 8,9 C 9,7 C 3,8 km/h 100,00 %
05.06.2020 14:42 9,7 C 95 % 991,3 hPa 0,0 l/m 2,0 km/h S 170 0 min 0,000 mm 0,5 UV-I 92 W/m 8,9 C 9,7 C 7,7 km/h 100,00 %
05.06.2020 14:41 9,7 C 95 % 991,4 hPa 0,0 l/m 3,2 km/h S 170 0 min 0,000 mm 0,6 UV-I 105 W/m 8,9 C 9,7 C 7,7 km/h 97,44 %
05.06.2020 14:40 9,6 C 95 % 991,4 hPa 0,0 l/m 1,7 km/h S-SO 163 0 min 0,000 mm 0,7 UV-I 112 W/m 8,8 C 9,6 C 3,8 km/h 99,50 %
05.06.2020 14:39 9,6 C 95 % 991,4 hPa 0,0 l/m 3,2 km/h S-SO 161 0 min 0,000 mm 0,7 UV-I 118 W/m 8,8 C 9,6 C 7,7 km/h 95,65 %
05.06.2020 14:38 9,6 C 94 % 991,3 hPa 0,0 l/m 2,0 km/h S-SO 151 0 min 0,000 mm 0,7 UV-I 122 W/m 8,7 C 9,6 C 3,8 km/h 100,00 %
05.06.2020 14:37 9,6 C 94 % 991,3 hPa 0,0 l/m 5,1 km/h SO 136 0 min 0,000 mm 0,7 UV-I 126 W/m 8,7 C 9,6 C 7,7 km/h 100,00 %
05.06.2020 14:36 9,6 C 94 % 991,2 hPa 0,0 l/m 5,7 km/h SO 146 0 min 0,000 mm 0,7 UV-I 126 W/m 8,7 C 9,6 C 13,4 km/h 100,00 %
05.06.2020 14:35 9,6 C 94 % 991,1 hPa 0,2 l/m 7,7 km/h O-SO 122 0 min 0,000 mm 0,7 UV-I 122 W/m 8,7 C 8,6 C 13,4 km/h 100,00 %
05.06.2020 14:34 9,6 C 94 % 991,2 hPa 0,0 l/m 6,5 km/h O-SO 116 0 min 0,000 mm 0,7 UV-I 110 W/m 8,7 C 9,6 C 11,5 km/h 95,83 %
05.06.2020 14:33 9,6 C 94 % 991,3 hPa 0,0 l/m 10,3 km/h O-SO 110 0 min 0,000 mm 0,6 UV-I 108 W/m 8,7 C 7,0 C 15,3 km/h 100,00 %
05.06.2020 14:32 9,5 C 94 % 991,4 hPa 0,0 l/m 6,1 km/h SO 125 0 min 0,000 mm 0,6 UV-I 104 W/m 8,6 C 9,5 C 11,5 km/h 100,00 %
05.06.2020 14:31 9,5 C 94 % 991,6 hPa 0,0 l/m 6,5 km/h O-SO 121 0 min 0,000 mm 0,6 UV-I 103 W/m 8,6 C 9,5 C 9,6 km/h 100,00 %
05.06.2020 14:30 9,4 C 94 % 991,7 hPa 0,0 l/m 4,0 km/h O-SO 115 0 min 0,000 mm 0,6 UV-I 104 W/m 8,5 C 9,4 C 11,5 km/h 100,00 %
05.06.2020 14:29 9,4 C 94 % 991,8 hPa 0,2 l/m 1,3 km/h S 169 0 min 0,000 mm 0,6 UV-I 104 W/m 8,5 C 9,4 C 3,8 km/h 100,00 %
05.06.2020 14:28 9,4 C 94 % 992,0 hPa 0,0 l/m 1,9 km/h S 169 0 min 0,000 mm 0,6 UV-I 101 W/m 8,5 C 9,4 C 7,7 km/h 100,00 %
05.06.2020 14:27 9,3 C 94 % 992,1 hPa 0,0 l/m 1,3 km/h S 169 0 min 0,000 mm 0,6 UV-I 96 W/m 8,4 C 9,3 C 3,8 km/h 100,00 %
05.06.2020 14:26 9,3 C 94 % 992,1 hPa 0,2 l/m 4,7 km/h SO 142 0 min 0,000 mm 0,6 UV-I 92 W/m 8,4 C 9,3 C 7,7 km/h 100,00 %
05.06.2020 14:25 9,3 C 94 % 992,2 hPa 0,0 l/m 3,7 km/h S-SW 195 0 min 0,000 mm 0,6 UV-I 91 W/m 8,4 C 9,3 C 5,7 km/h 100,00 %
05.06.2020 14:24 9,3 C 94 % 992,3 hPa 0,0 l/m 3,2 km/h S 171 0 min 0,000 mm 0,6 UV-I 92 W/m 8,4 C 9,3 C 7,7 km/h 100,00 %
05.06.2020 14:23 9,2 C 94 % 992,3 hPa 0,0 l/m 3,7 km/h S 188 0 min 0,000 mm 0,6 UV-I 97 W/m 8,3 C 9,2 C 9,6 km/h 100,00 %
05.06.2020 14:22 9,2 C 94 % 992,4 hPa 0,0 l/m 5,4 km/h S 176 0 min 0,000 mm 0,6 UV-I 102 W/m 8,3 C 9,2 C 11,5 km/h 95,65 %
05.06.2020 14:21 9,2 C 94 % 992,4 hPa 0,2 l/m 3,6 km/h S 171 0 min 0,000 mm 0,6 UV-I 104 W/m 8,3 C 9,2 C 9,6 km/h 100,00 %
05.06.2020 14:20 9,2 C 94 % 992,5 hPa 0,0 l/m 4,5 km/h S 173 0 min 0,000 mm 0,6 UV-I 99 W/m 8,3 C 9,2 C 9,6 km/h 100,00 %
05.06.2020 14:19 9,2 C 94 % 992,5 hPa 0,0 l/m 4,5 km/h S 172 0 min 0,000 mm 0,5 UV-I 89 W/m 8,3 C 9,2 C 7,7 km/h 100,00 %
05.06.2020 14:18 9,2 C 94 % 992,5 hPa 0,0 l/m 10,0 km/h S-SO 163 0 min 0,000 mm 0,5 UV-I 82 W/m 8,3 C 6,7 C 19,1 km/h 100,00 %
05.06.2020 14:17 9,2 C 94 % 992,6 hPa 0,2 l/m 2,9 km/h S 171 0 min 0,000 mm 0,5 UV-I 78 W/m 8,3 C 9,2 C 7,7 km/h 100,00 %
05.06.2020 14:16 9,2 C 94 % 992,6 hPa 0,0 l/m 3,8 km/h S 190 0 min 0,000 mm 0,5 UV-I 79 W/m 8,3 C 9,2 C 7,7 km/h 95,65 %
05.06.2020 14:15 9,2 C 94 % 992,6 hPa 0,0 l/m 2,2 km/h S 183 0 min 0,000 mm 0,5 UV-I 79 W/m 8,3 C 9,2 C 5,7 km/h 100,00 %
05.06.2020 14:14 9,2 C 94 % 992,6 hPa 0,0 l/m 2,6 km/h S 183 0 min 0,000 mm 0,5 UV-I 81 W/m 8,3 C 9,2 C 5,7 km/h 100,00 %
05.06.2020 14:13 9,1 C 94 % 992,6 hPa 0,2 l/m 5,5 km/h S 179 0 min 0,000 mm 0,5 UV-I 81 W/m 8,2 C 9,1 C 9,6 km/h 100,00 %
05.06.2020 14:12 9,2 C 94 % 992,6 hPa 0,0 l/m 8,7 km/h S-SW 208 0 min 0,000 mm 0,5 UV-I 80 W/m 8,3 C 7,5 C 17,2 km/h 100,00 %
05.06.2020 14:11 9,1 C 94 % 992,5 hPa 0,2 l/m 3,0 km/h S 175 0 min 0,000 mm 0,5 UV-I 78 W/m 8,2 C 9,1 C 5,7 km/h 100,00 %
05.06.2020 14:10 9,1 C 93 % 992,6 hPa 0,0 l/m 2,6 km/h S 179 0 min 0,000 mm 0,5 UV-I 76 W/m 8,0 C 9,1 C 5,7 km/h 100,00 %
05.06.2020 14:09 9,1 C 93 % 992,7 hPa 0,2 l/m 1,2 km/h S 182 0 min 0,000 mm 0,3 UV-I 71 W/m 8,0 C 9,1 C 3,8 km/h 100,00 %
05.06.2020 14:08 9,1 C 93 % 992,6 hPa 0,0 l/m 3,5 km/h S 182 0 min 0,000 mm 0,0 UV-I 67 W/m 8,0 C 9,1 C 5,7 km/h 100,00 %
05.06.2020 14:07 9,1 C 93 % 992,6 hPa 0,2 l/m 0,3 km/h SO 146 0 min 0,000 mm 0,0 UV-I 63 W/m 8,0 C 9,1 C 3,8 km/h 100,00 %
05.06.2020 14:06 9,1 C 93 % 992,7 hPa 0,0 l/m 2,5 km/h SO 145 0 min 0,000 mm 0,0 UV-I 60 W/m 8,0 C 9,1 C 5,7 km/h 100,00 %
05.06.2020 14:05 9,1 C 93 % 992,7 hPa 0,2 l/m 2,7 km/h S 174 0 min 0,000 mm 0,0 UV-I 55 W/m 8,0 C 9,1 C 3,8 km/h 100,00 %
05.06.2020 14:04 9,1 C 93 % 992,7 hPa 0,0 l/m 3,3 km/h S 183 0 min 0,000 mm 0,0 UV-I 49 W/m 8,0 C 9,1 C 5,7 km/h 100,00 %
05.06.2020 14:03 9,1 C 93 % 992,6 hPa 0,0 l/m 3,2 km/h S 169 0 min 0,000 mm 0,0 UV-I 49 W/m 8,0 C 9,1 C 7,7 km/h 100,00 %
05.06.2020 14:02 9,1 C 93 % 992,7 hPa 0,0 l/m 2,9 km/h S-SW 192 0 min 0,000 mm 0,0 UV-I 49 W/m 8,0 C 9,1 C 7,7 km/h 100,00 %
05.06.2020 14:01 9,1 C 93 % 992,6 hPa 0,2 l/m 4,1 km/h S-SW 192 0 min 0,000 mm 0,0 UV-I 49 W/m 8,0 C 9,1 C 7,7 km/h 100,00 %
05.06.2020 14:00 9,1 C 93 % 992,7 hPa 0,0 l/m 2,0 km/h S-SO 153 0 min 0,026 mm 0,0 UV-I 48 W/m 8,0 C 9,1 C 5,7 km/h 100,00 %
05.06.2020 13:59 9,1 C 93 % 992,7 hPa 0,0 l/m 2,2 km/h S 186 0 min 0,000 mm 0,0 UV-I 47 W/m 8,0 C 9,1 C 5,7 km/h 95,65 %
05.06.2020 13:58 9,1 C 93 % 992,7 hPa 0,2 l/m 5,4 km/h S-SW 208 0 min 0,000 mm 0,0 UV-I 49 W/m 8,0 C 9,1 C 11,5 km/h 100,00 %
05.06.2020 13:57 9,1 C 93 % 992,7 hPa 0,0 l/m 5,5 km/h SW 217 0 min 0,000 mm 0,0 UV-I 50 W/m 8,0 C 9,1 C 11,5 km/h 100,00 %
05.06.2020 13:56 9,1 C 93 % 992,7 hPa 0,2 l/m 4,5 km/h S 188 0 min 0,000 mm 0,0 UV-I 52 W/m 8,0 C 9,1 C 9,6 km/h 100,00 %
05.06.2020 13:55 9,1 C 92 % 992,7 hPa 0,0 l/m 7,9 km/h S-SW 206 0 min 0,000 mm 0,0 UV-I 52 W/m 7,9 C 8,0 C 13,4 km/h 100,00 %
05.06.2020 13:54 9,1 C 92 % 992,7 hPa 0,2 l/m 3,9 km/h SW 219 0 min 0,000 mm 0,0 UV-I 51 W/m 7,9 C 9,1 C 7,7 km/h 100,00 %
05.06.2020 13:53 9,1 C 92 % 992,6 hPa 0,0 l/m 4,0 km/h SW 220 0 min 0,000 mm 0,0 UV-I 49 W/m 7,9 C 9,1 C 7,7 km/h 100,00 %
05.06.2020 13:52 9,1 C 92 % 992,6 hPa 0,2 l/m 7,8 km/h SW 217 0 min 0,000 mm 0,0 UV-I 49 W/m 7,9 C 8,1 C 11,5 km/h 100,00 %
05.06.2020 13:51 9,1 C 92 % 992,5 hPa 0,0 l/m 5,8 km/h S-SW 200 0 min 0,000 mm 0,0 UV-I 50 W/m 7,9 C 9,1 C 7,7 km/h 100,00 %
05.06.2020 13:50 9,1 C 92 % 992,5 hPa 0,0 l/m 4,5 km/h S-SW 209 0 min 0,000 mm 0,0 UV-I 54 W/m 7,9 C 9,1 C 7,7 km/h 100,00 %
05.06.2020 13:49 9,1 C 92 % 992,4 hPa 0,2 l/m 2,7 km/h S 186 0 min 0,000 mm 0,0 UV-I 59 W/m 7,9 C 9,1 C 5,7 km/h 100,00 %
05.06.2020 13:48 9,1 C 92 % 992,4 hPa 0,0 l/m 6,5 km/h SW 214 0 min 0,000 mm 0,0 UV-I 65 W/m 7,9 C 9,1 C 13,4 km/h 100,00 %
05.06.2020 13:47 9,1 C 92 % 992,4 hPa 0,0 l/m 7,3 km/h SW 218 0 min 0,000 mm 0,5 UV-I 70 W/m 7,9 C 8,4 C 11,5 km/h 100,00 %
05.06.2020 13:46 9,1 C 92 % 992,5 hPa 0,2 l/m 2,6 km/h S-SW 196 0 min 0,000 mm 0,5 UV-I 74 W/m 7,9 C 9,1 C 5,7 km/h 100,00 %
05.06.2020 13:45 9,1 C 92 % 992,5 hPa 0,0 l/m 1,9 km/h S-SW 192 0 min 0,000 mm 0,5 UV-I 75 W/m 7,9 C 9,1 C 5,7 km/h 100,00 %
05.06.2020 13:44 9,0 C 91 % 992,5 hPa 0,0 l/m 0,0 km/h S-SW 205 0 min 0,000 mm 0,5 UV-I 72 W/m 7,6 C 9,0 C 0,0 km/h 100,00 %
05.06.2020 13:43 9,0 C 92 % 992,5 hPa 0,2 l/m 2,8 km/h S-SW 205 0 min 0,000 mm 0,5 UV-I 70 W/m 7,8 C 9,0 C 3,8 km/h 100,00 %
05.06.2020 13:42 8,9 C 91 % 992,6 hPa 0,0 l/m 4,4 km/h SW 216 0 min 0,000 mm 0,5 UV-I 70 W/m 7,5 C 8,9 C 7,7 km/h 100,00 %
05.06.2020 13:41 8,9 C 91 % 992,6 hPa 0,0 l/m 3,3 km/h SW 214 0 min 0,000 mm 0,5 UV-I 73 W/m 7,5 C 8,9 C 5,7 km/h 100,00 %
05.06.2020 13:40 8,9 C 91 % 992,6 hPa 0,2 l/m 4,7 km/h SW 215 0 min 0,000 mm 0,5 UV-I 82 W/m 7,5 C 8,9 C 7,7 km/h 100,00 %
05.06.2020 13:39 8,9 C 91 % 992,6 hPa 0,0 l/m 4,6 km/h S-SW 213 0 min 0,000 mm 0,6 UV-I 87 W/m 7,5 C 8,9 C 7,7 km/h 100,00 %
05.06.2020 13:38 8,9 C 91 % 992,6 hPa 0,2 l/m 7,3 km/h SW 219 0 min 0,000 mm 0,6 UV-I 89 W/m 7,5 C 8,2 C 11,5 km/h 100,00 %
05.06.2020 13:37 8,9 C 91 % 992,7 hPa 0,0 l/m 14,4 km/h SW 227 0 min 0,000 mm 0,6 UV-I 89 W/m 7,5 C 4,1 C 23,0 km/h 100,00 %
05.06.2020 13:36 8,9 C 90 % 992,6 hPa 0,2 l/m 9,2 km/h S-SW 212 0 min 0,000 mm 0,7 UV-I 99 W/m 7,4 C 6,9 C 11,5 km/h 99,48 %
05.06.2020 13:35 8,9 C 90 % 992,6 hPa 0,2 l/m 6,0 km/h S 186 0 min 0,000 mm 0,7 UV-I 111 W/m 7,4 C 8,9 C 9,6 km/h 100,00 %
05.06.2020 13:34 8,9 C 90 % 992,5 hPa 0,0 l/m 12,2 km/h SW 222 0 min 0,000 mm 0,7 UV-I 112 W/m 7,4 C 5,1 C 17,2 km/h 100,00 %
05.06.2020 13:33 8,9 C 90 % 992,5 hPa 0,2 l/m 6,8 km/h SW 222 0 min 0,000 mm 0,7 UV-I 97 W/m 7,4 C 8,6 C 19,1 km/h 100,00 %
05.06.2020 13:32 8,9 C 90 % 992,6 hPa 0,0 l/m 6,5 km/h SW 218 0 min 0,000 mm 0,5 UV-I 80 W/m 7,4 C 8,9 C 11,5 km/h 100,00 %
05.06.2020 13:31 8,9 C 89 % 992,5 hPa 0,2 l/m 7,9 km/h S 190 0 min 0,000 mm 0,1 UV-I 69 W/m 7,2 C 7,8 C 15,3 km/h 100,00 %
05.06.2020 13:30 8,9 C 89 % 992,6 hPa 0,2 l/m 9,9 km/h W-SW 245 0 min 0,000 mm 0,0 UV-I 66 W/m 7,2 C 6,4 C 19,1 km/h 96,55 %
05.06.2020 13:29 8,9 C 89 % 992,7 hPa 0,0 l/m 5,4 km/h W-SW 249 0 min 0,000 mm 0,0 UV-I 63 W/m 7,2 C 8,9 C 11,5 km/h 100,00 %
05.06.2020 13:28 9,0 C 89 % 992,7 hPa 0,2 l/m 8,6 km/h SW 217 0 min 0,000 mm 0,2 UV-I 66 W/m 7,3 C 7,4 C 15,3 km/h 100,00 %
05.06.2020 13:27 9,1 C 88 % 992,8 hPa 0,2 l/m 6,8 km/h SW 217 0 min 0,000 mm 0,5 UV-I 67 W/m 7,2 C 8,8 C 11,5 km/h 100,00 %
05.06.2020 13:26 9,2 C 87 % 992,7 hPa 0,2 l/m 9,7 km/h SW 225 0 min 0,000 mm 0,5 UV-I 66 W/m 7,2 C 6,9 C 17,2 km/h 100,00 %
05.06.2020 13:25 9,3 C 87 % 992,8 hPa 0,4 l/m 7,9 km/h S-SW 210 0 min 0,000 mm 0,0 UV-I 60 W/m 7,2 C 8,2 C 15,3 km/h 100,00 %
05.06.2020 13:24 9,4 C 86 % 992,8 hPa 0,4 l/m 10,1 km/h S-SW 207 0 min 0,000 mm 0,0 UV-I 56 W/m 7,2 C 6,9 C 15,3 km/h 100,00 %
05.06.2020 13:23 9,6 C 86 % 992,9 hPa 0,2 l/m 19,0 km/h SW 214 0 min 0,000 mm 0,0 UV-I 58 W/m 7,4 C 3,1 C 34,4 km/h 100,00 %
05.06.2020 13:22 9,8 C 85 % 992,9 hPa 0,4 l/m 11,6 km/h S-SW 209 0 min 0,000 mm 0,0 UV-I 55 W/m 7,4 C 6,5 C 15,3 km/h 100,00 %
05.06.2020 13:21 10,1 C 85 % 992,9 hPa 0,4 l/m 17,2 km/h SW 217 0 min 0,000 mm 0,0 UV-I 48 W/m 7,7 C 4,4 C 30,6 km/h 100,00 %
05.06.2020 13:20 10,3 C 85 % 993,0 hPa 0,4 l/m 9,6 km/h SW 215 0 min 0,000 mm 0,0 UV-I 38 W/m 7,9 C 8,2 C 17,2 km/h 100,00 %
05.06.2020 13:19 10,6 C 85 % 993,0 hPa 0,6 l/m 17,3 km/h SW 217 0 min 0,000 mm 0,0 UV-I 31 W/m 8,2 C 5,0 C 32,5 km/h 100,00 %
05.06.2020 13:18 10,9 C 85 % 993,0 hPa 0,2 l/m 6,8 km/h S 191 0 min 0,000 mm 0,0 UV-I 27 W/m 8,5 C 10,6 C 15,3 km/h 100,00 %
05.06.2020 13:17 11,2 C 85 % 992,9 hPa 0,2 l/m 8,5 km/h W-NW 288 0 min 0,000 mm 0,0 UV-I 23 W/m 8,8 C 9,8 C 21,0 km/h 96,15 %
05.06.2020 13:16 11,4 C 85 % 992,9 hPa 0,0 l/m 8,4 km/h SW 224 0 min 0,000 mm 0,0 UV-I 21 W/m 9,0 C 10,1 C 13,4 km/h 100,00 %
05.06.2020 13:15 11,8 C 85 % 992,9 hPa 0,0 l/m 13,8 km/h W-SW 245 0 min 0,000 mm 0,0 UV-I 19 W/m 9,4 C 7,8 C 24,9 km/h 100,00 %
05.06.2020 13:14 12,2 C 88 % 992,8 hPa 0,2 l/m 12,8 km/h SW 225 0 min 0,000 mm 0,0 UV-I 19 W/m 10,3 C 8,7 C 21,0 km/h 100,00 %
05.06.2020 13:13 12,3 C 88 % 992,8 hPa 0,0 l/m 10,8 km/h SW 223 0 min 0,000 mm 0,0 UV-I 20 W/m 10,4 C 9,7 C 15,3 km/h 100,00 %
05.06.2020 13:12 12,3 C 88 % 992,5 hPa 0,0 l/m 13,6 km/h W-SW 256 0 min 0,000 mm 0,0 UV-I 27 W/m 10,4 C 8,5 C 21,0 km/h 100,00 %
05.06.2020 13:11 12,4 C 88 % 992,4 hPa 0,0 l/m 7,8 km/h SW 234 0 min 0,000 mm 0,0 UV-I 28 W/m 10,5 C 11,5 C 15,3 km/h 100,00 %
05.06.2020 13:10 12,4 C 88 % 992,3 hPa 0,0 l/m 7,0 km/h S-SW 194 0 min 0,000 mm 0,0 UV-I 38 W/m 10,5 C 12,0 C 15,3 km/h 100,00 %
05.06.2020 13:09 12,4 C 88 % 992,1 hPa 0,0 l/m 7,6 km/h S 170 0 min 0,000 mm 0,0 UV-I 50 W/m 10,5 C 11,6 C 19,1 km/h 100,00 %
05.06.2020 13:08 12,4 C 87 % 992,1 hPa 0,0 l/m 12,5 km/h SW 225 0 min 0,000 mm 0,4 UV-I 70 W/m 10,3 C 9,1 C 23,0 km/h 100,00 %
05.06.2020 13:07 12,4 C 87 % 992,1 hPa 0,0 l/m 12,2 km/h S-SO 167 0 min 0,000 mm 0,1 UV-I 68 W/m 10,3 C 9,2 C 21,0 km/h 100,00 %
05.06.2020 13:06 12,5 C 87 % 992,0 hPa 0,0 l/m 13,7 km/h S-SO 165 0 min 0,000 mm 0,5 UV-I 78 W/m 10,4 C 8,7 C 23,0 km/h 100,00 %
05.06.2020 13:05 12,6 C 87 % 992,0 hPa 0,2 l/m 10,4 km/h S 169 0 min 0,000 mm 0,6 UV-I 83 W/m 10,5 C 10,3 C 19,1 km/h 100,00 %
05.06.2020 13:04 12,6 C 87 % 992,0 hPa 0,0 l/m 14,3 km/h S-SW 198 0 min 0,000 mm 0,2 UV-I 62 W/m 10,5 C 8,6 C 21,0 km/h 100,00 %
05.06.2020 13:03 12,6 C 86 % 992,0 hPa 0,0 l/m 19,1 km/h S-SO 161 0 min 0,000 mm 0,0 UV-I 42 W/m 10,3 C 6,9 C 30,6 km/h 100,00 %
05.06.2020 13:02 12,7 C 86 % 991,9 hPa 0,0 l/m 17,7 km/h S 186 0 min 0,000 mm 0,0 UV-I 44 W/m 10,4 C 7,5 C 24,9 km/h 100,00 %
05.06.2020 13:01 12,7 C 86 % 991,9 hPa 0,0 l/m 12,8 km/h S-SO 150 0 min 0,101 mm 0,0 UV-I 64 W/m 10,4 C 9,3 C 17,2 km/h 100,00 %
05.06.2020 13:00 12,7 C 86 % 991,8 hPa 0,0 l/m 15,6 km/h S-SO 150 0 min 0,000 mm 0,5 UV-I 80 W/m 10,4 C 8,2 C 21,0 km/h 96,15 %
05.06.2020 12:59 12,8 C 86 % 991,8 hPa 0,0 l/m 19,7 km/h S-SO 150 0 min 0,000 mm 0,7 UV-I 101 W/m 10,5 C 7,0 C 30,6 km/h 100,00 %
05.06.2020 12:58 12,8 C 86 % 991,8 hPa 0,2 l/m 22,5 km/h S 180 0 min 0,000 mm 0,6 UV-I 95 W/m 10,5 C 6,2 C 32,5 km/h 96,97 %
05.06.2020 12:57 12,8 C 86 % 991,7 hPa 0,0 l/m 9,9 km/h SW 215 0 min 0,000 mm 0,8 UV-I 129 W/m 10,5 C 10,7 C 15,3 km/h 100,00 %
05.06.2020 12:56 12,8 C 86 % 991,7 hPa 0,0 l/m 12,5 km/h S 178 0 min 0,000 mm 1,0 UV-I 154 W/m 10,5 C 9,5 C 21,0 km/h 100,00 %
05.06.2020 12:55 12,8 C 86 % 991,8 hPa 0,0 l/m 11,4 km/h S 178 0 min 0,000 mm 1,0 UV-I 161 W/m 10,5 C 10,0 C 23,0 km/h 100,00 %
05.06.2020 12:54 12,7 C 86 % 991,8 hPa 0,0 l/m 12,0 km/h S 179 0 min 0,000 mm 1,1 UV-I 171 W/m 10,4 C 9,6 C 17,2 km/h 100,00 %
05.06.2020 12:53 12,7 C 86 % 991,8 hPa 0,0 l/m 14,9 km/h SO 132 0 min 0,000 mm 1,1 UV-I 174 W/m 10,4 C 8,4 C 24,9 km/h 93,33 %
05.06.2020 12:52 12,7 C 87 % 991,8 hPa 0,0 l/m 14,6 km/h S-SW 194 0 min 0,000 mm 1,1 UV-I 166 W/m 10,6 C 8,6 C 24,9 km/h 100,00 %
05.06.2020 12:51 12,7 C 86 % 991,8 hPa 0,0 l/m 11,3 km/h S-SO 150 0 min 0,000 mm 1,2 UV-I 188 W/m 10,4 C 9,9 C 24,9 km/h 100,00 %
05.06.2020 12:50 12,7 C 86 % 991,8 hPa 0,0 l/m 6,9 km/h S 188 0 min 0,000 mm 1,1 UV-I 180 W/m 10,4 C 12,4 C 13,4 km/h 95,83 %
05.06.2020 12:49 12,7 C 86 % 991,8 hPa 0,0 l/m 9,6 km/h S-SW 200 0 min 0,000 mm 1,0 UV-I 160 W/m 10,4 C 10,8 C 15,3 km/h 96,15 %
05.06.2020 12:48 12,7 C 86 % 991,8 hPa 0,0 l/m 12,9 km/h S-SO 152 0 min 0,000 mm 0,9 UV-I 139 W/m 10,4 C 9,2 C 19,1 km/h 100,00 %
05.06.2020 12:47 12,7 C 86 % 991,9 hPa 0,0 l/m 13,9 km/h S 169 0 min 0,000 mm 0,8 UV-I 137 W/m 10,4 C 8,8 C 21,0 km/h 100,00 %
05.06.2020 12:46 12,7 C 86 % 991,9 hPa 0,0 l/m 13,7 km/h S-SO 167 0 min 0,000 mm 0,8 UV-I 136 W/m 10,4 C 8,9 C 30,6 km/h 100,00 %
05.06.2020 12:45 12,7 C 86 % 991,9 hPa 0,0 l/m 16,2 km/h S 183 0 min 0,000 mm 0,8 UV-I 133 W/m 10,4 C 8,0 C 26,8 km/h 100,00 %
05.06.2020 12:44 12,7 C 86 % 991,9 hPa 0,0 l/m 21,0 km/h S-SO 167 0 min 0,000 mm 0,9 UV-I 138 W/m 10,4 C 6,5 C 34,4 km/h 100,00 %
05.06.2020 12:43 12,7 C 86 % 992,0 hPa 0,0 l/m 16,3 km/h S 185 0 min 0,000 mm 0,8 UV-I 134 W/m 10,4 C 7,9 C 26,8 km/h 100,00 %
05.06.2020 12:42 12,7 C 86 % 992,0 hPa 0,0 l/m 18,1 km/h S-SO 165 0 min 0,000 mm 0,8 UV-I 122 W/m 10,4 C 7,3 C 28,7 km/h 93,33 %
05.06.2020 12:41 12,7 C 86 % 992,0 hPa 0,0 l/m 19,5 km/h S-SW 192 0 min 0,000 mm 0,6 UV-I 105 W/m 10,4 C 6,9 C 30,6 km/h 100,00 %
05.06.2020 12:40 12,7 C 86 % 992,0 hPa 0,0 l/m 19,0 km/h S 169 0 min 0,000 mm 0,6 UV-I 103 W/m 10,4 C 7,1 C 28,7 km/h 100,00 %
05.06.2020 12:39 12,7 C 86 % 992,0 hPa 0,0 l/m 18,8 km/h S-SO 167 0 min 0,000 mm 0,6 UV-I 99 W/m 10,4 C 7,1 C 30,6 km/h 100,00 %
05.06.2020 12:38 12,7 C 86 % 992,0 hPa 0,0 l/m 17,6 km/h S-SO 158 0 min 0,000 mm 0,6 UV-I 99 W/m 10,4 C 7,5 C 24,9 km/h 100,00 %
05.06.2020 12:37 12,7 C 86 % 992,0 hPa 0,0 l/m 17,9 km/h S-SO 164 0 min 0,000 mm 0,6 UV-I 98 W/m 10,4 C 7,4 C 30,6 km/h 100,00 %
05.06.2020 12:36 12,7 C 86 % 992,1 hPa 0,0 l/m 17,5 km/h S 173 0 min 0,000 mm 0,6 UV-I 94 W/m 10,4 C 7,5 C 30,6 km/h 100,00 %
05.06.2020 12:35 12,7 C 86 % 992,0 hPa 0,0 l/m 23,8 km/h S-SW 204 0 min 0,000 mm 0,7 UV-I 99 W/m 10,4 C 5,8 C 32,5 km/h 100,00 %
05.06.2020 12:34 12,7 C 87 % 992,0 hPa 0,0 l/m 19,9 km/h S 186 0 min 0,000 mm 0,8 UV-I 114 W/m 10,6 C 6,8 C 26,8 km/h 100,00 %
05.06.2020 12:33 12,7 C 87 % 992,1 hPa 0,0 l/m 16,1 km/h S 182 0 min 0,000 mm 0,8 UV-I 126 W/m 10,6 C 8,0 C 23,0 km/h 100,00 %
05.06.2020 12:32 12,7 C 87 % 992,1 hPa 0,0 l/m 11,1 km/h S-SW 194 0 min 0,000 mm 0,8 UV-I 131 W/m 10,6 C 10,0 C 19,1 km/h 96,30 %
05.06.2020 12:31 12,7 C 87 % 992,1 hPa 0,0 l/m 15,8 km/h S 175 0 min 0,000 mm 0,9 UV-I 144 W/m 10,6 C 8,1 C 23,0 km/h 100,00 %
05.06.2020 12:30 12,7 C 87 % 992,1 hPa 0,0 l/m 18,7 km/h S 180 0 min 0,000 mm 1,0 UV-I 164 W/m 10,6 C 7,2 C 30,6 km/h 100,00 %
05.06.2020 12:29 12,6 C 87 % 992,1 hPa 0,0 l/m 18,4 km/h S 169 0 min 0,000 mm 1,0 UV-I 162 W/m 10,5 C 7,1 C 32,5 km/h 96,55 %
05.06.2020 12:28 12,6 C 87 % 992,1 hPa 0,0 l/m 22,2 km/h S-SO 163 0 min 0,000 mm 1,0 UV-I 166 W/m 10,5 C 6,0 C 38,3 km/h 100,00 %
05.06.2020 12:27 12,6 C 88 % 992,1 hPa 0,0 l/m 17,3 km/h S 182 0 min 0,000 mm 1,1 UV-I 185 W/m 10,7 C 7,5 C 24,9 km/h 100,00 %
05.06.2020 12:26 12,6 C 88 % 992,2 hPa 0,0 l/m 22,5 km/h S-SW 202 0 min 0,000 mm 1,1 UV-I 189 W/m 10,7 C 6,0 C 30,6 km/h 95,65 %
05.06.2020 12:25 12,6 C 88 % 992,2 hPa 0,0 l/m 13,1 km/h S-SO 155 0 min 0,000 mm 1,0 UV-I 181 W/m 10,7 C 9,0 C 19,1 km/h 100,00 %
05.06.2020 12:24 12,6 C 88 % 992,2 hPa 0,0 l/m 22,5 km/h S 190 0 min 0,000 mm 1,1 UV-I 190 W/m 10,7 C 6,0 C 34,4 km/h 96,15 %
05.06.2020 12:23 12,7 C 89 % 992,2 hPa 0,0 l/m 18,6 km/h S-SO 167 0 min 0,000 mm 1,2 UV-I 193 W/m 10,9 C 7,2 C 24,9 km/h 100,00 %
05.06.2020 12:22 12,7 C 89 % 992,2 hPa 0,0 l/m 18,1 km/h S-SW 213 0 min 0,000 mm 1,5 UV-I 243 W/m 10,9 C 7,3 C 30,6 km/h 100,00 %
05.06.2020 12:21 12,7 C 90 % 992,3 hPa 0,0 l/m 15,2 km/h S-SO 165 0 min 0,000 mm 1,5 UV-I 250 W/m 11,1 C 8,3 C 26,8 km/h 100,00 %
05.06.2020 12:20 12,7 C 90 % 992,2 hPa 0,0 l/m 19,6 km/h S-SO 149 0 min 0,000 mm 1,2 UV-I 202 W/m 11,1 C 6,9 C 32,5 km/h 100,00 %
05.06.2020 12:19 12,7 C 90 % 992,3 hPa 0,0 l/m 13,3 km/h S-SO 168 0 min 0,000 mm 1,3 UV-I 228 W/m 11,1 C 9,1 C 24,9 km/h 100,00 %
05.06.2020 12:18 12,7 C 90 % 992,2 hPa 0,0 l/m 11,4 km/h SO 124 1 min 0,000 mm 1,7 UV-I 387 W/m 11,1 C 9,9 C 21,0 km/h 100,00 %
05.06.2020 12:17 12,7 C 91 % 992,3 hPa 0,0 l/m 18,0 km/h S 169 1 min 0,000 mm 2,4 UV-I 363 W/m 11,3 C 7,4 C 26,8 km/h 100,00 %
05.06.2020 12:16 12,7 C 91 % 992,3 hPa 0,0 l/m 8,5 km/h S-SW 200 1 min 0,000 mm 2,3 UV-I 306 W/m 11,3 C 11,4 C 21,0 km/h 100,00 %
05.06.2020 12:15 12,6 C 91 % 992,3 hPa 0,0 l/m 6,6 km/h S-SO 161 1 min 0,000 mm 2,0 UV-I 312 W/m 11,2 C 12,5 C 11,5 km/h 100,00 %
05.06.2020 12:14 12,6 C 91 % 992,3 hPa 0,0 l/m 9,1 km/h S-SO 151 1 min 0,000 mm 2,1 UV-I 343 W/m 11,2 C 10,9 C 13,4 km/h 96,55 %
05.06.2020 12:13 12,6 C 91 % 992,3 hPa 0,0 l/m 14,1 km/h S 170 0 min 0,000 mm 1,7 UV-I 279 W/m 11,2 C 8,6 C 24,9 km/h 100,00 %
05.06.2020 12:12 12,5 C 91 % 992,3 hPa 0,0 l/m 11,6 km/h S 171 0 min 0,000 mm 1,2 UV-I 204 W/m 11,1 C 9,6 C 19,1 km/h 100,00 %
05.06.2020 12:11 12,5 C 91 % 992,3 hPa 0,0 l/m 9,2 km/h S 179 0 min 0,000 mm 1,0 UV-I 174 W/m 11,1 C 10,8 C 17,2 km/h 100,00 %
05.06.2020 12:10 12,4 C 91 % 992,4 hPa 0,0 l/m 5,8 km/h S-SW 197 0 min 0,000 mm 1,1 UV-I 175 W/m 11,0 C 12,4 C 11,5 km/h 100,00 %
05.06.2020 12:09 12,4 C 91 % 992,4 hPa 0,0 l/m 6,5 km/h S 184 0 min 0,000 mm 1,2 UV-I 198 W/m 11,0 C 12,4 C 11,5 km/h 100,00 %
05.06.2020 12:08 12,4 C 91 % 992,4 hPa 0,0 l/m 11,2 km/h S-SO 164 0 min 0,000 mm 1,3 UV-I 224 W/m 11,0 C 9,6 C 21,0 km/h 100,00 %
05.06.2020 12:07 12,4 C 91 % 992,4 hPa 0,0 l/m 10,3 km/h S 181 0 min 0,000 mm 1,3 UV-I 210 W/m 11,0 C 10,1 C 19,1 km/h 100,00 %
05.06.2020 12:06 12,4 C 92 % 992,4 hPa 0,0 l/m 9,8 km/h S-SO 160 0 min 0,000 mm 1,4 UV-I 220 W/m 11,1 C 10,4 C 13,4 km/h 100,00 %
05.06.2020 12:05 12,4 C 92 % 992,5 hPa 0,0 l/m 12,1 km/h S-SW 209 0 min 0,000 mm 1,7 UV-I 251 W/m 11,1 C 9,2 C 26,8 km/h 91,67 %
05.06.2020 12:04 12,3 C 92 % 992,5 hPa 0,0 l/m 4,5 km/h S-SO 159 1 min 0,000 mm 1,9 UV-I 289 W/m 11,0 C 12,3 C 9,6 km/h 100,00 %
05.06.2020 12:03 12,3 C 91 % 992,5 hPa 0,0 l/m 9,4 km/h O-SO 119 1 min 0,000 mm 2,1 UV-I 320 W/m 10,9 C 10,5 C 15,3 km/h 100,00 %
05.06.2020 12:02 12,2 C 91 % 992,5 hPa 0,0 l/m 7,6 km/h S-SO 167 1 min 0,000 mm 2,2 UV-I 350 W/m 10,8 C 11,4 C 11,5 km/h 100,00 %
05.06.2020 12:01 12,2 C 91 % 992,7 hPa 0,0 l/m 11,9 km/h S-SO 160 1 min 0,000 mm 2,2 UV-I 339 W/m 10,8 C 9,1 C 19,1 km/h 100,00 %
05.06.2020 12:00 12,1 C 91 % 992,7 hPa 0,0 l/m 6,7 km/h S 180 1 min 0,076 mm 2,0 UV-I 316 W/m 10,7 C 11,9 C 17,2 km/h 100,00 %
05.06.2020 11:59 12,1 C 91 % 992,7 hPa 0,0 l/m 3,0 km/h S 183 1 min 0,000 mm 1,9 UV-I 321 W/m 10,7 C 12,1 C 5,7 km/h 100,00 %
05.06.2020 11:58 11,9 C 91 % 992,7 hPa 0,0 l/m 1,4 km/h S-SO 154 1 min 0,000 mm 2,0 UV-I 332 W/m 10,5 C 11,9 C 5,7 km/h 100,00 %
05.06.2020 11:57 11,9 C 91 % 992,8 hPa 0,0 l/m 7,9 km/h S 171 1 min 0,000 mm 1,9 UV-I 323 W/m 10,5 C 10,9 C 9,6 km/h 100,00 %
05.06.2020 11:56 11,9 C 91 % 992,8 hPa 0,0 l/m 8,3 km/h S-SO 167 0 min 0,000 mm 1,6 UV-I 281 W/m 10,5 C 10,7 C 13,4 km/h 100,00 %
05.06.2020 11:55 11,8 C 90 % 992,8 hPa 0,0 l/m 3,3 km/h S-SW 195 0 min 0,000 mm 0,9 UV-I 188 W/m 10,2 C 11,8 C 9,6 km/h 100,00 %
05.06.2020 11:54 11,8 C 90 % 992,9 hPa 0,0 l/m 8,1 km/h S 190 0 min 0,000 mm 0,4 UV-I 113 W/m 10,2 C 10,7 C 13,4 km/h 100,00 %
05.06.2020 11:53 11,8 C 90 % 992,8 hPa 0,0 l/m 9,7 km/h S-SO 165 0 min 0,000 mm 0,0 UV-I 79 W/m 10,2 C 9,7 C 13,4 km/h 100,00 %
05.06.2020 11:52 11,8 C 90 % 992,8 hPa 0,0 l/m 11,8 km/h S-SW 199 0 min 0,000 mm 0,0 UV-I 61 W/m 10,2 C 8,7 C 17,2 km/h 100,00 %
05.06.2020 11:51 11,8 C 90 % 992,9 hPa 0,0 l/m 12,9 km/h S-SO 168 0 min 0,000 mm 0,0 UV-I 48 W/m 10,2 C 8,2 C 17,2 km/h 100,00 %
05.06.2020 11:50 11,9 C 90 % 992,9 hPa 0,2 l/m 8,5 km/h S 173 0 min 0,000 mm 0,1 UV-I 61 W/m 10,3 C 10,5 C 11,5 km/h 100,00 %
05.06.2020 11:49 11,9 C 90 % 993,0 hPa 0,2 l/m 15,4 km/h S-SW 200 0 min 0,000 mm 0,5 UV-I 93 W/m 10,3 C 7,3 C 21,0 km/h 96,15 %
05.06.2020 11:48 11,9 C 90 % 992,9 hPa 0,0 l/m 15,2 km/h SO 143 0 min 0,000 mm 0,6 UV-I 93 W/m 10,3 C 7,4 C 21,0 km/h 100,00 %
05.06.2020 11:47 11,9 C 90 % 993,0 hPa 0,0 l/m 14,3 km/h S 170 0 min 0,000 mm 0,6 UV-I 89 W/m 10,3 C 7,7 C 24,9 km/h 100,00 %
05.06.2020 11:46 12,0 C 90 % 993,0 hPa 0,2 l/m 16,2 km/h S 170 0 min 0,000 mm 0,5 UV-I 84 W/m 10,4 C 7,1 C 23,0 km/h 96,30 %
05.06.2020 11:45 11,9 C 90 % 993,0 hPa 0,0 l/m 13,2 km/h S-SO 151 0 min 0,000 mm 0,5 UV-I 87 W/m 10,3 C 8,2 C 23,0 km/h 100,00 %
05.06.2020 11:44 11,9 C 90 % 993,0 hPa 0,0 l/m 12,4 km/h S 172 0 min 0,000 mm 0,6 UV-I 96 W/m 10,3 C 8,5 C 19,1 km/h 100,00 %
05.06.2020 11:43 11,9 C 90 % 992,9 hPa 0,0 l/m 14,7 km/h S 180 0 min 0,000 mm 0,7 UV-I 121 W/m 10,3 C 7,6 C 23,0 km/h 100,00 %
05.06.2020 11:42 11,9 C 90 % 993,0 hPa 0,0 l/m 8,6 km/h S-SO 159 0 min 0,000 mm 0,9 UV-I 144 W/m 10,3 C 10,5 C 11,5 km/h 100,00 %
05.06.2020 11:41 11,9 C 90 % 993,0 hPa 0,0 l/m 5,1 km/h S-SO 165 0 min 0,000 mm 1,1 UV-I 172 W/m 10,3 C 11,9 C 7,7 km/h 100,00 %
05.06.2020 11:40 11,8 C 90 % 993,1 hPa 0,0 l/m 7,7 km/h S 169 0 min 0,000 mm 1,0 UV-I 167 W/m 10,2 C 10,9 C 11,5 km/h 95,65 %
05.06.2020 11:39 11,8 C 89 % 993,1 hPa 0,0 l/m 10,3 km/h S-SO 167 0 min 0,000 mm 0,9 UV-I 152 W/m 10,0 C 9,4 C 15,3 km/h 100,00 %
05.06.2020 11:38 11,8 C 90 % 993,1 hPa 0,0 l/m 10,0 km/h SW 229 0 min 0,000 mm 0,7 UV-I 120 W/m 10,2 C 9,6 C 19,1 km/h 100,00 %
05.06.2020 11:37 11,9 C 89 % 993,1 hPa 0,0 l/m 5,7 km/h S 171 0 min 0,000 mm 0,4 UV-I 83 W/m 10,1 C 11,9 C 15,3 km/h 100,00 %
05.06.2020 11:36 11,9 C 89 % 993,2 hPa 0,0 l/m 4,7 km/h S 182 0 min 0,000 mm 0,0 UV-I 68 W/m 10,1 C 11,9 C 7,7 km/h 100,00 %
05.06.2020 11:35 11,9 C 89 % 993,2 hPa 0,2 l/m 2,6 km/h S 182 0 min 0,000 mm 0,0 UV-I 56 W/m 10,1 C 11,9 C 7,7 km/h 100,00 %
05.06.2020 11:34 11,9 C 89 % 993,2 hPa 0,0 l/m 2,2 km/h S 185 0 min 0,000 mm 0,0 UV-I 46 W/m 10,1 C 11,9 C 3,8 km/h 100,00 %
05.06.2020 11:33 12,0 C 88 % 993,2 hPa 0,0 l/m 5,7 km/h S 188 0 min 0,000 mm 0,0 UV-I 42 W/m 10,1 C 12,0 C 9,6 km/h 100,00 %
05.06.2020 11:32 12,0 C 88 % 993,2 hPa 0,0 l/m 2,0 km/h S 170 0 min 0,000 mm 0,0 UV-I 44 W/m 10,1 C 12,0 C 3,8 km/h 92,31 %
05.06.2020 11:31 12,0 C 88 % 993,2 hPa 0,0 l/m 4,3 km/h S-SO 163 0 min 0,000 mm 0,0 UV-I 50 W/m 10,1 C 12,0 C 7,7 km/h 100,00 %
05.06.2020 11:30 12,1 C 88 % 993,2 hPa 0,2 l/m 4,7 km/h S-SW 197 0 min 0,000 mm 0,0 UV-I 62 W/m 10,2 C 12,1 C 9,6 km/h 100,00 %
05.06.2020 11:29 12,1 C 88 % 993,3 hPa 0,2 l/m 3,1 km/h S-SW 192 0 min 0,000 mm 0,0 UV-I 73 W/m 10,2 C 12,1 C 7,7 km/h 95,65 %
05.06.2020 11:28 12,1 C 87 % 993,3 hPa 0,2 l/m 4,8 km/h S-SW 193 0 min 0,000 mm 0,4 UV-I 86 W/m 10,0 C 12,1 C 9,6 km/h 100,00 %
05.06.2020 11:27 12,2 C 87 % 993,4 hPa 0,2 l/m 7,1 km/h S-SO 147 0 min 0,000 mm 0,6 UV-I 96 W/m 10,1 C 11,7 C 13,4 km/h 100,00 %
05.06.2020 11:26 12,2 C 87 % 993,4 hPa 0,0 l/m 11,0 km/h S 178 0 min 0,000 mm 0,6 UV-I 91 W/m 10,1 C 9,5 C 19,1 km/h 100,00 %
05.06.2020 11:25 12,3 C 87 % 993,4 hPa 0,2 l/m 7,9 km/h S 177 0 min 0,000 mm 0,6 UV-I 93 W/m 10,2 C 11,3 C 11,5 km/h 100,00 %
05.06.2020 11:24 12,3 C 87 % 993,4 hPa 0,0 l/m 13,1 km/h S 184 0 min 0,000 mm 0,5 UV-I 93 W/m 10,2 C 8,7 C 19,1 km/h 100,00 %
05.06.2020 11:23 12,4 C 86 % 993,4 hPa 0,0 l/m 12,3 km/h SO 146 0 min 0,000 mm 0,6 UV-I 96 W/m 10,1 C 9,1 C 19,1 km/h 95,65 %
05.06.2020 11:22 12,5 C 86 % 993,4 hPa 0,2 l/m 16,3 km/h S-SO 168 0 min 0,000 mm 0,6 UV-I 104 W/m 10,2 C 7,7 C 23,0 km/h 100,00 %
05.06.2020 11:21 12,6 C 86 % 993,3 hPa 0,0 l/m 12,3 km/h O-SO 119 0 min 0,000 mm 0,5 UV-I 87 W/m 10,3 C 9,4 C 17,2 km/h 100,00 %
05.06.2020 11:20 12,6 C 86 % 993,4 hPa 0,0 l/m 8,0 km/h S-SO 160 0 min 0,000 mm 0,2 UV-I 79 W/m 10,3 C 11,6 C 13,4 km/h 100,00 %
05.06.2020 11:19 12,6 C 85 % 993,4 hPa 0,0 l/m 9,9 km/h SO 132 0 min 0,000 mm 0,5 UV-I 80 W/m 10,1 C 10,5 C 15,3 km/h 96,15 %
05.06.2020 11:18 12,6 C 85 % 993,4 hPa 0,0 l/m 8,2 km/h S-SO 155 0 min 0,000 mm 0,6 UV-I 91 W/m 10,1 C 11,5 C 21,0 km/h 92,59 %
05.06.2020 11:17 12,6 C 85 % 993,3 hPa 0,0 l/m 11,8 km/h SO 138 0 min 0,000 mm 0,6 UV-I 101 W/m 10,1 C 9,6 C 17,2 km/h 100,00 %
05.06.2020 11:16 12,6 C 85 % 993,4 hPa 0,0 l/m 14,1 km/h S-SO 150 0 min 0,000 mm 0,6 UV-I 112 W/m 10,1 C 8,6 C 26,8 km/h 100,00 %
05.06.2020 11:15 12,7 C 86 % 993,4 hPa 0,0 l/m 11,6 km/h S 179 0 min 0,000 mm 0,8 UV-I 133 W/m 10,4 C 9,8 C 21,0 km/h 95,65 %
05.06.2020 11:14 12,7 C 86 % 993,4 hPa 0,0 l/m 11,0 km/h SO 144 0 min 0,000 mm 0,9 UV-I 167 W/m 10,4 C 10,1 C 17,2 km/h 100,00 %
05.06.2020 11:13 12,6 C 86 % 993,4 hPa 0,0 l/m 13,2 km/h SO 134 0 min 0,000 mm 1,0 UV-I 181 W/m 10,3 C 9,0 C 24,9 km/h 100,00 %
05.06.2020 11:12 12,6 C 86 % 993,5 hPa 0,0 l/m 11,3 km/h S 173 0 min 0,000 mm 1,2 UV-I 202 W/m 10,3 C 9,8 C 19,1 km/h 100,00 %
05.06.2020 11:11 12,5 C 86 % 993,5 hPa 0,0 l/m 14,0 km/h O 98 0 min 0,000 mm 1,4 UV-I 245 W/m 10,2 C 8,5 C 26,8 km/h 100,00 %
05.06.2020 11:10 12,4 C 86 % 993,5 hPa 0,0 l/m 16,7 km/h S-SO 165 0 min 0,000 mm 1,5 UV-I 281 W/m 10,1 C 7,4 C 26,8 km/h 100,00 %
05.06.2020 11:09 12,4 C 86 % 993,5 hPa 0,0 l/m 14,3 km/h S 171 0 min 0,000 mm 1,5 UV-I 287 W/m 10,1 C 8,3 C 24,9 km/h 96,30 %
05.06.2020 11:08 12,4 C 85 % 993,5 hPa 0,0 l/m 12,9 km/h S 181 0 min 0,000 mm 1,5 UV-I 264 W/m 9,9 C 8,9 C 19,1 km/h 100,00 %
05.06.2020 11:07 12,3 C 85 % 993,5 hPa 0,0 l/m 15,3 km/h S 174 0 min 0,000 mm 1,3 UV-I 234 W/m 9,9 C 7,8 C 28,7 km/h 100,00 %
05.06.2020 11:06 12,3 C 85 % 993,6 hPa 0,0 l/m 15,9 km/h S 169 0 min 0,000 mm 1,2 UV-I 200 W/m 9,9 C 7,6 C 24,9 km/h 100,00 %
05.06.2020 11:05 12,3 C 85 % 993,6 hPa 0,0 l/m 14,7 km/h S-SO 154 0 min 0,000 mm 1,0 UV-I 169 W/m 9,9 C 8,0 C 23,0 km/h 100,00 %
05.06.2020 11:04 12,3 C 85 % 993,6 hPa 0,0 l/m 17,8 km/h SO 132 0 min 0,000 mm 0,9 UV-I 161 W/m 9,9 C 6,9 C 24,9 km/h 100,00 %
05.06.2020 11:03 12,3 C 85 % 993,6 hPa 0,0 l/m 18,2 km/h O-SO 121 0 min 0,000 mm 0,9 UV-I 165 W/m 9,9 C 6,8 C 24,9 km/h 100,00 %
05.06.2020 11:02 12,2 C 85 % 993,7 hPa 0,0 l/m 9,1 km/h S 191 0 min 0,000 mm 0,8 UV-I 149 W/m 9,8 C 10,5 C 15,3 km/h 100,00 %
05.06.2020 11:01 12,2 C 85 % 993,7 hPa 0,0 l/m 13,7 km/h S-SW 194 0 min 0,000 mm 0,7 UV-I 137 W/m 9,8 C 8,3 C 23,0 km/h 100,00 %
05.06.2020 11:00 12,2 C 85 % 993,7 hPa 0,0 l/m 15,0 km/h S 170 0 min 0,102 mm 0,8 UV-I 137 W/m 9,8 C 7,8 C 23,0 km/h 100,00 %
05.06.2020 10:59 12,2 C 85 % 993,7 hPa 0,0 l/m 12,1 km/h S-SO 159 0 min 0,000 mm 0,7 UV-I 122 W/m 9,8 C 9,0 C 19,1 km/h 100,00 %
05.06.2020 10:58 12,3 C 85 % 993,8 hPa 0,0 l/m 15,6 km/h S-SO 164 0 min 0,000 mm 0,1 UV-I 87 W/m 9,9 C 7,7 C 24,9 km/h 100,00 %
05.06.2020 10:57 12,3 C 85 % 993,7 hPa 0,0 l/m 18,4 km/h S 175 0 min 0,000 mm 0,0 UV-I 63 W/m 9,9 C 6,7 C 26,8 km/h 100,00 %
05.06.2020 10:56 12,3 C 85 % 993,7 hPa 0,0 l/m 14,0 km/h S-SO 159 0 min 0,000 mm 0,0 UV-I 62 W/m 9,9 C 8,3 C 19,1 km/h 100,00 %
05.06.2020 10:55 12,4 C 84 % 993,7 hPa 0,2 l/m 14,4 km/h S 187 0 min 0,000 mm 0,0 UV-I 69 W/m 9,8 C 8,3 C 26,8 km/h 100,00 %
05.06.2020 10:54 12,4 C 84 % 993,8 hPa 0,0 l/m 9,1 km/h S-SO 164 0 min 0,000 mm 0,0 UV-I 69 W/m 9,8 C 10,7 C 15,3 km/h 100,00 %
05.06.2020 10:53 12,5 C 84 % 993,7 hPa 0,0 l/m 17,5 km/h S-SO 157 0 min 0,000 mm 0,0 UV-I 64 W/m 9,9 C 7,3 C 23,0 km/h 96,30 %
05.06.2020 10:52 12,6 C 84 % 993,8 hPa 0,0 l/m 12,7 km/h S 173 0 min 0,000 mm 0,0 UV-I 59 W/m 10,0 C 9,2 C 24,9 km/h 100,00 %
05.06.2020 10:51 12,6 C 84 % 993,9 hPa 0,0 l/m 10,1 km/h O-SO 118 0 min 0,000 mm 0,0 UV-I 62 W/m 10,0 C 10,4 C 21,0 km/h 100,00 %
05.06.2020 10:50 12,7 C 84 % 993,8 hPa 0,0 l/m 11,9 km/h SO 141 0 min 0,000 mm 0,2 UV-I 77 W/m 10,1 C 9,7 C 19,1 km/h 96,30 %
05.06.2020 10:49 12,7 C 84 % 993,9 hPa 0,0 l/m 11,1 km/h S 175 0 min 0,000 mm 0,6 UV-I 100 W/m 10,1 C 10,0 C 15,3 km/h 100,00 %
05.06.2020 10:48 12,8 C 84 % 993,9 hPa 0,0 l/m 14,4 km/h SO 146 0 min 0,000 mm 0,6 UV-I 116 W/m 10,2 C 8,8 C 26,8 km/h 100,00 %
05.06.2020 10:47 12,8 C 84 % 993,9 hPa 0,0 l/m 13,2 km/h S-SW 200 0 min 0,000 mm 0,7 UV-I 127 W/m 10,2 C 9,2 C 23,0 km/h 100,00 %
05.06.2020 10:46 12,7 C 84 % 993,9 hPa 0,0 l/m 6,7 km/h S 177 0 min 0,000 mm 0,8 UV-I 163 W/m 10,1 C 12,5 C 13,4 km/h 100,00 %
05.06.2020 10:45 12,7 C 84 % 994,0 hPa 0,0 l/m 8,7 km/h S-SO 168 0 min 0,000 mm 1,2 UV-I 219 W/m 10,1 C 11,3 C 17,2 km/h 100,00 %
05.06.2020 10:44 12,7 C 84 % 993,9 hPa 0,0 l/m 10,4 km/h S-SO 163 0 min 0,000 mm 1,4 UV-I 282 W/m 10,1 C 10,4 C 15,3 km/h 100,00 %
05.06.2020 10:43 12,7 C 84 % 994,0 hPa 0,0 l/m 14,4 km/h S 174 1 min 0,000 mm 1,7 UV-I 342 W/m 10,1 C 8,6 C 21,0 km/h 100,00 %
05.06.2020 10:42 12,7 C 84 % 993,9 hPa 0,0 l/m 16,7 km/h S 171 1 min 0,000 mm 1,8 UV-I 373 W/m 10,1 C 7,8 C 24,9 km/h 100,00 %
05.06.2020 10:41 12,7 C 85 % 993,9 hPa 0,0 l/m 15,2 km/h S-SO 148 1 min 0,000 mm 1,8 UV-I 354 W/m 10,2 C 8,3 C 23,0 km/h 100,00 %
05.06.2020 10:40 12,6 C 84 % 994,1 hPa 0,0 l/m 13,1 km/h S 184 1 min 0,000 mm 2,0 UV-I 403 W/m 10,0 C 9,0 C 21,0 km/h 100,00 %
05.06.2020 10:39 12,6 C 84 % 994,1 hPa 0,0 l/m 10,7 km/h S-SO 150 1 min 0,000 mm 1,9 UV-I 370 W/m 10,0 C 10,1 C 17,2 km/h 100,00 %
05.06.2020 10:38 12,6 C 84 % 994,1 hPa 0,0 l/m 13,1 km/h S-SO 150 1 min 0,000 mm 1,9 UV-I 373 W/m 10,0 C 9,0 C 23,0 km/h 100,00 %
05.06.2020 10:37 12,6 C 85 % 994,1 hPa 0,0 l/m 12,2 km/h SO 139 1 min 0,000 mm 1,8 UV-I 365 W/m 10,1 C 9,4 C 30,6 km/h 100,00 %
05.06.2020 10:36 12,5 C 84 % 994,1 hPa 0,0 l/m 9,6 km/h S 190 1 min 0,000 mm 1,6 UV-I 325 W/m 9,9 C 10,6 C 17,2 km/h 100,00 %
05.06.2020 10:35 12,4 C 84 % 994,1 hPa 0,0 l/m 14,6 km/h S-SO 161 1 min 0,000 mm 1,5 UV-I 291 W/m 9,8 C 8,2 C 21,0 km/h 100,00 %
05.06.2020 10:34 12,5 C 85 % 994,2 hPa 0,0 l/m 14,0 km/h SO 140 0 min 0,000 mm 1,4 UV-I 264 W/m 10,0 C 8,5 C 21,0 km/h 100,00 %
05.06.2020 10:33 12,5 C 85 % 994,2 hPa 0,0 l/m 14,7 km/h S-SO 168 0 min 0,000 mm 1,4 UV-I 271 W/m 10,0 C 8,3 C 23,0 km/h 100,00 %
05.06.2020 10:32 12,4 C 85 % 994,2 hPa 0,0 l/m 13,2 km/h S 176 0 min 0,000 mm 1,4 UV-I 282 W/m 9,9 C 8,8 C 21,0 km/h 95,65 %
05.06.2020 10:31 12,4 C 85 % 994,2 hPa 0,0 l/m 10,5 km/h SO 133 1 min 0,000 mm 1,6 UV-I 298 W/m 9,9 C 10,0 C 15,3 km/h 100,00 %
05.06.2020 10:30 12,3 C 85 % 994,2 hPa 0,0 l/m 6,9 km/h SO 127 1 min 0,000 mm 1,6 UV-I 314 W/m 9,9 C 12,0 C 19,1 km/h 100,00 %
05.06.2020 10:29 12,3 C 85 % 994,3 hPa 0,0 l/m 9,3 km/h S 178 1 min 0,000 mm 1,6 UV-I 312 W/m 9,9 C 10,5 C 13,4 km/h 100,00 %
05.06.2020 10:28 12,2 C 84 % 994,3 hPa 0,0 l/m 11,9 km/h S 178 1 min 0,000 mm 1,5 UV-I 289 W/m 9,6 C 9,1 C 19,1 km/h 100,00 %
05.06.2020 10:27 12,2 C 84 % 994,4 hPa 0,0 l/m 12,8 km/h SO 143 0 min 0,000 mm 1,4 UV-I 261 W/m 9,6 C 8,7 C 23,0 km/h 100,00 %
05.06.2020 10:26 12,3 C 84 % 994,3 hPa 0,0 l/m 17,2 km/h S 182 0 min 0,000 mm 1,2 UV-I 232 W/m 9,7 C 7,1 C 24,9 km/h 100,00 %
05.06.2020 10:25 12,3 C 85 % 994,3 hPa 0,0 l/m 16,2 km/h SW 216 0 min 0,000 mm 1,1 UV-I 212 W/m 9,9 C 7,5 C 23,0 km/h 100,00 %
05.06.2020 10:24 12,3 C 84 % 994,4 hPa 0,0 l/m 5,3 km/h S 190 0 min 0,000 mm 1,1 UV-I 204 W/m 9,7 C 12,3 C 17,2 km/h 100,00 %
05.06.2020 10:23 12,3 C 84 % 994,5 hPa 0,0 l/m 10,6 km/h S-SO 167 0 min 0,000 mm 1,0 UV-I 202 W/m 9,7 C 9,8 C 15,3 km/h 100,00 %
05.06.2020 10:22 12,3 C 84 % 994,4 hPa 0,0 l/m 6,2 km/h S-SO 150 0 min 0,000 mm 1,0 UV-I 202 W/m 9,7 C 12,3 C 15,3 km/h 100,00 %
05.06.2020 10:21 12,3 C 83 % 994,4 hPa 0,0 l/m 7,2 km/h S-SO 162 0 min 0,000 mm 0,9 UV-I 183 W/m 9,5 C 11,8 C 11,5 km/h 100,00 %
05.06.2020 10:20 12,3 C 83 % 994,4 hPa 0,0 l/m 10,0 km/h S 173 0 min 0,000 mm 0,6 UV-I 139 W/m 9,5 C 10,1 C 21,0 km/h 100,00 %
05.06.2020 10:19 12,3 C 83 % 994,5 hPa 0,0 l/m 16,1 km/h S-SO 163 0 min 0,000 mm 0,2 UV-I 102 W/m 9,5 C 7,5 C 26,8 km/h 100,00 %
05.06.2020 10:18 12,3 C 83 % 994,5 hPa 0,0 l/m 12,1 km/h S 171 0 min 0,000 mm 0,0 UV-I 79 W/m 9,5 C 9,1 C 19,1 km/h 100,00 %
05.06.2020 10:17 12,3 C 83 % 994,5 hPa 0,0 l/m 6,7 km/h S-SO 163 0 min 0,000 mm 0,0 UV-I 69 W/m 9,5 C 12,1 C 11,5 km/h 100,00 %
05.06.2020 10:16 12,3 C 83 % 994,5 hPa 0,0 l/m 6,3 km/h S-SO 162 0 min 0,000 mm 0,0 UV-I 59 W/m 9,5 C 12,3 C 13,4 km/h 100,00 %
05.06.2020 10:15 12,3 C 83 % 994,5 hPa 0,0 l/m 14,4 km/h S 176 0 min 0,000 mm 0,0 UV-I 62 W/m 9,5 C 8,2 C 26,8 km/h 100,00 %
05.06.2020 10:14 12,4 C 83 % 994,5 hPa 0,0 l/m 11,3 km/h S 182 0 min 0,000 mm 0,0 UV-I 81 W/m 9,6 C 9,6 C 21,0 km/h 100,00 %
05.06.2020 10:13 12,4 C 82 % 994,5 hPa 0,0 l/m 13,2 km/h S-SO 150 0 min 0,000 mm 0,3 UV-I 94 W/m 9,4 C 8,8 C 19,1 km/h 100,00 %
05.06.2020 10:12 12,4 C 82 % 994,6 hPa 0,0 l/m 13,8 km/h S-SO 166 0 min 0,000 mm 0,5 UV-I 96 W/m 9,4 C 8,5 C 24,9 km/h 100,00 %
05.06.2020 10:11 12,4 C 82 % 994,5 hPa 0,0 l/m 10,8 km/h S-SO 150 0 min 0,000 mm 0,1 UV-I 92 W/m 9,4 C 9,8 C 19,1 km/h 100,00 %
05.06.2020 10:10 12,4 C 82 % 994,6 hPa 0,0 l/m 11,3 km/h S-SO 148 0 min 0,000 mm 0,5 UV-I 99 W/m 9,4 C 9,6 C 15,3 km/h 100,00 %
05.06.2020 10:09 12,5 C 82 % 994,6 hPa 0,0 l/m 10,5 km/h O-SO 123 0 min 0,000 mm 0,4 UV-I 103 W/m 9,5 C 10,1 C 23,0 km/h 100,00 %
05.06.2020 10:08 12,5 C 82 % 994,6 hPa 0,0 l/m 8,7 km/h SO 137 0 min 0,000 mm 0,0 UV-I 92 W/m 9,5 C 11,1 C 13,4 km/h 100,00 %
05.06.2020 10:07 12,5 C 82 % 994,6 hPa 0,0 l/m 12,5 km/h S 178 0 min 0,000 mm 0,4 UV-I 108 W/m 9,5 C 9,2 C 19,1 km/h 100,00 %
05.06.2020 10:06 12,6 C 82 % 994,6 hPa 0,0 l/m 11,0 km/h SO 143 0 min 0,000 mm 0,7 UV-I 137 W/m 9,6 C 10,0 C 15,3 km/h 100,00 %
05.06.2020 10:05 12,6 C 82 % 994,6 hPa 0,0 l/m 12,1 km/h S-SO 154 0 min 0,000 mm 0,8 UV-I 158 W/m 9,6 C 9,5 C 21,0 km/h 100,00 %
05.06.2020 10:04 12,6 C 82 % 994,6 hPa 0,0 l/m 12,5 km/h S-SO 163 0 min 0,000 mm 0,8 UV-I 173 W/m 9,6 C 9,3 C 19,1 km/h 100,00 %
05.06.2020 10:03 12,6 C 82 % 994,7 hPa 0,0 l/m 12,8 km/h S-SO 159 0 min 0,000 mm 0,9 UV-I 198 W/m 9,6 C 9,2 C 21,0 km/h 100,00 %
05.06.2020 10:02 12,7 C 82 % 994,7 hPa 0,0 l/m 16,1 km/h S-SO 157 0 min 0,000 mm 1,1 UV-I 232 W/m 9,7 C 8,0 C 21,0 km/h 100,00 %
05.06.2020 10:01 12,7 C 82 % 994,7 hPa 0,0 l/m 13,7 km/h S 182 0 min 0,000 mm 1,3 UV-I 264 W/m 9,7 C 8,9 C 21,0 km/h 100,00 %
05.06.2020 10:00 12,8 C 82 % 994,7 hPa 0,0 l/m 14,7 km/h S-SO 164 0 min 0,152 mm 1,3 UV-I 272 W/m 9,8 C 8,6 C 19,1 km/h 100,00 %
05.06.2020 09:59 12,8 C 82 % 994,7 hPa 0,0 l/m 11,1 km/h S-SW 199 0 min 0,000 mm 1,3 UV-I 282 W/m 9,8 C 10,1 C 28,7 km/h 90,91 %
05.06.2020 09:58 12,8 C 83 % 994,7 hPa 0,0 l/m 14,0 km/h SO 135 1 min 0,000 mm 1,3 UV-I 302 W/m 10,0 C 8,9 C 21,0 km/h 100,00 %
05.06.2020 09:57 12,9 C 83 % 994,7 hPa 0,0 l/m 14,9 km/h SO 140 1 min 0,000 mm 1,5 UV-I 331 W/m 10,1 C 8,7 C 23,0 km/h 100,00 %
05.06.2020 09:56 12,8 C 84 % 994,8 hPa 0,0 l/m 17,6 km/h S-SO 165 1 min 0,000 mm 1,6 UV-I 348 W/m 10,2 C 7,6 C 28,7 km/h 100,00 %
05.06.2020 09:55 12,8 C 84 % 994,8 hPa 0,0 l/m 9,6 km/h O-SO 118 1 min 0,000 mm 1,6 UV-I 357 W/m 10,2 C 10,9 C 15,3 km/h 100,00 %
05.06.2020 09:54 12,8 C 84 % 994,8 hPa 0,0 l/m 5,4 km/h S-SO 149 1 min 0,000 mm 1,7 UV-I 373 W/m 10,2 C 12,8 C 9,6 km/h 100,00 %
05.06.2020 09:53 12,7 C 84 % 994,8 hPa 0,0 l/m 6,9 km/h SO 142 1 min 0,000 mm 1,8 UV-I 397 W/m 10,1 C 12,4 C 11,5 km/h 100,00 %
05.06.2020 09:52 12,6 C 84 % 994,8 hPa 0,0 l/m 10,5 km/h S-SO 156 1 min 0,000 mm 1,8 UV-I 428 W/m 10,0 C 10,2 C 17,2 km/h 100,00 %
05.06.2020 09:51 12,6 C 84 % 994,9 hPa 0,0 l/m 10,3 km/h S-SO 166 1 min 0,000 mm 2,1 UV-I 494 W/m 10,0 C 10,3 C 15,3 km/h 100,00 %
05.06.2020 09:50 12,4 C 84 % 994,9 hPa 0,0 l/m 11,6 km/h O-SO 121 1 min 0,000 mm 2,0 UV-I 494 W/m 9,8 C 9,5 C 21,0 km/h 100,00 %
05.06.2020 09:49 12,3 C 84 % 994,9 hPa 0,0 l/m 12,2 km/h SO 130 1 min 0,000 mm 2,0 UV-I 467 W/m 9,7 C 9,1 C 19,1 km/h 100,00 %
05.06.2020 09:48 12,3 C 84 % 994,9 hPa 0,0 l/m 11,3 km/h O-SO 113 1 min 0,000 mm 1,7 UV-I 417 W/m 9,7 C 9,5 C 19,1 km/h 95,65 %
05.06.2020 09:47 12,2 C 85 % 994,9 hPa 0,0 l/m 14,0 km/h S 174 0 min 0,000 mm 2,0 UV-I 247 W/m 9,8 C 8,2 C 24,9 km/h 100,00 %
05.06.2020 09:46 12,2 C 85 % 994,9 hPa 0,0 l/m 12,0 km/h S-SO 148 0 min 0,000 mm 1,8 UV-I 206 W/m 9,8 C 9,0 C 17,2 km/h 100,00 %
05.06.2020 09:45 12,2 C 85 % 994,8 hPa 0,0 l/m 8,5 km/h SO 134 0 min 0,000 mm 1,7 UV-I 206 W/m 9,8 C 10,9 C 17,2 km/h 100,00 %
05.06.2020 09:44 12,1 C 85 % 994,9 hPa 0,0 l/m 6,7 km/h SO 129 0 min 0,000 mm 1,4 UV-I 219 W/m 9,7 C 11,9 C 15,3 km/h 100,00 %
05.06.2020 09:43 12,1 C 85 % 994,9 hPa 0,0 l/m 7,6 km/h S-SO 150 1 min 0,000 mm 1,5 UV-I 292 W/m 9,7 C 11,3 C 9,6 km/h 100,00 %
05.06.2020 09:42 12,1 C 85 % 994,9 hPa 0,0 l/m 8,7 km/h S 178 0 min 0,000 mm 1,4 UV-I 246 W/m 9,7 C 10,6 C 13,4 km/h 90,91 %
05.06.2020 09:41 12,1 C 85 % 994,9 hPa 0,0 l/m 10,9 km/h SO 146 0 min 0,000 mm 1,2 UV-I 206 W/m 9,7 C 9,5 C 19,1 km/h 100,00 %
05.06.2020 09:40 12,1 C 85 % 994,9 hPa 0,0 l/m 9,4 km/h S-SO 167 0 min 0,000 mm 1,1 UV-I 198 W/m 9,7 C 10,2 C 19,1 km/h 100,00 %
05.06.2020 09:39 12,1 C 85 % 994,9 hPa 0,0 l/m 14,9 km/h SO 132 0 min 0,000 mm 1,1 UV-I 211 W/m 9,7 C 7,7 C 21,0 km/h 100,00 %
05.06.2020 09:38 12,1 C 85 % 995,0 hPa 0,0 l/m 8,9 km/h S-SO 149 0 min 0,000 mm 1,0 UV-I 220 W/m 9,7 C 10,5 C 15,3 km/h 100,00 %
05.06.2020 09:37 12,1 C 85 % 995,0 hPa 0,0 l/m 8,4 km/h O-SO 120 0 min 0,000 mm 1,0 UV-I 212 W/m 9,7 C 10,8 C 11,5 km/h 100,00 %
05.06.2020 09:36 12,0 C 85 % 995,1 hPa 0,0 l/m 11,4 km/h S-SO 149 0 min 0,000 mm 0,9 UV-I 192 W/m 9,6 C 9,1 C 17,2 km/h 100,00 %
05.06.2020 09:35 12,0 C 85 % 995,1 hPa 0,0 l/m 9,1 km/h S 169 0 min 0,000 mm 0,9 UV-I 188 W/m 9,6 C 10,3 C 17,2 km/h 100,00 %
05.06.2020 09:34 12,0 C 85 % 995,1 hPa 0,0 l/m 11,1 km/h S 186 0 min 0,000 mm 0,9 UV-I 197 W/m 9,6 C 9,2 C 19,1 km/h 100,00 %
05.06.2020 09:33 12,0 C 85 % 995,1 hPa 0,0 l/m 10,9 km/h SO 136 0 min 0,000 mm 0,9 UV-I 209 W/m 9,6 C 9,3 C 17,2 km/h 100,00 %
05.06.2020 09:32 11,9 C 85 % 995,2 hPa 0,0 l/m 7,5 km/h S-SW 196 0 min 0,000 mm 1,1 UV-I 228 W/m 9,5 C 11,2 C 11,5 km/h 100,00 %
05.06.2020 09:31 11,9 C 85 % 995,1 hPa 0,0 l/m 10,0 km/h S-SO 164 0 min 0,000 mm 1,2 UV-I 284 W/m 9,5 C 9,7 C 23,0 km/h 99,51 %
05.06.2020 09:30 11,9 C 85 % 995,2 hPa 0,0 l/m 10,6 km/h S 178 0 min 0,000 mm 1,3 UV-I 284 W/m 9,5 C 9,4 C 15,3 km/h 100,00 %
05.06.2020 09:29 11,9 C 85 % 995,2 hPa 0,0 l/m 8,2 km/h SW 219 0 min 0,000 mm 1,2 UV-I 235 W/m 9,5 C 10,7 C 15,3 km/h 100,00 %
05.06.2020 09:28 11,8 C 85 % 995,2 hPa 0,0 l/m 8,0 km/h S 180 0 min 0,000 mm 1,1 UV-I 207 W/m 9,4 C 10,7 C 11,5 km/h 100,00 %
05.06.2020 09:27 11,8 C 85 % 995,2 hPa 0,0 l/m 9,9 km/h S-SO 158 0 min 0,000 mm 1,1 UV-I 194 W/m 9,4 C 9,6 C 17,2 km/h 100,00 %
05.06.2020 09:26 11,8 C 85 % 995,2 hPa 0,0 l/m 14,4 km/h S 183 0 min 0,000 mm 1,0 UV-I 199 W/m 9,4 C 7,6 C 23,0 km/h 100,00 %
05.06.2020 09:25 11,9 C 85 % 995,3 hPa 0,0 l/m 14,7 km/h S 171 0 min 0,000 mm 1,1 UV-I 201 W/m 9,5 C 7,6 C 30,6 km/h 95,65 %
05.06.2020 09:24 11,9 C 85 % 995,2 hPa 0,0 l/m 7,7 km/h S-SW 202 0 min 0,000 mm 1,0 UV-I 205 W/m 9,5 C 11,0 C 17,2 km/h 100,00 %
05.06.2020 09:23 11,9 C 85 % 995,3 hPa 0,0 l/m 17,1 km/h S-SO 161 0 min 0,000 mm 1,0 UV-I 190 W/m 9,5 C 6,7 C 23,0 km/h 100,00 %
05.06.2020 09:22 11,9 C 85 % 995,3 hPa 0,0 l/m 14,4 km/h S 173 0 min 0,000 mm 1,0 UV-I 198 W/m 9,5 C 7,7 C 21,0 km/h 100,00 %
05.06.2020 09:21 12,0 C 86 % 995,3 hPa 0,0 l/m 14,9 km/h S-SO 150 0 min 0,000 mm 1,0 UV-I 211 W/m 9,7 C 7,6 C 24,9 km/h 100,00 %
05.06.2020 09:20 12,0 C 86 % 995,3 hPa 0,0 l/m 11,1 km/h S-SW 204 0 min 0,000 mm 1,0 UV-I 220 W/m 9,7 C 9,2 C 24,9 km/h 100,00 %
05.06.2020 09:19 12,0 C 86 % 995,3 hPa 0,0 l/m 12,7 km/h S-SO 163 0 min 0,000 mm 1,0 UV-I 234 W/m 9,7 C 8,5 C 19,1 km/h 100,00 %
05.06.2020 09:18 12,0 C 86 % 995,3 hPa 0,0 l/m 11,6 km/h S 171 0 min 0,000 mm 1,1 UV-I 255 W/m 9,7 C 9,0 C 17,2 km/h 100,00 %
05.06.2020 09:17 11,9 C 87 % 995,3 hPa 0,0 l/m 8,5 km/h S 186 0 min 0,000 mm 1,1 UV-I 281 W/m 9,8 C 10,5 C 13,4 km/h 100,00 %
05.06.2020 09:16 11,9 C 87 % 995,3 hPa 0,0 l/m 8,8 km/h S-SO 163 1 min 0,000 mm 1,2 UV-I 311 W/m 9,8 C 10,4 C 17,2 km/h 100,00 %
05.06.2020 09:15 11,8 C 87 % 995,4 hPa 0,0 l/m 9,8 km/h SO 139 1 min 0,000 mm 1,3 UV-I 369 W/m 9,7 C 9,7 C 13,4 km/h 100,00 %
05.06.2020 09:14 11,8 C 87 % 995,4 hPa 0,0 l/m 15,2 km/h S-SW 194 1 min 0,000 mm 1,4 UV-I 366 W/m 9,7 C 7,2 C 21,0 km/h 100,00 %
05.06.2020 09:13 11,7 C 86 % 995,4 hPa 0,0 l/m 9,6 km/h S 187 1 min 0,000 mm 1,4 UV-I 330 W/m 9,4 C 9,7 C 24,9 km/h 100,00 %
05.06.2020 09:12 11,7 C 87 % 995,4 hPa 0,0 l/m 11,3 km/h S-SO 163 1 min 0,000 mm 1,3 UV-I 323 W/m 9,6 C 8,8 C 15,3 km/h 100,00 %
05.06.2020 09:11 11,7 C 87 % 995,4 hPa 0,0 l/m 14,6 km/h S 175 0 min 0,000 mm 1,3 UV-I 274 W/m 9,6 C 7,4 C 23,0 km/h 95,83 %
05.06.2020 09:10 11,7 C 87 % 995,4 hPa 0,0 l/m 9,9 km/h S 184 0 min 0,000 mm 1,2 UV-I 251 W/m 9,6 C 9,5 C 15,3 km/h 100,00 %
05.06.2020 09:09 11,7 C 87 % 995,5 hPa 0,0 l/m 9,5 km/h O-SO 116 0 min 0,000 mm 1,2 UV-I 276 W/m 9,6 C 9,7 C 19,1 km/h 100,00 %
05.06.2020 09:08 11,7 C 87 % 995,5 hPa 0,0 l/m 12,8 km/h S-SO 150 0 min 0,000 mm 1,1 UV-I 234 W/m 9,6 C 8,1 C 21,0 km/h 100,00 %
05.06.2020 09:07 11,7 C 87 % 995,5 hPa 0,0 l/m 12,6 km/h S 180 0 min 0,000 mm 1,0 UV-I 197 W/m 9,6 C 8,2 C 19,1 km/h 100,00 %
05.06.2020 09:06 11,7 C 88 % 995,4 hPa 0,0 l/m 10,1 km/h S-SO 161 0 min 0,000 mm 1,0 UV-I 193 W/m 9,8 C 9,4 C 17,2 km/h 100,00 %
05.06.2020 09:05 11,6 C 88 % 995,5 hPa 0,0 l/m 11,4 km/h S-SO 165 0 min 0,000 mm 1,1 UV-I 206 W/m 9,7 C 8,6 C 15,3 km/h 96,30 %
05.06.2020 09:04 11,6 C 88 % 995,4 hPa 0,0 l/m 4,6 km/h S 173 0 min 0,000 mm 1,0 UV-I 207 W/m 9,7 C 11,6 C 11,5 km/h 100,00 %
05.06.2020 09:03 11,6 C 88 % 995,4 hPa 0,0 l/m 11,6 km/h S 169 0 min 0,000 mm 1,1 UV-I 206 W/m 9,7 C 8,5 C 21,0 km/h 100,00 %
05.06.2020 09:02 11,6 C 88 % 995,4 hPa 0,0 l/m 12,6 km/h S-SO 149 0 min 0,000 mm 1,0 UV-I 205 W/m 9,7 C 8,1 C 21,0 km/h 100,00 %
05.06.2020 09:01 11,6 C 88 % 995,4 hPa 0,0 l/m 6,6 km/h S 177 0 min 0,000 mm 1,0 UV-I 211 W/m 9,7 C 11,5 C 17,2 km/h 100,00 %
05.06.2020 09:00 11,6 C 88 % 995,4 hPa 0,0 l/m 11,3 km/h S-SO 155 0 min 0,127 mm 1,0 UV-I 202 W/m 9,7 C 8,7 C 17,2 km/h 100,00 %
05.06.2020 08:59 11,6 C 88 % 995,4 hPa 0,0 l/m 8,0 km/h S 188 0 min 0,000 mm 1,0 UV-I 228 W/m 9,7 C 10,5 C 17,2 km/h 100,00 %
05.06.2020 08:58 11,5 C 88 % 995,4 hPa 0,0 l/m 12,8 km/h SO 136 0 min 0,000 mm 1,1 UV-I 279 W/m 9,6 C 7,9 C 19,1 km/h 96,55 %
05.06.2020 08:57 11,5 C 88 % 995,4 hPa 0,0 l/m 10,3 km/h S-SO 161 0 min 0,000 mm 1,1 UV-I 270 W/m 9,6 C 9,1 C 17,2 km/h 100,00 %
05.06.2020 08:56 11,4 C 88 % 995,4 hPa 0,0 l/m 9,5 km/h S 179 0 min 0,000 mm 1,0 UV-I 239 W/m 9,5 C 9,4 C 13,4 km/h 100,00 %
05.06.2020 08:55 11,4 C 89 % 995,4 hPa 0,0 l/m 12,4 km/h S-SO 168 0 min 0,000 mm 1,0 UV-I 220 W/m 9,7 C 7,9 C 23,0 km/h 100,00 %
05.06.2020 08:54 11,4 C 89 % 995,5 hPa 0,0 l/m 9,2 km/h S-SO 150 0 min 0,000 mm 1,0 UV-I 218 W/m 9,7 C 9,6 C 13,4 km/h 100,00 %
05.06.2020 08:53 11,4 C 89 % 995,5 hPa 0,0 l/m 7,9 km/h S 185 0 min 0,000 mm 0,9 UV-I 209 W/m 9,7 C 10,4 C 17,2 km/h 100,00 %
05.06.2020 08:52 11,4 C 89 % 995,5 hPa 0,0 l/m 9,9 km/h S 178 0 min 0,000 mm 0,9 UV-I 210 W/m 9,7 C 9,2 C 17,2 km/h 100,00 %
05.06.2020 08:51 11,4 C 89 % 995,5 hPa 0,0 l/m 16,6 km/h S-SO 154 0 min 0,000 mm 0,9 UV-I 209 W/m 9,7 C 6,2 C 23,0 km/h 95,65 %
05.06.2020 08:50 11,4 C 89 % 995,5 hPa 0,0 l/m 9,9 km/h S 180 0 min 0,000 mm 0,9 UV-I 209 W/m 9,7 C 9,2 C 13,4 km/h 100,00 %
05.06.2020 08:49 11,4 C 89 % 995,4 hPa 0,0 l/m 8,7 km/h S 186 0 min 0,000 mm 0,8 UV-I 212 W/m 9,7 C 9,9 C 13,4 km/h 100,00 %
05.06.2020 08:48 11,4 C 89 % 995,4 hPa 0,0 l/m 8,8 km/h SO 137 0 min 0,000 mm 0,8 UV-I 216 W/m 9,7 C 9,8 C 11,5 km/h 100,00 %
05.06.2020 08:47 11,4 C 89 % 995,4 hPa 0,0 l/m 12,1 km/h O-SO 105 0 min 0,000 mm 0,8 UV-I 216 W/m 9,7 C 8,1 C 17,2 km/h 100,00 %
05.06.2020 08:46 11,4 C 90 % 995,5 hPa 0,0 l/m 11,2 km/h S-SO 158 0 min 0,000 mm 0,8 UV-I 220 W/m 9,8 C 8,5 C 19,1 km/h 100,00 %
05.06.2020 08:45 11,4 C 90 % 995,4 hPa 0,0 l/m 4,2 km/h S-SW 203 0 min 0,000 mm 0,9 UV-I 241 W/m 9,8 C 11,4 C 9,6 km/h 100,00 %
05.06.2020 08:44 11,3 C 90 % 995,4 hPa 0,0 l/m 5,7 km/h S-SO 159 0 min 0,000 mm 0,9 UV-I 267 W/m 9,7 C 11,3 C 9,6 km/h 100,00 %
05.06.2020 08:43 11,3 C 90 % 995,5 hPa 0,0 l/m 12,2 km/h S 172 0 min 0,000 mm 0,9 UV-I 254 W/m 9,7 C 7,9 C 19,1 km/h 100,00 %
05.06.2020 08:42 11,3 C 90 % 995,5 hPa 0,0 l/m 5,1 km/h O-SO 123 0 min 0,000 mm 0,8 UV-I 233 W/m 9,7 C 11,3 C 7,7 km/h 100,00 %
05.06.2020 08:41 11,3 C 90 % 995,6 hPa 0,0 l/m 8,8 km/h O-SO 117 0 min 0,000 mm 0,8 UV-I 253 W/m 9,7 C 9,7 C 17,2 km/h 100,00 %
05.06.2020 08:40 11,2 C 90 % 995,6 hPa 0,0 l/m 10,6 km/h SO 142 0 min 0,000 mm 0,9 UV-I 283 W/m 9,6 C 8,6 C 19,1 km/h 95,83 %
05.06.2020 08:39 11,2 C 90 % 995,6 hPa 0,0 l/m 6,0 km/h SO 143 0 min 0,000 mm 0,9 UV-I 276 W/m 9,6 C 11,2 C 9,6 km/h 100,00 %
05.06.2020 08:38 11,2 C 90 % 995,6 hPa 0,0 l/m 4,9 km/h S-SO 158 0 min 0,000 mm 0,8 UV-I 260 W/m 9,6 C 11,2 C 9,6 km/h 100,00 %
05.06.2020 08:37 11,2 C 91 % 995,6 hPa 0,0 l/m 3,9 km/h S-SO 155 0 min 0,000 mm 0,8 UV-I 232 W/m 9,8 C 11,2 C 7,7 km/h 100,00 %
05.06.2020 08:36 11,1 C 91 % 995,6 hPa 0,0 l/m 8,3 km/h S-SO 148 0 min 0,000 mm 0,8 UV-I 214 W/m 9,7 C 9,8 C 13,4 km/h 100,00 %
05.06.2020 08:35 11,1 C 91 % 995,7 hPa 0,0 l/m 7,4 km/h S-SO 167 0 min 0,000 mm 0,8 UV-I 219 W/m 9,7 C 10,4 C 13,4 km/h 100,00 %
05.06.2020 08:34 11,1 C 91 % 995,7 hPa 0,0 l/m 7,5 km/h SO 140 0 min 0,000 mm 0,8 UV-I 237 W/m 9,7 C 10,3 C 13,4 km/h 100,00 %
05.06.2020 08:33 11,1 C 91 % 995,7 hPa 0,0 l/m 8,5 km/h S-SO 156 0 min 0,000 mm 0,7 UV-I 230 W/m 9,7 C 9,7 C 21,0 km/h 100,00 %
05.06.2020 08:32 11,0 C 91 % 995,7 hPa 0,0 l/m 4,0 km/h S-SO 153 0 min 0,000 mm 0,7 UV-I 204 W/m 9,6 C 11,0 C 7,7 km/h 100,00 %
05.06.2020 08:31 11,0 C 91 % 995,7 hPa 0,0 l/m 7,7 km/h SO 142 0 min 0,000 mm 0,7 UV-I 194 W/m 9,6 C 10,1 C 13,4 km/h 100,00 %
05.06.2020 08:30 10,9 C 91 % 995,8 hPa 0,0 l/m 6,9 km/h SO 134 0 min 0,000 mm 0,7 UV-I 185 W/m 9,5 C 10,6 C 13,4 km/h 100,00 %
05.06.2020 08:29 10,9 C 91 % 995,7 hPa 0,0 l/m 6,3 km/h S-SO 157 0 min 0,000 mm 0,7 UV-I 179 W/m 9,5 C 10,9 C 11,5 km/h 100,00 %
05.06.2020 08:28 10,9 C 91 % 995,8 hPa 0,0 l/m 6,7 km/h S 187 0 min 0,000 mm 0,6 UV-I 172 W/m 9,5 C 10,7 C 9,6 km/h 100,00 %
05.06.2020 08:27 10,9 C 91 % 995,8 hPa 0,0 l/m 10,6 km/h S 190 0 min 0,000 mm 0,6 UV-I 171 W/m 9,5 C 8,3 C 19,1 km/h 100,00 %
05.06.2020 08:26 10,9 C 91 % 995,8 hPa 0,0 l/m 5,5 km/h SO 143 0 min 0,000 mm 0,6 UV-I 170 W/m 9,5 C 10,9 C 15,3 km/h 91,67 %
05.06.2020 08:25 10,8 C 91 % 995,8 hPa 0,0 l/m 10,5 km/h S-SO 156 0 min 0,000 mm 0,6 UV-I 167 W/m 9,4 C 8,2 C 17,2 km/h 100,00 %
05.06.2020 08:24 10,8 C 91 % 995,8 hPa 0,0 l/m 4,7 km/h S-SO 160 0 min 0,000 mm 0,6 UV-I 165 W/m 9,4 C 10,8 C 7,7 km/h 100,00 %
05.06.2020 08:23 10,8 C 91 % 995,9 hPa 0,0 l/m 7,2 km/h SO 146 0 min 0,000 mm 0,6 UV-I 170 W/m 9,4 C 10,2 C 13,4 km/h 100,00 %
05.06.2020 08:22 10,8 C 91 % 995,9 hPa 0,0 l/m 7,5 km/h S 177 0 min 0,000 mm 0,6 UV-I 180 W/m 9,4 C 10,0 C 11,5 km/h 100,00 %
05.06.2020 08:21 10,8 C 91 % 995,9 hPa 0,0 l/m 11,6 km/h S-SO 157 0 min 0,000 mm 0,6 UV-I 176 W/m 9,4 C 7,6 C 17,2 km/h 95,83 %
05.06.2020 08:20 10,8 C 91 % 995,9 hPa 0,0 l/m 12,7 km/h S-SO 157 0 min 0,000 mm 0,6 UV-I 171 W/m 9,4 C 7,1 C 17,2 km/h 100,00 %
05.06.2020 08:19 10,9 C 92 % 996,0 hPa 0,0 l/m 11,7 km/h S-SO 167 0 min 0,000 mm 0,6 UV-I 173 W/m 9,7 C 7,7 C 15,3 km/h 100,00 %
05.06.2020 08:18 10,9 C 92 % 996,0 hPa 0,0 l/m 13,1 km/h S-SO 168 0 min 0,000 mm 0,6 UV-I 179 W/m 9,7 C 7,0 C 19,1 km/h 100,00 %
05.06.2020 08:17 11,0 C 92 % 996,0 hPa 0,0 l/m 8,7 km/h S 169 0 min 0,000 mm 0,6 UV-I 190 W/m 9,8 C 9,5 C 13,4 km/h 100,00 %
05.06.2020 08:16 11,0 C 93 % 996,0 hPa 0,0 l/m 11,3 km/h S 177 0 min 0,000 mm 0,6 UV-I 203 W/m 9,9 C 8,0 C 17,2 km/h 100,00 %
05.06.2020 08:15 11,1 C 93 % 996,1 hPa 0,0 l/m 7,3 km/h S-SO 151 0 min 0,000 mm 0,6 UV-I 219 W/m 10,0 C 10,5 C 17,2 km/h 100,00 %
05.06.2020 08:14 11,1 C 93 % 996,2 hPa 0,0 l/m 7,7 km/h SO 127 0 min 0,000 mm 0,6 UV-I 259 W/m 10,0 C 10,2 C 9,6 km/h 100,00 %
05.06.2020 08:13 11,0 C 93 % 996,2 hPa 0,0 l/m 6,4 km/h S-SO 160 0 min 0,000 mm 0,7 UV-I 262 W/m 9,9 C 11,0 C 9,6 km/h 100,00 %
05.06.2020 08:12 10,9 C 94 % 996,2 hPa 0,0 l/m 7,9 km/h S 173 1 min 0,000 mm 0,7 UV-I 309 W/m 10,0 C 9,9 C 11,5 km/h 100,00 %
05.06.2020 08:11 10,9 C 94 % 996,2 hPa 0,0 l/m 6,9 km/h S-SO 157 1 min 0,000 mm 0,7 UV-I 359 W/m 10,0 C 10,6 C 9,6 km/h 100,00 %
05.06.2020 08:10 10,8 C 94 % 996,2 hPa 0,0 l/m 11,2 km/h S-SO 167 1 min 0,000 mm 0,8 UV-I 346 W/m 9,9 C 7,8 C 17,2 km/h 100,00 %
05.06.2020 08:09 10,8 C 94 % 996,2 hPa 0,0 l/m 9,8 km/h S 171 1 min 0,000 mm 0,8 UV-I 364 W/m 9,9 C 8,6 C 21,0 km/h 100,00 %
05.06.2020 08:08 10,7 C 94 % 996,2 hPa 0,0 l/m 6,1 km/h S 176 1 min 0,000 mm 0,8 UV-I 412 W/m 9,8 C 10,7 C 9,6 km/h 100,00 %
05.06.2020 08:07 10,6 C 94 % 996,2 hPa 0,0 l/m 7,0 km/h S 170 1 min 0,000 mm 0,8 UV-I 412 W/m 9,7 C 10,2 C 9,6 km/h 100,00 %
05.06.2020 08:06 10,6 C 94 % 996,2 hPa 0,0 l/m 7,9 km/h S 180 1 min 0,000 mm 0,8 UV-I 390 W/m 9,7 C 9,5 C 11,5 km/h 100,00 %
05.06.2020 08:05 10,6 C 94 % 996,2 hPa 0,0 l/m 8,6 km/h S-SO 168 1 min 0,000 mm 0,8 UV-I 357 W/m 9,7 C 9,1 C 13,4 km/h 100,00 %
05.06.2020 08:04 10,4 C 94 % 996,2 hPa 0,0 l/m 8,7 km/h S-SW 202 1 min 0,000 mm 0,8 UV-I 376 W/m 9,5 C 8,8 C 11,5 km/h 100,00 %
05.06.2020 08:03 10,3 C 94 % 996,2 hPa 0,0 l/m 7,5 km/h S-SW 207 1 min 0,000 mm 0,8 UV-I 392 W/m 9,4 C 9,5 C 15,3 km/h 100,00 %
05.06.2020 08:02 10,3 C 94 % 996,2 hPa 0,0 l/m 6,1 km/h S-SW 196 1 min 0,001 mm 0,7 UV-I 321 W/m 9,4 C 10,3 C 13,4 km/h 100,00 %
05.06.2020 08:01 10,3 C 95 % 996,3 hPa 0,0 l/m 12,8 km/h S-SO 147 1 min 0,076 mm 0,8 UV-I 364 W/m 9,5 C 6,5 C 19,1 km/h 100,00 %
05.06.2020 08:00 10,3 C 95 % 996,3 hPa 0,0 l/m 7,6 km/h S 172 1 min 0,000 mm 0,8 UV-I 364 W/m 9,5 C 9,4 C 17,2 km/h 100,00 %
05.06.2020 07:59 10,2 C 95 % 996,3 hPa 0,0 l/m 3,7 km/h SO 146 1 min 0,000 mm 0,8 UV-I 348 W/m 9,4 C 10,2 C 9,6 km/h 100,00 %
05.06.2020 07:58 10,2 C 95 % 996,3 hPa 0,0 l/m 4,8 km/h O-SO 123 1 min 0,000 mm 0,7 UV-I 349 W/m 9,4 C 10,2 C 7,7 km/h 100,00 %
05.06.2020 07:57 10,1 C 95 % 996,4 hPa 0,0 l/m 5,7 km/h S-SW 211 1 min 0,000 mm 0,7 UV-I 318 W/m 9,3 C 10,1 C 9,6 km/h 100,00 %
05.06.2020 07:56 10,1 C 95 % 996,4 hPa 0,0 l/m 6,8 km/h S 181 1 min 0,000 mm 0,7 UV-I 334 W/m 9,3 C 9,8 C 11,5 km/h 100,00 %
05.06.2020 07:55 10,0 C 95 % 996,4 hPa 0,0 l/m 4,3 km/h S-SO 165 1 min 0,000 mm 0,7 UV-I 352 W/m 9,2 C 10,0 C 9,6 km/h 100,00 %
05.06.2020 07:54 9,9 C 95 % 996,4 hPa 0,0 l/m 4,2 km/h S 174 1 min 0,000 mm 0,7 UV-I 350 W/m 9,1 C 9,9 C 7,7 km/h 100,00 %
05.06.2020 07:53 9,8 C 95 % 996,4 hPa 0,0 l/m 2,6 km/h S-SO 165 1 min 0,000 mm 0,7 UV-I 337 W/m 9,0 C 9,8 C 7,7 km/h 100,00 %
05.06.2020 07:52 9,8 C 95 % 996,5 hPa 0,0 l/m 5,9 km/h S-SO 165 1 min 0,000 mm 0,7 UV-I 315 W/m 9,0 C 9,8 C 11,5 km/h 100,00 %
05.06.2020 07:51 9,7 C 95 % 996,4 hPa 0,0 l/m 7,5 km/h S 175 1 min 0,000 mm 0,7 UV-I 294 W/m 8,9 C 8,9 C 15,3 km/h 100,00 %
05.06.2020 07:50 9,7 C 95 % 996,5 hPa 0,0 l/m 4,7 km/h S-SO 168 0 min 0,000 mm 0,6 UV-I 270 W/m 8,9 C 9,7 C 9,6 km/h 96,15 %
05.06.2020 07:49 9,7 C 95 % 996,4 hPa 0,0 l/m 10,5 km/h S-SO 163 0 min 0,000 mm 0,6 UV-I 259 W/m 8,9 C 7,0 C 13,4 km/h 100,00 %
05.06.2020 07:48 9,7 C 95 % 996,5 hPa 0,0 l/m 3,5 km/h S-SO 164 0 min 0,000 mm 0,6 UV-I 199 W/m 8,9 C 9,7 C 9,6 km/h 100,00 %
05.06.2020 07:47 9,6 C 95 % 996,5 hPa 0,0 l/m 8,5 km/h S 169 0 min 0,000 mm 0,5 UV-I 173 W/m 8,8 C 8,1 C 13,4 km/h 100,00 %
05.06.2020 07:46 9,6 C 95 % 996,5 hPa 0,0 l/m 4,1 km/h S 169 0 min 0,000 mm 0,5 UV-I 167 W/m 8,8 C 9,6 C 9,6 km/h 100,00 %
05.06.2020 07:45 9,6 C 95 % 996,5 hPa 0,0 l/m 4,9 km/h S 181 0 min 0,000 mm 0,5 UV-I 178 W/m 8,8 C 9,6 C 7,7 km/h 97,73 %
05.06.2020 07:44 9,6 C 95 % 996,5 hPa 0,0 l/m 11,9 km/h S-SO 155 0 min 0,000 mm 0,5 UV-I 187 W/m 8,8 C 6,1 C 15,3 km/h 100,00 %
05.06.2020 07:43 9,6 C 95 % 996,5 hPa 0,0 l/m 5,9 km/h S 188 0 min 0,000 mm 0,5 UV-I 182 W/m 8,8 C 9,6 C 11,5 km/h 100,00 %
05.06.2020 07:42 9,5 C 95 % 996,5 hPa 0,0 l/m 2,2 km/h S-SW 198 0 min 0,000 mm 0,5 UV-I 184 W/m 8,7 C 9,5 C 7,7 km/h 100,00 %
05.06.2020 07:41 9,5 C 95 % 996,5 hPa 0,0 l/m 5,6 km/h S-SO 159 0 min 0,000 mm 0,5 UV-I 176 W/m 8,7 C 9,5 C 11,5 km/h 100,00 %
05.06.2020 07:40 9,5 C 95 % 996,5 hPa 0,0 l/m 4,6 km/h S 177 0 min 0,000 mm 0,5 UV-I 159 W/m 8,7 C 9,5 C 13,4 km/h 100,00 %
05.06.2020 07:39 9,5 C 95 % 996,6 hPa 0,0 l/m 3,2 km/h S-SO 159 0 min 0,000 mm 0,5 UV-I 150 W/m 8,7 C 9,5 C 7,7 km/h 100,00 %
05.06.2020 07:38 9,5 C 95 % 996,5 hPa 0,0 l/m 6,0 km/h S-SW 195 0 min 0,000 mm 0,0 UV-I 154 W/m 8,7 C 9,5 C 17,2 km/h 100,00 %
05.06.2020 07:37 9,4 C 95 % 996,6 hPa 0,0 l/m 6,8 km/h S-SO 148 0 min 0,000 mm 0,0 UV-I 148 W/m 8,6 C 9,1 C 9,6 km/h 100,00 %
05.06.2020 07:36 9,4 C 95 % 996,5 hPa 0,0 l/m 5,0 km/h S 191 0 min 0,000 mm 0,0 UV-I 140 W/m 8,6 C 9,4 C 7,7 km/h 97,56 %
05.06.2020 07:35 9,4 C 95 % 996,5 hPa 0,0 l/m 6,3 km/h SO 146 0 min 0,000 mm 0,0 UV-I 140 W/m 8,6 C 9,4 C 15,3 km/h 100,00 %
05.06.2020 07:34 9,4 C 95 % 996,6 hPa 0,0 l/m 7,7 km/h S 190 0 min 0,000 mm 0,0 UV-I 139 W/m 8,6 C 8,4 C 13,4 km/h 100,00 %
05.06.2020 07:33 9,4 C 95 % 996,6 hPa 0,0 l/m 2,8 km/h S-SO 157 0 min 0,000 mm 0,0 UV-I 141 W/m 8,6 C 9,4 C 9,6 km/h 100,00 %
05.06.2020 07:32 9,4 C 95 % 996,6 hPa 0,0 l/m 5,3 km/h S 175 0 min 0,000 mm 0,0 UV-I 141 W/m 8,6 C 9,4 C 9,6 km/h 100,00 %
05.06.2020 07:31 9,4 C 95 % 996,6 hPa 0,0 l/m 7,3 km/h S 174 0 min 0,000 mm 0,0 UV-I 139 W/m 8,6 C 8,7 C 13,4 km/h 95,83 %
05.06.2020 07:30 9,4 C 95 % 996,5 hPa 0,0 l/m 5,4 km/h S-SO 158 0 min 0,000 mm 0,0 UV-I 136 W/m 8,6 C 9,4 C 13,4 km/h 100,00 %
05.06.2020 07:29 9,4 C 95 % 996,6 hPa 0,0 l/m 6,7 km/h S 169 0 min 0,000 mm 0,0 UV-I 131 W/m 8,6 C 9,2 C 11,5 km/h 100,00 %
05.06.2020 07:28 9,3 C 95 % 996,6 hPa 0,0 l/m 6,6 km/h S-SO 157 0 min 0,000 mm 0,0 UV-I 128 W/m 8,5 C 9,2 C 11,5 km/h 100,00 %
05.06.2020 07:27 9,3 C 95 % 996,6 hPa 0,0 l/m 7,7 km/h S 185 0 min 0,000 mm 0,0 UV-I 122 W/m 8,5 C 8,3 C 11,5 km/h 100,00 %
05.06.2020 07:26 9,3 C 95 % 996,5 hPa 0,0 l/m 3,3 km/h S 186 0 min 0,000 mm 0,0 UV-I 120 W/m 8,5 C 9,3 C 5,7 km/h 100,00 %
05.06.2020 07:25 9,3 C 95 % 996,6 hPa 0,0 l/m 4,5 km/h S 171 0 min 0,000 mm 0,0 UV-I 117 W/m 8,5 C 9,3 C 9,6 km/h 96,15 %
05.06.2020 07:24 9,3 C 95 % 996,6 hPa 0,0 l/m 5,0 km/h S 174 0 min 0,000 mm 0,0 UV-I 114 W/m 8,5 C 9,3 C 7,7 km/h 100,00 %
05.06.2020 07:23 9,3 C 95 % 996,6 hPa 0,0 l/m 3,3 km/h S 175 0 min 0,000 mm 0,0 UV-I 113 W/m 8,5 C 9,3 C 9,6 km/h 95,65 %
05.06.2020 07:22 9,2 C 95 % 996,5 hPa 0,0 l/m 1,9 km/h S 179 0 min 0,000 mm 0,0 UV-I 109 W/m 8,4 C 9,2 C 3,8 km/h 100,00 %
05.06.2020 07:21 9,2 C 96 % 996,6 hPa 0,0 l/m 1,7 km/h S 179 0 min 0,000 mm 0,0 UV-I 104 W/m 8,6 C 9,2 C 1,9 km/h 100,00 %
05.06.2020 07:20 9,2 C 96 % 996,6 hPa 0,0 l/m 2,3 km/h S 179 0 min 0,000 mm 0,0 UV-I 102 W/m 8,6 C 9,2 C 5,7 km/h 100,00 %
05.06.2020 07:19 9,2 C 96 % 996,6 hPa 0,0 l/m 5,7 km/h S 173 0 min 0,000 mm 0,0 UV-I 99 W/m 8,6 C 9,2 C 11,5 km/h 100,00 %
05.06.2020 07:18 9,2 C 96 % 996,6 hPa 0,0 l/m 3,7 km/h S 182 0 min 0,000 mm 0,0 UV-I 96 W/m 8,6 C 9,2 C 7,7 km/h 100,00 %
05.06.2020 07:17 9,2 C 96 % 996,6 hPa 0,0 l/m 2,7 km/h S-SO 164 0 min 0,000 mm 0,0 UV-I 95 W/m 8,6 C 9,2 C 7,7 km/h 100,00 %
05.06.2020 07:16 9,2 C 96 % 996,6 hPa 0,0 l/m 4,8 km/h S 180 0 min 0,000 mm 0,0 UV-I 94 W/m 8,6 C 9,2 C 9,6 km/h 100,00 %
05.06.2020 07:15 9,2 C 96 % 996,6 hPa 0,0 l/m 3,5 km/h S 174 0 min 0,000 mm 0,0 UV-I 91 W/m 8,6 C 9,2 C 7,7 km/h 100,00 %
05.06.2020 07:14 9,2 C 96 % 996,6 hPa 0,0 l/m 6,2 km/h S 171 0 min 0,000 mm 0,0 UV-I 88 W/m 8,6 C 9,2 C 11,5 km/h 100,00 %
05.06.2020 07:13 9,2 C 96 % 996,6 hPa 0,0 l/m 3,7 km/h SO 146 0 min 0,000 mm 0,0 UV-I 88 W/m 8,6 C 9,2 C 7,7 km/h 100,00 %
05.06.2020 07:12 9,1 C 96 % 996,7 hPa 0,0 l/m 5,5 km/h S 173 0 min 0,000 mm 0,0 UV-I 85 W/m 8,5 C 9,1 C 13,4 km/h 100,00 %
05.06.2020 07:11 9,1 C 96 % 996,6 hPa 0,0 l/m 3,3 km/h S 174 0 min 0,000 mm 0,0 UV-I 84 W/m 8,5 C 9,1 C 7,7 km/h 100,00 %
05.06.2020 07:10 9,1 C 96 % 996,6 hPa 0,0 l/m 4,4 km/h S 170 0 min 0,000 mm 0,0 UV-I 83 W/m 8,5 C 9,1 C 9,6 km/h 100,00 %
05.06.2020 07:09 9,1 C 96 % 996,6 hPa 0,0 l/m 3,6 km/h S 172 0 min 0,000 mm 0,0 UV-I 83 W/m 8,5 C 9,1 C 7,7 km/h 100,00 %
05.06.2020 07:08 9,1 C 96 % 996,6 hPa 0,0 l/m 1,5 km/h S 175 0 min 0,000 mm 0,0 UV-I 81 W/m 8,5 C 9,1 C 3,8 km/h 100,00 %
05.06.2020 07:07 9,1 C 96 % 996,6 hPa 0,0 l/m 3,7 km/h S 175 0 min 0,000 mm 0,0 UV-I 81 W/m 8,5 C 9,1 C 9,6 km/h 95,83 %
05.06.2020 07:06 9,1 C 96 % 996,6 hPa 0,0 l/m 1,2 km/h S 173 0 min 0,000 mm 0,0 UV-I 79 W/m 8,5 C 9,1 C 5,7 km/h 100,00 %
05.06.2020 07:05 9,0 C 96 % 996,6 hPa 0,0 l/m 0,3 km/h S 176 0 min 0,000 mm 0,0 UV-I 78 W/m 8,4 C 9,0 C 1,9 km/h 100,00 %
05.06.2020 07:04 9,0 C 96 % 996,6 hPa 0,0 l/m 0,1 km/h S 176 0 min 0,000 mm 0,0 UV-I 77 W/m 8,4 C 9,0 C 1,9 km/h 100,00 %
05.06.2020 07:03 8,9 C 96 % 996,6 hPa 0,0 l/m 1,9 km/h S 175 0 min 0,000 mm 0,0 UV-I 76 W/m 8,3 C 8,9 C 3,8 km/h 100,00 %
05.06.2020 07:02 8,9 C 96 % 996,6 hPa 0,0 l/m 1,1 km/h S 180 0 min 0,000 mm 0,0 UV-I 76 W/m 8,3 C 8,9 C 5,7 km/h 100,00 %
05.06.2020 07:01 8,9 C 96 % 996,6 hPa 0,0 l/m 0,1 km/h S 177 0 min 0,000 mm 0,0 UV-I 73 W/m 8,3 C 8,9 C 1,9 km/h 100,00 %
05.06.2020 07:00 8,9 C 96 % 996,7 hPa 0,0 l/m 0,4 km/h S 170 0 min 0,025 mm 0,0 UV-I 71 W/m 8,3 C 8,9 C 1,9 km/h 100,00 %
05.06.2020 06:59 8,9 C 96 % 996,6 hPa 0,0 l/m 1,1 km/h S 169 0 min 0,000 mm 0,0 UV-I 70 W/m 8,3 C 8,9 C 3,8 km/h 100,00 %
05.06.2020 06:58 8,9 C 96 % 996,6 hPa 0,0 l/m 4,5 km/h S 169 0 min 0,000 mm 0,0 UV-I 69 W/m 8,3 C 8,9 C 7,7 km/h 100,00 %
05.06.2020 06:57 8,9 C 96 % 996,6 hPa 0,0 l/m 0,1 km/h S 179 0 min 0,000 mm 0,0 UV-I 67 W/m 8,3 C 8,9 C 1,9 km/h 100,00 %
05.06.2020 06:56 8,9 C 96 % 996,6 hPa 0,0 l/m 0,8 km/h S 184 0 min 0,000 mm 0,0 UV-I 65 W/m 8,3 C 8,9 C 5,7 km/h 100,00 %
05.06.2020 06:55 8,9 C 96 % 996,6 hPa 0,0 l/m 0,3 km/h S 184 0 min 0,000 mm 0,0 UV-I 63 W/m 8,3 C 8,9 C 3,8 km/h 100,00 %
05.06.2020 06:54 8,9 C 96 % 996,7 hPa 0,0 l/m 0,7 km/h S 185 0 min 0,000 mm 0,0 UV-I 62 W/m 8,3 C 8,9 C 3,8 km/h 96,30 %
05.06.2020 06:53 8,9 C 96 % 996,6 hPa 0,0 l/m 0,2 km/h S-SW 192 0 min 0,000 mm 0,0 UV-I 61 W/m 8,3 C 8,9 C 1,9 km/h 100,00 %
05.06.2020 06:52 8,9 C 96 % 996,7 hPa 0,0 l/m 1,5 km/h S-SW 192 0 min 0,000 mm 0,0 UV-I 60 W/m 8,3 C 8,9 C 3,8 km/h 100,00 %
05.06.2020 06:51 8,9 C 96 % 996,7 hPa 0,0 l/m 1,6 km/h S-SW 207 0 min 0,000 mm 0,0 UV-I 58 W/m 8,3 C 8,9 C 5,7 km/h 100,00 %
05.06.2020 06:50 8,9 C 96 % 996,7 hPa 0,0 l/m 0,0 km/h S-SW 207 0 min 0,000 mm 0,0 UV-I 58 W/m 8,3 C 8,9 C 0,0 km/h 100,00 %
05.06.2020 06:49 8,9 C 96 % 996,7 hPa 0,0 l/m 0,0 km/h S-SW 207 0 min 0,000 mm 0,0 UV-I 56 W/m 8,3 C 8,9 C 0,0 km/h 91,67 %
05.06.2020 06:48 8,8 C 96 % 996,7 hPa 0,0 l/m 0,2 km/h S-SW 207 0 min 0,000 mm 0,0 UV-I 56 W/m 8,2 C 8,8 C 3,8 km/h 100,00 %
05.06.2020 06:47 8,8 C 96 % 996,7 hPa 0,0 l/m 0,2 km/h S-SW 207 0 min 0,000 mm 0,0 UV-I 56 W/m 8,2 C 8,8 C 1,9 km/h 100,00 %
05.06.2020 06:46 8,8 C 96 % 996,7 hPa 0,0 l/m 1,1 km/h S-SW 207 0 min 0,000 mm 0,0 UV-I 56 W/m 8,2 C 8,8 C 7,7 km/h 100,00 %
05.06.2020 06:45 8,8 C 96 % 996,7 hPa 0,0 l/m 0,0 km/h S-SW 209 0 min 0,000 mm 0,0 UV-I 56 W/m 8,2 C 8,8 C 0,0 km/h 100,00 %
05.06.2020 06:44 8,8 C 96 % 996,8 hPa 0,0 l/m 0,0 km/h S-SW 209 0 min 0,000 mm 0,0 UV-I 56 W/m 8,2 C 8,8 C 0,0 km/h 100,00 %
05.06.2020 06:43 8,8 C 96 % 996,7 hPa 0,0 l/m 1,1 km/h S-SW 209 0 min 0,000 mm 0,0 UV-I 56 W/m 8,2 C 8,8 C 5,7 km/h 100,00 %
05.06.2020 06:42 8,8 C 96 % 996,7 hPa 0,0 l/m 0,0 km/h S 184 0 min 0,000 mm 0,0 UV-I 56 W/m 8,2 C 8,8 C 0,0 km/h 100,00 %
05.06.2020 06:41 8,8 C 96 % 996,7 hPa 0,0 l/m 0,0 km/h S 184 0 min 0,000 mm 0,0 UV-I 56 W/m 8,2 C 8,8 C 0,0 km/h 100,00 %
05.06.2020 06:40 8,8 C 96 % 996,7 hPa 0,0 l/m 0,5 km/h S 184 0 min 0,000 mm 0,0 UV-I 56 W/m 8,2 C 8,8 C 1,9 km/h 100,00 %
05.06.2020 06:39 8,8 C 96 % 996,7 hPa 0,0 l/m 1,4 km/h S 184 0 min 0,000 mm 0,0 UV-I 54 W/m 8,2 C 8,8 C 3,8 km/h 100,00 %
05.06.2020 06:38 8,8 C 96 % 996,7 hPa 0,0 l/m 0,6 km/h S 185 0 min 0,000 mm 0,0 UV-I 54 W/m 8,2 C 8,8 C 1,9 km/h 100,00 %
05.06.2020 06:37 8,8 C 96 % 996,7 hPa 0,0 l/m 2,1 km/h S 184 0 min 0,000 mm 0,0 UV-I 53 W/m 8,2 C 8,8 C 5,7 km/h 100,00 %
05.06.2020 06:36 8,7 C 96 % 996,7 hPa 0,0 l/m 0,0 km/h S 179 0 min 0,000 mm 0,0 UV-I 53 W/m 8,1 C 8,7 C 0,0 km/h 100,00 %
05.06.2020 06:35 8,7 C 96 % 996,7 hPa 0,0 l/m 0,5 km/h S 179 0 min 0,000 mm 0,0 UV-I 53 W/m 8,1 C 8,7 C 3,8 km/h 100,00 %
05.06.2020 06:34 8,7 C 96 % 996,7 hPa 0,0 l/m 0,1 km/h S 186 0 min 0,000 mm 0,0 UV-I 53 W/m 8,1 C 8,7 C 1,9 km/h 100,00 %
05.06.2020 06:33 8,7 C 96 % 996,7 hPa 0,0 l/m 0,4 km/h S 188 0 min 0,000 mm 0,0 UV-I 53 W/m 8,1 C 8,7 C 1,9 km/h 95,83 %
05.06.2020 06:32 8,7 C 96 % 996,7 hPa 0,0 l/m 0,1 km/h S 188 0 min 0,000 mm 0,0 UV-I 54 W/m 8,1 C 8,7 C 1,9 km/h 95,65 %
05.06.2020 06:31 8,6 C 96 % 996,7 hPa 0,0 l/m 0,4 km/h S 187 0 min 0,000 mm 0,0 UV-I 54 W/m 8,0 C 8,6 C 1,9 km/h 100,00 %
05.06.2020 06:30 8,6 C 96 % 996,7 hPa 0,0 l/m 0,2 km/h S 188 0 min 0,000 mm 0,0 UV-I 54 W/m 8,0 C 8,6 C 1,9 km/h 100,00 %
05.06.2020 06:29 8,6 C 96 % 996,8 hPa 0,0 l/m 0,0 km/h S 169 0 min 0,000 mm 0,0 UV-I 55 W/m 8,0 C 8,6 C 0,0 km/h 100,00 %
05.06.2020 06:28 8,6 C 96 % 996,8 hPa 0,0 l/m 0,5 km/h S 169 0 min 0,000 mm 0,0 UV-I 55 W/m 8,0 C 8,6 C 1,9 km/h 100,00 %
05.06.2020 06:27 8,6 C 96 % 996,9 hPa 0,0 l/m 1,5 km/h S-SO 167 0 min 0,000 mm 0,0 UV-I 53 W/m 8,0 C 8,6 C 5,7 km/h 100,00 %
05.06.2020 06:26 8,5 C 96 % 996,9 hPa 0,0 l/m 0,2 km/h S-SW 207 0 min 0,000 mm 0,0 UV-I 52 W/m 7,9 C 8,5 C 1,9 km/h 95,65 %
05.06.2020 06:25 8,5 C 96 % 996,9 hPa 0,0 l/m 1,0 km/h S-SW 209 0 min 0,000 mm 0,0 UV-I 50 W/m 7,9 C 8,5 C 5,7 km/h 95,83 %
05.06.2020 06:24 8,4 C 96 % 996,9 hPa 0,0 l/m 4,9 km/h S-SO 165 0 min 0,000 mm 0,0 UV-I 49 W/m 7,8 C 8,4 C 7,7 km/h 100,00 %
05.06.2020 06:23 8,4 C 96 % 996,9 hPa 0,0 l/m 3,3 km/h S 190 0 min 0,000 mm 0,0 UV-I 49 W/m 7,8 C 8,4 C 7,7 km/h 100,00 %
05.06.2020 06:22 8,4 C 96 % 996,9 hPa 0,0 l/m 1,4 km/h S-SW 192 0 min 0,000 mm 0,0 UV-I 49 W/m 7,8 C 8,4 C 7,7 km/h 100,00 %
05.06.2020 06:21 8,4 C 96 % 996,9 hPa 0,0 l/m 0,1 km/h S 177 0 min 0,000 mm 0,0 UV-I 47 W/m 7,8 C 8,4 C 1,9 km/h 100,00 %
05.06.2020 06:20 8,4 C 96 % 996,9 hPa 0,0 l/m 0,6 km/h S 177 0 min 0,000 mm 0,0 UV-I 47 W/m 7,8 C 8,4 C 3,8 km/h 100,00 %
05.06.2020 06:19 8,3 C 96 % 996,9 hPa 0,0 l/m 0,8 km/h S 178 0 min 0,000 mm 0,0 UV-I 47 W/m 7,7 C 8,3 C 3,8 km/h 100,00 %
05.06.2020 06:18 8,3 C 96 % 996,9 hPa 0,0 l/m 0,0 km/h S 178 0 min 0,000 mm 0,0 UV-I 47 W/m 7,7 C 8,3 C 0,0 km/h 100,00 %
05.06.2020 06:17 8,3 C 96 % 997,0 hPa 0,0 l/m 1,5 km/h S 178 0 min 0,000 mm 0,0 UV-I 47 W/m 7,7 C 8,3 C 5,7 km/h 100,00 %
05.06.2020 06:16 8,3 C 96 % 997,0 hPa 0,0 l/m 0,7 km/h S 178 0 min 0,000 mm 0,0 UV-I 46 W/m 7,7 C 8,3 C 5,7 km/h 95,83 %
05.06.2020 06:15 8,3 C 96 % 997,0 hPa 0,0 l/m 1,3 km/h S 178 0 min 0,000 mm 0,0 UV-I 46 W/m 7,7 C 8,3 C 1,9 km/h 100,00 %
05.06.2020 06:14 8,3 C 96 % 997,0 hPa 0,0 l/m 0,0 km/h S 178 0 min 0,000 mm 0,0 UV-I 46 W/m 7,7 C 8,3 C 0,0 km/h 100,00 %
05.06.2020 06:13 8,2 C 96 % 997,0 hPa 0,0 l/m 0,0 km/h S 178 0 min 0,000 mm 0,0 UV-I 44 W/m 7,6 C 8,2 C 0,0 km/h 100,00 %
05.06.2020 06:12 8,2 C 96 % 997,0 hPa 0,0 l/m 0,5 km/h S 178 0 min 0,000 mm 0,0 UV-I 43 W/m 7,6 C 8,2 C 1,9 km/h 100,00 %
05.06.2020 06:11 8,2 C 96 % 997,0 hPa 0,0 l/m 0,3 km/h S 178 0 min 0,000 mm 0,0 UV-I 41 W/m 7,6 C 8,2 C 1,9 km/h 100,00 %
05.06.2020 06:10 8,2 C 96 % 997,0 hPa 0,0 l/m 0,0 km/h S 177 0 min 0,000 mm 0,0 UV-I 40 W/m 7,6 C 8,2 C 0,0 km/h 100,00 %
05.06.2020 06:09 8,2 C 96 % 997,0 hPa 0,0 l/m 0,7 km/h S 177 0 min 0,000 mm 0,0 UV-I 39 W/m 7,6 C 8,2 C 1,9 km/h 100,00 %
05.06.2020 06:08 8,1 C 96 % 997,0 hPa 0,0 l/m 0,9 km/h S 176 0 min 0,000 mm 0,0 UV-I 38 W/m 7,5 C 8,1 C 5,7 km/h 100,00 %
05.06.2020 06:07 8,1 C 96 % 997,0 hPa 0,0 l/m 1,1 km/h S 175 0 min 0,000 mm 0,0 UV-I 37 W/m 7,5 C 8,1 C 3,8 km/h 100,00 %
05.06.2020 06:06 8,1 C 96 % 997,0 hPa 0,0 l/m 2,1 km/h S 172 0 min 0,000 mm 0,0 UV-I 36 W/m 7,5 C 8,1 C 7,7 km/h 100,00 %
05.06.2020 06:05 8,1 C 96 % 997,0 hPa 0,0 l/m 1,1 km/h S 171 0 min 0,000 mm 0,0 UV-I 34 W/m 7,5 C 8,1 C 3,8 km/h 100,00 %
05.06.2020 06:04 8,0 C 96 % 997,0 hPa 0,0 l/m 6,1 km/h S-SO 167 0 min 0,000 mm 0,0 UV-I 33 W/m 7,4 C 8,0 C 9,6 km/h 100,00 %
05.06.2020 06:03 7,9 C 96 % 997,0 hPa 0,0 l/m 1,9 km/h S-SO 167 0 min 0,000 mm 0,0 UV-I 32 W/m 7,3 C 7,9 C 7,7 km/h 95,65 %
05.06.2020 06:02 7,9 C 96 % 997,0 hPa 0,0 l/m 0,1 km/h S 174 0 min 0,000 mm 0,0 UV-I 31 W/m 7,3 C 7,9 C 1,9 km/h 98,21 %
05.06.2020 06:01 7,9 C 96 % 996,9 hPa 0,0 l/m 1,2 km/h S 174 0 min 0,000 mm 0,0 UV-I 29 W/m 7,3 C 7,9 C 1,9 km/h 99,50 %
05.06.2020 06:00 7,8 C 96 % 996,9 hPa 0,0 l/m 1,7 km/h S 174 0 min 0,000 mm 0,0 UV-I 28 W/m 7,2 C 7,8 C 3,8 km/h 100,00 %
05.06.2020 05:59 7,8 C 96 % 996,9 hPa 0,0 l/m 0,2 km/h S 191 0 min 0,000 mm 0,0 UV-I 28 W/m 7,2 C 7,8 C 1,9 km/h 100,00 %
05.06.2020 05:58 7,8 C 96 % 997,0 hPa 0,0 l/m 0,0 km/h S 191 0 min 0,000 mm 0,0 UV-I 26 W/m 7,2 C 7,8 C 0,0 km/h 100,00 %
05.06.2020 05:57 7,8 C 96 % 997,0 hPa 0,0 l/m 0,0 km/h S 191 0 min 0,000 mm 0,0 UV-I 26 W/m 7,2 C 7,8 C 0,0 km/h 100,00 %
05.06.2020 05:56 7,8 C 96 % 997,0 hPa 0,0 l/m 0,0 km/h S 191 0 min 0,000 mm 0,0 UV-I 25 W/m 7,2 C 7,8 C 0,0 km/h 100,00 %
05.06.2020 05:55 7,8 C 96 % 997,0 hPa 0,0 l/m 0,0 km/h S 191 0 min 0,000 mm 0,0 UV-I 24 W/m 7,2 C 7,8 C 0,0 km/h 100,00 %
05.06.2020 05:54 7,8 C 96 % 997,0 hPa 0,0 l/m 0,0 km/h S 191 0 min 0,000 mm 0,0 UV-I 23 W/m 7,2 C 7,8 C 0,0 km/h 100,00 %
05.06.2020 05:53 7,8 C 96 % 997,0 hPa 0,0 l/m 0,0 km/h S 191 0 min 0,000 mm 0,0 UV-I 22 W/m 7,2 C 7,8 C 0,0 km/h 100,00 %
05.06.2020 05:52 7,8 C 96 % 997,0 hPa 0,0 l/m 0,0 km/h S 191 0 min 0,000 mm 0,0 UV-I 21 W/m 7,2 C 7,8 C 0,0 km/h 100,00 %
05.06.2020 05:51 7,8 C 96 % 997,0 hPa 0,0 l/m 0,0 km/h S 191 0 min 0,000 mm 0,0 UV-I 19 W/m 7,2 C 7,8 C 0,0 km/h 100,00 %
05.06.2020 05:50 7,8 C 96 % 997,0 hPa 0,0 l/m 0,0 km/h S 191 0 min 0,000 mm 0,0 UV-I 18 W/m 7,2 C 7,8 C 0,0 km/h 100,00 %
05.06.2020 05:49 7,7 C 96 % 997,0 hPa 0,0 l/m 0,0 km/h S 191 0 min 0,000 mm 0,0 UV-I 17 W/m 7,1 C 7,7 C 0,0 km/h 100,00 %
05.06.2020 05:48 7,7 C 96 % 997,0 hPa 0,0 l/m 0,0 km/h S 191 0 min 0,000 mm 0,0 UV-I 16 W/m 7,1 C 7,7 C 0,0 km/h 100,00 %
05.06.2020 05:47 7,7 C 96 % 997,0 hPa 0,0 l/m 0,0 km/h S 191 0 min 0,000 mm 0,0 UV-I 16 W/m 7,1 C 7,7 C 0,0 km/h 100,00 %
05.06.2020 05:46 7,7 C 96 % 997,0 hPa 0,0 l/m 0,0 km/h S 191 0 min 0,000 mm 0,0 UV-I 14 W/m 7,1 C 7,7 C 0,0 km/h 100,00 %
05.06.2020 05:45 7,7 C 96 % 997,0 hPa 0,0 l/m 0,1 km/h S 191 0 min 0,000 mm 0,0 UV-I 14 W/m 7,1 C 7,7 C 1,9 km/h 100,00 %
05.06.2020 05:44 7,7 C 96 % 997,0 hPa 0,0 l/m 0,0 km/h S 191 0 min 0,000 mm 0,0 UV-I 13 W/m 7,1 C 7,7 C 0,0 km/h 100,00 %
05.06.2020 05:43 7,7 C 96 % 997,0 hPa 0,0 l/m 0,0 km/h S 191 0 min 0,000 mm 0,0 UV-I 12 W/m 7,1 C 7,7 C 0,0 km/h 100,00 %
05.06.2020 05:42 7,7 C 96 % 997,0 hPa 0,0 l/m 0,1 km/h S 191 0 min 0,000 mm 0,0 UV-I 12 W/m 7,1 C 7,7 C 1,9 km/h 100,00 %
05.06.2020 05:41 7,7 C 96 % 997,0 hPa 0,0 l/m 0,0 km/h S 191 0 min 0,000 mm 0,0 UV-I 12 W/m 7,1 C 7,7 C 0,0 km/h 100,00 %
05.06.2020 05:40 7,7 C 96 % 997,0 hPa 0,0 l/m 0,0 km/h S 191 0 min 0,000 mm 0,0 UV-I 11 W/m 7,1 C 7,7 C 0,0 km/h 100,00 %
05.06.2020 05:39 7,7 C 96 % 997,0 hPa 0,0 l/m 0,0 km/h S 191 0 min 0,000 mm 0,0 UV-I 11 W/m 7,1 C 7,7 C 0,0 km/h 100,00 %
05.06.2020 05:38 7,7 C 96 % 997,0 hPa 0,0 l/m 0,2 km/h S 191 0 min 0,000 mm 0,0 UV-I 11 W/m 7,1 C 7,7 C 1,9 km/h 100,00 %
05.06.2020 05:37 7,7 C 96 % 997,0 hPa 0,0 l/m 0,0 km/h S 191 0 min 0,000 mm 0,0 UV-I 10 W/m 7,1 C 7,7 C 0,0 km/h 100,00 %
05.06.2020 05:36 7,7 C 96 % 997,0 hPa 0,0 l/m 0,0 km/h S 191 0 min 0,000 mm 0,0 UV-I 9 W/m 7,1 C 7,7 C 0,0 km/h 100,00 %
05.06.2020 05:35 7,7 C 96 % 997,1 hPa 0,0 l/m 0,0 km/h S 191 0 min 0,000 mm 0,0 UV-I 9 W/m 7,1 C 7,7 C 0,0 km/h 99,36 %
05.06.2020 05:34 7,7 C 96 % 997,1 hPa 0,0 l/m 0,0 km/h S 191 0 min 0,000 mm 0,0 UV-I 9 W/m 7,1 C 7,7 C 0,0 km/h 100,00 %
05.06.2020 05:33 7,7 C 96 % 997,1 hPa 0,0 l/m 0,0 km/h S 191 0 min 0,000 mm 0,0 UV-I 9 W/m 7,1 C 7,7 C 0,0 km/h 100,00 %
05.06.2020 05:32 7,7 C 96 % 997,1 hPa 0,0 l/m 0,0 km/h S 191 0 min 0,000 mm 0,0 UV-I 8 W/m 7,1 C 7,7 C 0,0 km/h 100,00 %
05.06.2020 05:31 7,8 C 96 % 997,1 hPa 0,0 l/m 0,0 km/h S 191 0 min 0,000 mm 0,0 UV-I 7 W/m 7,2 C 7,8 C 0,0 km/h 100,00 %
05.06.2020 05:30 7,8 C 96 % 997,2 hPa 0,0 l/m 0,0 km/h S 191 0 min 0,000 mm 0,0 UV-I 7 W/m 7,2 C 7,8 C 0,0 km/h 100,00 %
05.06.2020 05:29 7,8 C 96 % 997,2 hPa 0,0 l/m 0,3 km/h S 191 0 min 0,000 mm 0,0 UV-I 7 W/m 7,2 C 7,8 C 1,9 km/h 100,00 %
05.06.2020 05:28 7,8 C 96 % 997,1 hPa 0,0 l/m 0,3 km/h S 191 0 min 0,000 mm 0,0 UV-I 7 W/m 7,2 C 7,8 C 3,8 km/h 100,00 %
05.06.2020 05:27 7,8 C 96 % 997,1 hPa 0,0 l/m 0,2 km/h S 190 0 min 0,000 mm 0,0 UV-I 5 W/m 7,2 C 7,8 C 1,9 km/h 95,65 %
05.06.2020 05:26 7,8 C 96 % 997,1 hPa 0,0 l/m 0,0 km/h S-SW 207 0 min 0,000 mm 0,0 UV-I 5 W/m 7,2 C 7,8 C 0,0 km/h 100,00 %
05.06.2020 05:25 7,8 C 96 % 997,1 hPa 0,0 l/m 0,7 km/h S-SW 207 0 min 0,000 mm 0,0 UV-I 5 W/m 7,2 C 7,8 C 3,8 km/h 96,15 %
05.06.2020 05:24 7,8 C 96 % 997,2 hPa 0,0 l/m 0,2 km/h S-SW 207 0 min 0,000 mm 0,0 UV-I 5 W/m 7,2 C 7,8 C 1,9 km/h 100,00 %
05.06.2020 05:23 7,8 C 96 % 997,1 hPa 0,0 l/m 0,2 km/h S-SW 207 0 min 0,000 mm 0,0 UV-I 5 W/m 7,2 C 7,8 C 1,9 km/h 100,00 %
05.06.2020 05:22 7,8 C 96 % 997,1 hPa 0,0 l/m 0,8 km/h S-SW 207 0 min 0,000 mm 0,0 UV-I 5 W/m 7,2 C 7,8 C 3,8 km/h 100,00 %
05.06.2020 05:21 7,8 C 96 % 997,1 hPa 0,0 l/m 0,0 km/h S-SW 209 0 min 0,000 mm 0,0 UV-I 5 W/m 7,2 C 7,8 C 0,0 km/h 100,00 %
05.06.2020 05:20 7,8 C 96 % 997,2 hPa 0,0 l/m 0,2 km/h S-SW 209 0 min 0,000 mm 0,0 UV-I 5 W/m 7,2 C 7,8 C 1,9 km/h 95,65 %
05.06.2020 05:19 7,8 C 96 % 997,2 hPa 0,0 l/m 0,1 km/h S-SW 209 0 min 0,000 mm 0,0 UV-I 5 W/m 7,2 C 7,8 C 1,9 km/h 100,00 %
05.06.2020 05:18 7,8 C 96 % 997,2 hPa 0,0 l/m 0,5 km/h S-SW 209 0 min 0,000 mm 0,0 UV-I 1 W/m 7,2 C 7,8 C 1,9 km/h 100,00 %
05.06.2020 05:17 7,8 C 96 % 997,2 hPa 0,0 l/m 0,7 km/h S-SW 209 0 min 0,000 mm 0,0 UV-I 0 W/m 7,2 C 7,8 C 1,9 km/h 100,00 %
05.06.2020 05:16 7,8 C 96 % 997,2 hPa 0,0 l/m 3,7 km/h S-SW 209 0 min 0,000 mm 0,0 UV-I 0 W/m 7,2 C 7,8 C 7,7 km/h 96,55 %
05.06.2020 05:15 7,8 C 96 % 997,2 hPa 0,0 l/m 1,5 km/h S-SW 209 0 min 0,000 mm 0,0 UV-I 0 W/m 7,2 C 7,8 C 3,8 km/h 100,00 %
05.06.2020 05:14 7,8 C 96 % 997,2 hPa 0,0 l/m 2,9 km/h S-SW 209 0 min 0,000 mm 0,0 UV-I 0 W/m 7,2 C 7,8 C 7,7 km/h 95,65 %
05.06.2020 05:13 7,8 C 96 % 997,2 hPa 0,0 l/m 0,7 km/h S-SW 207 0 min 0,000 mm 0,0 UV-I 0 W/m 7,2 C 7,8 C 3,8 km/h 100,00 %
05.06.2020 05:12 7,8 C 96 % 997,3 hPa 0,0 l/m 1,9 km/h S-SW 207 0 min 0,000 mm 0,0 UV-I 0 W/m 7,2 C 7,8 C 3,8 km/h 100,00 %
05.06.2020 05:11 7,8 C 96 % 997,3 hPa 0,0 l/m 1,8 km/h S-SW 207 0 min 0,000 mm 0,0 UV-I 0 W/m 7,2 C 7,8 C 5,7 km/h 100,00 %
05.06.2020 05:10 7,8 C 96 % 997,3 hPa 0,0 l/m 2,4 km/h S-SW 201 0 min 0,000 mm 0,0 UV-I 0 W/m 7,2 C 7,8 C 3,8 km/h 100,00 %
05.06.2020 05:09 7,8 C 96 % 997,3 hPa 0,0 l/m 2,6 km/h S-SW 201 0 min 0,000 mm 0,0 UV-I 0 W/m 7,2 C 7,8 C 5,7 km/h 100,00 %
05.06.2020 05:08 7,8 C 96 % 997,3 hPa 0,0 l/m 2,8 km/h S-SW 204 0 min 0,000 mm 0,0 UV-I 0 W/m 7,2 C 7,8 C 5,7 km/h 96,15 %
05.06.2020 05:07 7,8 C 96 % 997,2 hPa 0,0 l/m 1,0 km/h S-SW 203 0 min 0,000 mm 0,0 UV-I 0 W/m 7,2 C 7,8 C 5,7 km/h 100,00 %
05.06.2020 05:06 7,8 C 96 % 997,3 hPa 0,0 l/m 3,1 km/h S-SW 203 0 min 0,000 mm 0,0 UV-I 0 W/m 7,2 C 7,8 C 5,7 km/h 100,00 %
05.06.2020 05:05 7,8 C 96 % 997,3 hPa 0,0 l/m 1,9 km/h S-SW 205 0 min 0,000 mm 0,0 UV-I 0 W/m 7,2 C 7,8 C 5,7 km/h 100,00 %
05.06.2020 05:04 7,8 C 96 % 997,3 hPa 0,0 l/m 1,8 km/h S-SW 205 0 min 0,000 mm 0,0 UV-I 0 W/m 7,2 C 7,8 C 3,8 km/h 100,00 %
05.06.2020 05:03 7,8 C 96 % 997,2 hPa 0,0 l/m 2,0 km/h S-SW 205 0 min 0,000 mm 0,0 UV-I 0 W/m 7,2 C 7,8 C 5,7 km/h 100,00 %
05.06.2020 05:02 7,8 C 96 % 997,3 hPa 0,0 l/m 2,2 km/h S-SW 205 0 min 0,000 mm 0,0 UV-I 0 W/m 7,2 C 7,8 C 3,8 km/h 100,00 %
05.06.2020 05:01 7,8 C 96 % 997,3 hPa 0,0 l/m 1,0 km/h S-SW 205 0 min 0,000 mm 0,0 UV-I 0 W/m 7,2 C 7,8 C 3,8 km/h 100,00 %
05.06.2020 05:00 7,8 C 96 % 997,3 hPa 0,0 l/m 2,3 km/h S-SW 207 0 min 0,000 mm 0,0 UV-I 0 W/m 7,2 C 7,8 C 3,8 km/h 100,00 %
_ Min-Zeit 05:32 19:39 14:35 - 05:21 - - - - - - 01:19 17:40 05:21 09:42
Minimum _ 7,7 C 78 % 991,1 hPa - 0,0 km/h - - - - - - 6,4 C 2,8 C 0,0 km/h 90,91 %
_ Max-Zeit 09:57 05:00 03:58 13:19 17:39 - - 07:51 19:01 15:59 15:59 16:19 09:54 17:39 05:00
Maximum _ 12,9 C 96 % 998,1 hPa 0,6 l/m 31,0 km/h
S-SW
- - 1 min 0,203 mm 3,4 UV-I 908 W/m 11,4 C 12,8 C 55,5 km/h
SW
100,00 %
Durchschnitt _ 10,2 C 89 % 995,3 hPa #13,6 l/m 7,2 km/h S - #0 min. #0,102 mm 0,0 UV-I 0 W/m 8,4 C 8,9 C 12,8 km/h 99,49 %